ECMWFFLT2_sfc_dewp_051.txt.gz
Dewpoint
31 32 32 34 34 34 33 34 35 35 35 35 34 35 35 34 32 32 33 35 36 37 38 37 38 39 41 45 45 46 47 47 47 47 48 48 48 49 49 49 49 49 50 50 50 49 49 50 50 50 49 50
31 32 33 33 32 31 32 32 33 33 33 32 31 32 31 30 28 29 30 32 33 35 34 34 36 38 40 42 44 44 45 45 46 47 47 47 47 47 47 47 48 48 48 49 49 48 48 48 48 48 48 47
24 30 32 33 32 32 31 32 32 32 31 30 29 29 28 27 26 26 26 28 29 32 32 31 32 34 38 39 42 43 43 44 44 46 46 46 46 46 46 46 46 46 47 47 47 47 47 47 46 47 46 45
23 26 32 31 31 31 30 31 31 31 30 28 27 27 26 25 22 23 19 25 22 27 28 26 27 32 36 37 37 40 40 41 42 44 44 45 45 45 44 44 44 44 45 46 46 46 46 45 45 43 44 44
22 25 29 26 28 29 29 28 28 28 28 28 25 25 25 23 19 21 20 16 19 23 19 24 27 29 32 34 35 36 35 37 39 42 43 43 44 43 42 41 39 39 42 44 44 44 44 44 42 43 43 43
24 26 25 22 22 22 24 26 28 23 24 25 22 24 21 20 18 18 19 18 22 20 18 17 25 26 28 31 32 34 32 33 35 39 40 41 42 41 40 38 35 35 37 39 41 41 42 41 41 42 42 42
24 22 21 21 20 23 24 24 24 21 22 21 21 21 20 19 17 20 20 17 21 21 21 17 22 23 26 27 28 30 28 29 31 34 35 36 37 36 35 33 34 34 35 35 38 38 37 38 39 40 41 41
19 22 18 18 20 21 19 22 21 20 21 21 20 20 20 18 19 22 19 21 22 22 17 16 20 22 21 22 22 25 21 24 25 29 29 30 32 29 28 29 30 31 33 34 35 35 36 36 36 38 40 41
20 20 17 18 20 21 19 20 18 18 19 20 20 21 19 22 22 22 19 20 18 17 17 17 17 17 17 16 17 20 16 16 17 19 20 20 23 21 23 25 24 27 30 31 32 33 35 35 36 36 38 39
19 17 16 17 19 18 20 18 17 17 18 18 19 19 20 20 20 20 19 20 20 19 17 17 16 16 15 17 16 15 13 13 15 15 15 17 18 18 20 22 22 24 26 26 28 30 32 33 33 35 36 37
16 15 16 18 21 20 23 17 18 16 17 17 18 19 19 19 18 18 18 19 20 19 17 16 15 15 15 16 14 12 11 13 12 11 12 14 15 16 18 19 20 23 24 24 24 26 28 31 31 33 35 36
12 14 17 20 20 16 25 17 17 15 16 18 15 18 16 18 17 18 19 19 19 19 18 16 17 17 15 14 13 11 11 12 10 9 10 12 13 12 15 16 17 20 21 22 23 24 25 26 28 31 34 35
12 14 16 18 16 15 24 16 16 15 17 15 15 15 17 17 17 19 19 20 20 19 17 18 17 16 14 13 13 12 9 11 10 9 9 10 12 11 13 13 14 17 18 19 21 22 23 23 24 28 31 32
14 16 16 19 16 15 20 16 17 17 14 14 14 13 15 15 17 18 14 16 17 18 18 17 17 18 15 12 11 12 11 10 9 8 8 9 11 8 11 10 11 14 15 17 18 20 22 22 23 27 29 30
12 16 14 20 15 16 17 17 18 13 12 14 13 13 16 15 15 18 15 14 15 18 16 17 16 13 14 12 11 11 11 11 12 9 8 9 9 8 10 9 9 11 13 14 16 18 20 21 22 24 25 28
15 16 14 21 15 14 17 18 14 11 11 13 11 14 15 14 12 19 14 15 15 18 13 13 13 12 13 11 11 11 12 12 12 10 11 10 12 9 10 8 9 11 11 12 13 16 18 19 21 21 22 24
13 15 16 17 15 14 18 15 13 11 10 9 11 13 14 13 13 18 15 13 15 17 13 12 13 11 11 11 11 12 14 13 13 10 11 10 11 9 10 8 9 12 10 10 11 13 14 17 19 19 20 21
13 15 14 17 14 13 14 11 12 11 9 8 9 11 13 12 10 15 14 14 14 14 14 10 10 10 9 10 12 12 12 10 9 10 11 10 10 10 9 7 8 8 9 9 9 10 13 15 16 17 18 20
13 13 14 12 12 11 13 11 11 9 8 6 7 9 9 9 10 15 13 14 12 11 14 9 8 9 7 11 12 9 10 10 10 11 10 10 9 9 9 9 9 8 8 8 8 9 11 11 12 16 17 18
11 11 8 10 13 12 13 9 10 7 6 5 6 8 9 7 10 17 9 14 11 8 9 10 6 6 9 12 10 9 10 10 9 10 11 11 10 7 9 10 8 8 8 8 7 9 10 9 12 12 15 16
15 8 5 4 5 8 9 8 7 5 6 6 6 7 5 7 13 14 9 8 11 7 7 10 8 7 10 10 9 8 9 8 9 9 12 10 10 9 8 9 8 8 8 8 10 9 9 10 11 11 11 14
9 7 6 7 8 10 8 6 4 5 5 4 5 7 4 9 11 9 8 7 9 7 7 10 9 8 9 9 8 7 9 7 8 9 9 9 9 7 10 8 8 7 6 10 12 10 10 9 8 9 10 12
13 9 6 4 4 3 2 4 5 6 3 4 5 4 5 8 8 5 7 7 8 6 5 8 10 8 8 7 7 6 7 8 8 9 10 10 8 11 11 9 8 6 9 11 12 12 10 9 8 10 10 12
13 12 9 8 4 1 2 2 6 6 4 5 4 4 6 7 7 6 5 6 6 6 5 8 8 7 7 6 7 7 9 7 6 9 11 9 11 11 11 9 7 9 10 11 12 11 10 9 8 8 10 10
8 7 7 5 1 -1 -3 -1 1 2 4 4 1 3 6 7 6 6 6 5 5 4 6 7 7 6 6 6 8 8 9 7 9 9 7 9 10 11 10 9 10 11 13 11 9 8 8 7 8 11 12 14
7 6 4 1 1 -2 -3 -1 -0 -2 -3 -1 -0 3 7 6 6 6 5 4 4 4 5 7 6 5 5 6 6 9 5 5 9 6 5 7 7 10 10 9 12 13 12 10 7 6 5 6 9 17 19 23
5 4 7 2 1 -1 -1 -0 0 -1 2 1 1 1 5 5 5 4 4 4 4 3 4 6 6 4 5 7 6 3 3 2 4 4 4 6 6 6 6 9 11 11 8 7 7 8 6 4 7 7 11 14
4 4 3 5 3 1 -1 -0 3 0 0 1 1 1 2 4 5 4 4 3 3 2 3 5 6 5 6 6 3 2 0 -0 0 2 2 4 5 5 0 4 4 6 7 9 12 7 8 6 -1 -3 4 9
11 8 8 6 6 7 7 4 3 0 -2 -2 -0 0 1 1 3 3 3 3 2 2 4 6 6 6 6 5 2 1 -0 -1 1 2 3 4 4 0 1 1 0 3 5 10 14 10 7 7 8 8 9 9
9 9 4 0 0 -2 -2 -2 -3 -5 -5 -4 -5 -4 -1 -0 -2 -1 2 2 1 1 4 5 6 7 6 3 1 1 0 0 1 1 3 3 2 0 2 1 -1 -2 3 9 9 8 12 11 11 10 8 6
9 4 2 -0 -1 -1 -2 -4 -5 -5 -5 -5 -5 -2 -4 -3 -2 1 -1 -2 -1 1 3 5 5 6 4 1 -0 1 0 -0 1 1 3 5 2 -0 4 1 -4 -3 -2 2 2 7 11 9 9 9 10 6

ECMWFFLT2_sfc_dewp_054.txt.gz
Dewpoint
30 31 31 32 33 32 33 33 34 34 34 33 33 32 32 32 31 29 30 32 34 35 34 33 35 35 37 39 40 42 43 42 43 42 44 46 46 47 47 47 47 47 48 48 48 48 48 48 47 47 46 43
28 30 31 32 31 30 31 31 32 32 32 31 31 30 30 29 28 27 27 29 30 32 32 31 32 33 36 37 38 40 41 39 40 41 41 44 45 46 45 45 46 46 46 47 47 47 47 46 46 45 45 42
23 28 31 31 29 29 29 30 30 31 30 30 28 29 28 28 27 26 26 27 27 29 30 28 29 31 34 35 37 37 39 37 38 40 42 42 42 44 44 44 44 44 45 46 46 45 45 45 44 44 43 42
20 24 29 28 27 27 28 28 29 29 28 28 26 27 27 26 23 22 20 25 20 26 27 24 24 28 32 33 35 34 36 34 35 37 40 40 41 41 42 42 41 42 43 44 44 44 43 43 42 40 40 41
21 22 26 21 23 25 25 26 27 26 24 24 22 23 23 22 15 17 16 17 16 23 21 23 23 25 28 31 31 31 32 31 32 35 35 36 39 38 38 38 37 38 40 42 42 42 41 41 38 38 39 40
22 23 21 19 19 19 19 22 23 19 20 21 19 21 17 14 12 13 15 16 20 17 18 19 21 22 25 27 27 28 28 28 28 31 32 32 34 33 33 33 32 33 35 37 39 39 39 36 37 36 37 39
21 18 15 16 18 20 20 21 21 19 18 17 18 17 15 13 10 14 16 14 20 23 23 20 20 21 23 24 24 24 24 24 24 27 27 28 30 29 30 30 31 31 33 33 35 35 34 34 35 35 35 37
15 17 12 13 16 16 15 18 18 17 18 18 18 18 14 11 15 18 14 18 20 20 17 17 18 19 21 20 20 21 19 19 20 23 23 25 26 23 23 24 25 27 30 31 31 32 33 33 33 33 34 36
14 17 12 13 13 16 13 17 15 13 15 17 19 18 14 16 17 18 14 16 15 15 15 17 17 17 16 16 18 18 18 15 17 17 18 17 18 18 21 21 21 23 26 27 27 28 30 31 32 33 33 35
13 18 11 11 10 12 12 19 15 12 14 14 16 17 17 15 16 16 15 17 17 17 15 15 14 15 15 15 17 15 14 13 14 14 14 15 15 15 16 19 19 21 24 25 24 26 27 29 30 31 33 33
14 12 13 12 14 16 10 15 15 11 11 12 15 17 17 14 12 14 14 15 17 17 17 15 14 13 14 15 14 13 12 15 14 12 13 13 14 13 14 17 18 19 22 22 24 25 26 27 28 29 31 32
11 13 14 15 17 16 13 17 13 10 11 16 12 15 13 14 12 11 13 15 14 16 17 16 17 16 14 14 12 13 12 13 12 10 11 13 13 11 12 13 16 16 18 19 22 23 25 26 26 27 29 31
12 11 14 15 14 13 15 15 12 11 14 12 10 11 15 15 11 10 14 14 13 13 16 17 17 15 14 15 12 13 11 12 12 11 10 11 12 12 12 12 13 14 14 16 18 20 22 25 25 26 27 29
13 12 14 16 15 12 15 12 13 16 11 9 9 9 12 14 12 11 12 14 12 13 16 16 17 17 16 13 12 11 12 11 11 10 10 11 12 10 12 10 12 12 13 13 15 18 20 22 23 24 25 27
9 10 10 13 14 14 13 13 14 12 10 9 9 10 13 15 13 11 12 14 13 11 13 14 16 15 14 12 12 11 12 12 13 12 10 12 11 10 11 10 10 11 12 13 13 15 18 19 19 21 24 24
13 11 11 14 14 12 13 15 12 10 10 11 8 11 14 14 11 12 11 16 15 13 13 13 12 13 13 12 11 12 12 12 13 12 13 14 14 14 13 10 11 11 11 12 11 12 14 16 17 19 21 23
10 13 12 13 14 12 16 13 12 10 10 10 10 11 12 13 12 11 10 12 15 15 11 12 13 12 13 12 11 12 14 16 13 11 11 13 13 13 12 11 12 14 11 11 11 11 11 12 14 17 19 20
6 11 13 12 11 12 13 10 8 10 10 9 8 9 10 12 12 11 8 11 14 13 10 12 13 12 11 10 13 12 12 10 9 8 10 11 11 12 11 11 11 10 11 10 9 9 9 10 12 14 14 17
6 6 12 11 12 11 13 10 9 8 9 7 7 6 6 9 11 10 9 12 13 12 10 10 10 10 10 11 13 10 9 10 9 9 10 9 10 11 11 10 11 12 11 10 9 10 9 8 8 11 12 14
9 9 8 11 12 9 14 11 10 7 8 7 5 5 8 9 11 11 10 13 14 12 10 8 8 8 9 12 11 10 10 10 10 9 12 11 11 10 12 11 11 11 10 10 9 9 9 10 11 10 11 12
14 7 5 5 5 9 13 11 8 7 8 7 6 5 5 8 9 11 13 15 12 10 10 8 8 9 11 11 10 9 9 8 10 9 12 10 11 12 10 10 10 10 9 9 7 7 10 11 12 12 11 11
11 9 7 7 8 10 7 6 8 7 6 6 5 5 5 8 8 10 12 12 10 8 9 9 9 11 10 10 9 9 9 7 8 9 9 9 10 10 10 9 10 10 8 10 11 10 11 12 11 12 11 10
9 8 5 4 4 4 4 7 7 6 5 6 5 5 8 8 7 8 12 12 11 8 7 7 7 9 10 10 8 7 8 8 8 9 9 10 10 10 10 9 11 10 10 12 14 14 12 12 11 12 12 12
12 10 9 7 4 4 6 5 7 8 7 6 4 7 7 7 8 9 9 10 9 9 7 7 6 8 10 9 7 7 7 7 7 8 10 10 10 10 10 10 9 11 11 12 13 13 12 11 10 10 11 9
9 11 11 9 5 4 2 2 0 -0 3 5 5 7 7 6 6 9 10 10 9 8 8 7 7 8 9 8 7 6 7 9 10 8 8 9 8 9 9 9 10 13 14 10 8 8 10 9 10 11 13 14
7 9 9 7 6 2 -1 -1 2 3 2 4 4 6 6 6 7 9 10 9 9 8 8 7 5 7 8 7 6 6 7 9 11 9 8 7 5 7 8 9 10 14 11 7 7 7 8 9 9 12 18 22
8 5 8 3 2 -0 -0 -1 -1 -2 4 3 3 2 5 6 7 8 9 9 9 8 7 6 5 5 6 7 8 7 7 6 6 5 6 6 4 4 6 7 11 12 10 6 7 11 9 3 5 8 9 12
7 7 5 8 5 3 -1 -3 1 -1 -0 2 1 2 2 4 5 7 7 8 8 7 7 6 6 6 6 6 7 7 4 3 1 2 4 5 6 8 5 3 5 9 9 7 11 6 5 6 4 1 6 10
10 8 8 7 8 7 6 3 1 -1 -0 -0 2 3 2 1 3 5 6 7 7 7 6 6 6 6 6 6 7 6 3 1 1 3 4 4 6 3 2 2 4 6 6 8 13 9 4 8 9 10 9 7
10 9 5 4 4 3 2 2 1 -0 0 0 -3 -1 -1 1 1 3 5 6 6 6 7 6 6 8 8 7 7 7 4 1 1 2 4 3 5 4 4 3 3 -1 3 6 11 9 8 10 9 8 5 3
11 8 4 3 3 3 2 -0 -3 -3 -3 -3 -4 -1 -5 -2 -1 3 1 1 4 5 6 5 6 8 8 7 7 5 3 1 2 3 5 6 6 4 5 6 2 -2 -2 1 6 7 8 10 9 7 6 3

ECMWFFLT2_sfc_dewp_057.txt.gz
Dewpoint
29 29 29 30 30 29 31 32 33 34 34 34 34 34 33 33 32 32 33 35 35 36 35 35 36 36 37 39 39 40 41 40 40 40 42 43 42 42 44 43 43 44 44 44 44 44 45 45 45 44 44 40
25 28 28 28 27 27 28 29 30 31 31 31 31 31 31 30 30 31 32 32 33 34 33 33 34 34 36 37 38 38 38 38 38 38 39 41 42 42 41 41 41 40 40 44 44 44 44 44 44 43 43 39
22 24 26 26 26 25 26 27 28 28 28 28 28 28 29 29 29 30 29 28 29 31 31 30 31 31 35 35 36 37 36 36 35 35 37 38 37 38 38 38 37 37 38 40 42 42 43 42 42 42 40 38
21 21 24 25 25 25 25 26 26 26 27 26 26 26 26 27 24 23 20 25 22 26 29 27 25 30 33 34 35 34 33 33 33 33 34 35 35 34 34 34 33 34 36 38 39 41 41 40 40 36 37 37
21 21 25 23 20 21 22 23 25 26 24 23 23 22 24 24 15 17 17 16 16 24 21 26 27 28 30 33 34 33 31 30 31 32 32 32 32 31 31 32 31 32 34 35 36 36 37 38 33 34 35 35
23 24 21 19 19 19 20 21 23 23 21 22 20 23 20 17 14 13 16 18 22 19 20 22 28 28 28 32 32 31 29 29 29 30 31 31 31 31 29 29 25 25 31 33 34 34 34 30 32 33 33 34
23 20 18 16 17 19 20 19 20 21 19 18 20 20 20 17 13 15 18 18 21 22 25 22 25 24 27 29 30 27 27 27 26 27 29 28 28 28 26 22 22 20 27 28 29 30 30 29 30 31 32 33
20 18 17 14 17 16 17 17 19 19 18 18 18 19 18 14 17 20 18 21 23 22 19 18 22 24 24 24 24 23 23 24 22 23 23 23 24 22 19 20 18 17 19 24 23 24 25 28 29 29 31 33
19 19 16 14 13 15 14 16 16 18 17 18 18 19 17 18 19 19 17 18 18 19 19 19 18 19 19 18 19 21 19 18 18 18 18 16 18 16 17 17 18 18 18 19 23 23 23 25 27 28 30 31
18 19 18 15 10 11 13 15 13 16 16 14 16 17 17 17 17 16 15 16 18 19 19 19 17 17 16 17 18 17 16 15 16 16 15 15 15 14 15 15 16 18 19 19 19 21 24 24 26 27 28 29
19 18 17 15 14 16 14 13 15 14 14 13 15 17 18 16 15 15 13 14 17 17 17 17 17 17 17 17 16 16 14 16 15 14 14 13 14 14 15 15 15 16 16 18 19 21 23 24 24 25 26 27
17 18 17 17 16 18 18 15 13 14 13 17 13 16 13 15 15 14 12 14 16 17 16 16 19 18 17 17 16 15 15 15 14 13 13 14 14 11 13 13 14 14 14 15 16 19 20 23 24 24 24 25
18 17 17 17 16 14 16 16 14 14 16 14 12 11 15 15 14 14 13 14 15 15 16 16 18 17 16 17 16 16 13 14 13 13 12 13 13 13 13 12 13 13 13 14 14 15 18 20 22 23 23 24
17 17 17 18 17 15 17 14 15 16 13 12 11 10 13 14 15 14 13 13 13 16 16 15 17 17 17 16 15 14 14 13 12 12 12 13 13 11 13 11 12 13 13 12 13 14 16 17 20 21 20 22
15 15 15 17 16 17 17 15 16 14 12 12 11 11 14 15 16 15 14 13 13 15 16 15 15 15 15 14 14 14 14 13 14 13 12 12 12 12 13 13 12 12 12 13 13 13 14 15 15 17 18 19
17 15 14 16 14 14 15 16 14 12 12 13 11 13 15 15 14 15 14 15 14 16 17 15 13 14 15 14 13 14 13 13 14 14 14 13 14 15 14 13 12 13 12 12 12 13 13 13 14 14 14 17
16 17 16 16 16 14 17 15 15 13 12 11 11 14 15 14 14 14 14 12 13 15 15 15 15 14 15 14 13 13 15 16 15 13 12 12 12 12 13 12 13 15 12 11 12 13 12 12 13 13 13 14
14 15 17 17 15 15 15 14 13 13 12 11 11 12 13 14 13 14 13 13 12 12 14 15 14 13 13 13 15 14 14 12 11 10 11 11 10 12 12 12 12 11 12 11 12 12 12 11 12 11 12 11
12 11 14 15 15 13 16 14 13 10 10 10 10 9 8 11 12 13 14 14 12 11 14 14 13 12 12 13 14 12 12 12 11 11 11 11 10 11 11 11 11 13 12 12 11 11 12 10 8 10 11 12
12 11 9 14 17 13 17 14 13 11 11 9 9 8 10 11 12 12 13 13 13 13 14 12 12 10 10 13 12 13 12 12 11 10 13 12 12 10 11 11 11 11 11 11 11 12 11 10 10 8 10 12
17 11 8 7 10 13 15 14 13 11 11 10 10 8 8 9 11 12 14 13 14 15 14 11 11 10 11 12 12 12 12 11 11 9 12 10 11 12 10 10 10 10 10 10 10 11 11 11 11 10 12 11
14 13 11 11 11 14 11 11 13 11 10 10 9 8 7 10 10 12 13 13 15 14 12 11 11 11 10 11 12 11 11 10 10 10 9 8 10 10 10 9 9 9 9 12 13 11 12 12 12 12 12 13
14 14 12 9 7 7 7 11 11 10 9 10 9 7 9 10 10 11 13 13 15 14 10 10 11 11 11 11 11 11 10 9 10 11 10 10 10 12 11 10 11 10 11 12 14 13 11 11 11 13 12 14
16 15 14 12 8 7 8 8 11 12 10 9 7 9 9 10 11 10 10 12 13 13 11 10 9 10 10 10 11 11 10 9 8 9 10 11 11 11 11 11 10 10 10 10 12 13 11 10 11 11 12 10
14 15 15 14 9 7 5 7 5 6 9 9 7 9 9 11 10 12 11 12 13 12 11 10 10 10 9 9 11 10 9 9 10 9 10 10 10 11 10 9 9 11 12 11 10 8 10 9 10 12 13 11
13 14 15 14 13 9 7 7 8 6 4 7 8 9 10 11 10 10 10 11 12 12 11 10 9 9 9 8 9 9 9 9 12 11 11 11 9 9 8 7 9 12 12 11 7 6 7 9 10 11 12 15
13 11 13 12 11 10 9 7 4 4 8 5 6 6 10 10 10 9 10 11 12 12 11 10 9 8 8 8 9 9 8 8 8 9 10 8 7 6 6 7 10 10 12 9 8 8 8 5 4 8 14 13
14 13 10 12 13 12 6 3 5 -0 1 5 5 7 6 8 9 9 9 10 12 12 11 10 9 8 7 6 8 9 8 7 6 7 7 7 7 8 6 6 7 9 12 10 7 5 6 6 3 3 5 9
14 15 14 12 13 13 11 8 4 1 -1 -0 3 5 5 5 7 9 9 10 11 11 11 11 10 8 7 7 7 8 7 6 5 6 5 5 6 5 5 6 5 7 8 9 9 8 8 7 8 10 8 5
13 14 13 11 11 10 10 8 6 3 1 1 -1 1 1 3 4 6 8 9 10 11 11 10 10 9 8 7 7 8 8 6 5 4 4 4 5 6 6 6 5 3 7 7 9 10 10 8 7 9 7 3
15 13 11 9 9 10 9 8 6 3 2 2 -0 3 1 3 3 5 5 6 8 10 10 10 9 9 8 7 8 9 8 6 5 4 5 6 6 5 8 8 5 4 3 4 5 8 10 10 9 10 6 3

ECMWFFLT2_sfc_dewp_060.txt.gz
Dewpoint
30 29 28 28 30 30 29 31 32 32 32 33 33 34 34 34 34 34 36 36 36 35 36 37 37 37 38 39 40 40 41 40 40 39 39 40 41 40 41 40 39 38 37 39 39 39 40 41 40 40 42 38
33 31 27 26 28 27 28 29 30 30 31 32 31 32 32 31 32 33 33 32 32 33 33 33 35 36 36 38 39 39 40 39 39 38 38 38 39 38 38 38 37 36 36 36 37 37 38 38 38 39 40 36
28 32 26 25 28 26 26 27 28 29 30 30 29 29 29 29 30 30 28 28 29 31 31 31 32 32 36 37 38 38 39 38 37 36 37 37 37 37 36 36 36 35 36 36 35 35 36 36 36 36 36 34
27 34 27 26 29 29 27 28 28 28 29 28 27 26 27 27 25 24 24 26 24 27 30 27 27 32 36 36 36 37 37 37 35 36 36 36 36 35 35 35 34 33 35 36 35 34 35 34 34 31 32 32
25 28 29 29 30 28 28 27 26 28 28 24 24 24 24 25 22 23 23 20 20 26 27 26 28 31 33 35 36 36 35 35 35 35 34 34 35 34 33 32 30 28 30 33 34 32 33 32 29 30 30 31
32 33 30 26 25 28 24 24 26 28 28 23 26 22 25 24 23 21 19 21 27 27 26 25 29 29 30 32 34 34 33 32 33 33 32 33 32 31 30 29 25 27 26 27 31 30 29 28 28 28 29 29
29 25 24 25 24 28 25 26 23 27 22 23 24 25 25 25 20 21 24 23 26 27 26 25 27 27 29 31 32 31 30 29 30 30 30 30 28 28 26 24 24 22 24 25 28 28 27 27 27 28 28 29
23 23 21 21 22 21 21 23 27 25 25 24 23 24 22 21 22 24 22 25 23 23 26 24 25 26 27 25 25 25 28 25 26 26 26 25 25 27 32 22 21 22 21 21 22 24 23 24 25 26 27 29
24 24 22 22 21 20 20 22 21 21 23 24 23 23 22 22 23 26 21 20 21 21 23 23 21 21 20 22 23 23 23 23 25 24 24 22 28 20 24 21 20 20 21 24 23 20 22 22 24 25 28 27
26 27 22 22 19 18 18 24 20 19 21 20 22 22 22 22 23 21 21 20 20 22 22 21 20 19 19 21 24 26 19 20 22 21 19 20 19 19 18 18 18 19 24 20 21 21 20 22 22 22 25 26
24 23 22 21 21 20 19 20 19 20 20 18 20 22 25 23 19 19 19 19 20 19 21 20 19 19 20 19 19 21 19 20 19 18 17 18 18 17 18 18 19 20 19 19 20 20 21 21 22 22 25 25
22 22 21 21 28 24 27 25 20 19 20 21 19 23 19 20 18 19 18 18 18 19 20 20 20 20 20 20 20 21 20 18 18 16 17 18 18 16 17 17 18 18 17 18 18 19 19 20 21 22 23 24
23 21 21 22 21 20 28 20 19 19 21 19 20 18 23 22 19 18 18 18 17 17 19 19 20 19 19 19 19 19 19 19 16 16 16 17 16 15 15 16 15 17 17 16 15 16 18 19 19 20 21 22
23 21 21 21 20 19 27 19 19 21 19 18 17 16 20 21 19 18 18 18 17 17 19 20 19 19 18 18 19 20 17 18 18 16 15 16 15 14 14 14 15 18 15 16 17 16 17 18 19 19 19 20
20 22 19 22 20 20 20 19 22 21 18 18 16 16 20 21 21 20 19 17 18 16 16 19 19 16 16 18 18 18 17 18 19 17 17 16 15 13 13 15 15 17 15 15 15 18 17 17 17 17 18 19
21 19 19 21 20 20 20 22 19 18 17 22 16 19 21 19 19 24 18 18 19 17 16 17 18 18 16 15 16 17 16 17 18 19 17 16 15 15 15 15 14 15 14 14 14 15 16 16 16 16 16 17
20 21 22 20 19 19 24 19 18 17 16 15 16 18 20 19 18 22 19 18 18 20 18 17 18 17 19 16 16 16 18 20 19 17 15 15 17 15 14 13 13 18 16 14 14 15 14 15 15 15 15 16
18 20 21 21 19 23 20 18 18 20 16 18 16 17 18 19 18 20 16 17 17 16 14 15 16 17 16 16 18 18 18 15 15 15 15 14 14 18 17 13 14 14 13 13 14 14 14 15 15 15 13 14
16 16 21 21 20 19 20 18 17 17 16 15 15 14 16 18 19 19 17 18 17 16 14 13 15 16 15 14 17 16 17 16 14 13 13 15 13 13 13 13 15 15 13 13 13 13 14 13 13 15 13 12
16 15 15 19 24 19 21 19 17 16 15 14 14 16 13 16 17 18 16 17 18 15 14 14 15 15 15 16 17 16 16 17 15 13 15 14 14 13 12 15 13 12 11 12 13 13 13 13 17 13 12 12
21 15 13 12 16 19 21 18 17 17 15 14 13 13 13 14 16 17 16 16 17 15 14 15 15 14 14 16 14 15 15 15 18 14 16 12 15 13 12 12 11 11 12 12 12 11 12 13 15 13 12 13
17 17 16 16 16 22 16 16 17 17 16 14 13 13 13 14 16 18 16 16 16 15 16 16 15 13 14 15 14 15 15 14 13 12 13 12 12 12 11 11 11 11 11 14 14 12 12 13 13 13 13 13
21 19 15 14 13 12 11 15 16 17 15 15 13 12 14 15 15 18 16 17 17 15 16 16 14 13 13 14 13 13 13 13 14 14 12 11 12 14 13 12 12 11 12 14 14 14 13 13 13 13 13 15
23 22 21 18 16 13 15 12 16 15 14 13 12 15 15 14 14 14 17 15 15 15 16 14 12 12 13 13 13 12 12 12 11 11 11 11 11 11 13 15 13 12 11 11 11 14 14 14 13 12 14 13
21 19 20 19 16 15 12 11 10 11 13 13 12 14 14 14 14 14 15 16 15 14 17 16 13 11 12 12 13 12 12 12 12 11 12 14 13 14 11 11 11 11 11 11 11 12 12 12 11 15 16 13
18 19 19 17 17 15 13 12 13 11 8 11 14 15 14 14 14 14 14 16 14 15 14 14 13 11 11 11 11 12 14 12 19 13 13 13 13 12 12 10 10 12 12 11 10 10 8 10 10 13 15 13
18 15 18 16 16 14 15 14 11 10 14 13 13 11 13 14 14 14 14 14 16 14 14 13 12 11 11 11 13 12 11 12 11 11 11 11 12 10 10 11 12 10 10 9 11 11 10 7 7 11 14 15
22 19 17 18 18 16 13 12 17 11 8 11 11 11 11 13 13 14 13 13 13 15 14 13 12 11 11 10 12 11 10 9 9 9 9 10 12 10 7 7 8 13 11 11 11 6 8 8 7 7 8 8
20 20 18 18 19 18 17 15 13 11 8 5 8 11 9 10 13 14 13 12 12 15 14 14 13 11 10 10 9 10 9 9 9 9 9 10 10 9 7 7 8 10 12 12 13 10 8 7 5 7 10 7
21 19 18 16 16 15 15 14 13 11 10 9 4 3 5 9 11 12 12 12 12 13 16 14 13 12 11 10 9 10 9 9 9 8 8 7 7 7 7 7 7 6 10 13 14 12 10 11 8 7 9 5
20 18 15 14 14 14 13 13 13 10 10 9 7 8 3 6 7 10 9 10 11 12 14 14 13 13 12 10 8 11 10 8 8 8 8 9 7 6 11 8 7 7 7 9 11 13 11 14 15 11 8 6

ECMWFFLT2_sfc_dewp_066.txt.gz
Dewpoint
38 38 36 34 35 34 33 35 35 34 35 34 34 35 34 33 33 33 33 34 35 36 36 37 38 38 37 41 43 43 43 43 42 41 41 42 42 42 42 42 42 41 39 38 39 38 40 39 38 35 34 27
38 38 37 36 34 33 33 34 35 34 35 34 33 34 33 31 30 31 31 32 33 34 34 36 35 36 38 41 42 42 42 42 42 41 41 41 41 41 41 41 40 40 38 37 37 36 37 37 37 33 33 27
39 39 39 37 36 36 34 34 33 34 34 35 34 32 31 29 28 27 29 29 30 31 34 33 31 33 38 41 41 40 41 41 41 41 40 41 40 39 40 39 38 37 35 35 35 35 35 34 34 30 31 27
34 41 40 40 38 36 36 35 35 35 33 34 33 31 30 29 28 28 29 29 28 28 32 28 30 33 37 38 39 40 40 40 40 39 39 39 39 38 37 36 35 32 32 32 33 33 33 32 32 23 25 25
32 34 40 40 39 37 37 37 36 36 36 34 35 31 34 29 25 27 30 25 24 29 31 29 30 32 33 36 38 38 37 37 37 38 37 36 37 37 34 33 28 28 29 30 31 31 30 30 21 24 23 25
32 34 39 36 35 35 36 39 39 36 34 38 32 34 31 27 30 30 25 24 30 30 30 30 31 30 31 34 36 36 34 34 34 35 34 35 36 34 32 30 19 28 35 26 27 28 28 24 21 23 23 23
30 31 33 36 32 31 38 38 38 35 36 32 30 29 26 30 26 28 28 27 30 33 35 31 27 28 31 32 33 32 33 31 31 32 33 33 32 32 29 22 19 23 23 22 29 30 24 19 21 22 22 22
26 29 31 33 30 27 28 33 35 33 30 30 29 27 24 26 28 28 25 32 28 28 29 23 30 27 27 28 29 28 34 31 29 29 30 28 27 34 30 23 22 22 21 21 21 22 21 21 20 20 21 24
24 26 27 29 29 27 25 26 28 28 28 26 26 24 25 24 25 27 25 24 23 22 23 23 22 23 21 23 23 30 26 24 23 28 22 23 29 20 23 22 20 20 19 22 21 19 20 20 20 20 23 23
25 29 24 24 24 24 23 24 23 24 25 24 24 24 24 27 25 24 25 24 22 23 23 22 21 21 21 21 24 29 22 22 22 22 21 21 21 20 20 20 20 20 26 21 20 18 18 18 19 20 21 21
26 27 24 23 24 24 21 21 21 21 21 22 23 24 26 26 23 21 21 21 21 20 21 19 20 20 21 21 20 23 22 21 21 21 20 19 19 20 21 20 21 21 20 19 18 18 18 17 18 19 20 20
22 25 25 23 31 29 27 25 21 19 20 22 22 24 23 29 21 19 19 20 19 18 20 20 19 21 21 21 20 22 22 20 20 20 19 19 20 20 20 18 19 18 17 17 17 17 17 18 18 18 19 19
21 23 25 27 27 25 32 26 20 19 20 20 22 23 24 28 23 19 19 18 18 19 18 18 18 19 18 19 19 20 19 21 19 19 19 19 18 19 17 17 16 18 18 18 18 18 18 18 18 19 19 19
23 23 24 24 24 24 33 27 24 22 20 20 20 21 24 23 24 19 17 17 18 18 17 18 19 21 19 19 18 20 19 20 21 19 18 18 18 18 17 16 16 21 18 17 17 17 18 18 18 19 19 19
23 25 23 25 23 23 25 25 27 25 21 20 20 19 22 23 25 22 18 17 17 18 17 17 17 16 17 18 18 19 19 20 21 19 18 18 17 16 16 16 16 18 16 16 16 20 18 17 17 18 18 18
25 24 24 26 24 23 22 26 24 23 22 25 20 21 20 21 20 30 20 18 18 17 17 16 16 16 17 16 17 19 18 18 18 19 19 20 20 19 18 17 16 17 17 16 16 16 16 17 17 17 17 17
25 26 26 26 25 24 27 23 24 22 21 20 20 21 20 20 20 25 23 19 19 29 18 16 16 16 20 18 18 19 20 20 19 18 18 17 20 18 18 17 16 20 18 16 16 17 16 16 16 16 17 17
22 25 25 27 24 28 25 24 23 24 21 22 22 21 21 20 20 24 22 20 18 19 19 19 17 17 16 17 19 19 19 18 17 16 16 16 17 21 22 18 17 16 14 14 15 15 15 16 16 16 15 15
24 23 23 24 25 23 25 23 22 21 22 21 20 21 20 21 21 23 21 21 19 18 17 16 16 16 15 15 19 18 18 18 16 16 15 17 15 15 15 15 17 16 15 15 14 14 16 14 14 16 15 15
23 21 21 22 28 25 24 24 23 21 20 20 20 22 19 19 21 23 21 20 20 17 16 16 15 14 15 16 18 17 17 18 17 16 17 16 17 14 13 18 14 14 14 14 14 14 14 14 18 16 15 14
21 22 21 20 20 22 25 22 21 21 20 20 19 19 18 18 20 22 21 20 20 17 16 15 15 14 15 17 16 16 16 16 18 17 18 16 19 17 14 13 12 12 13 13 13 13 13 13 16 14 14 13
22 23 22 20 20 28 25 22 21 21 21 20 19 19 18 18 19 22 20 20 19 18 17 16 15 14 15 16 16 16 16 15 14 15 15 14 14 15 14 12 11 11 11 14 14 13 13 13 13 13 12 13
21 21 20 19 19 19 18 18 19 21 19 20 19 18 18 18 19 21 20 20 20 18 17 18 17 15 15 16 16 15 14 14 15 16 15 13 13 16 15 13 12 11 12 14 14 14 13 13 12 13 13 16
21 21 21 19 18 18 18 17 21 20 19 19 18 20 20 19 18 17 20 18 18 17 17 16 16 16 16 15 16 15 14 13 13 12 13 13 13 13 14 17 15 14 13 13 12 14 13 13 12 11 13 13
20 19 19 19 18 18 17 18 22 21 18 18 17 19 19 19 18 18 17 19 18 16 18 18 15 15 15 16 17 15 14 13 13 13 13 14 14 15 13 12 13 13 13 12 11 11 10 10 11 16 16 14
21 19 18 18 19 18 18 17 17 16 16 17 19 19 19 19 18 17 17 18 17 18 15 14 15 15 14 15 15 15 16 14 21 16 15 15 13 14 13 11 12 14 12 9 8 7 7 9 9 12 14 14
20 20 21 19 18 18 18 18 18 17 18 18 18 16 16 17 17 17 16 16 18 17 16 15 14 14 15 14 17 16 14 14 14 14 14 14 13 11 12 13 14 12 12 8 10 11 9 7 7 14 16 17
25 23 20 21 21 21 18 17 22 22 19 17 15 15 15 16 16 16 16 16 15 17 17 16 14 14 14 14 15 14 13 12 11 11 12 12 14 12 10 9 10 15 13 11 10 7 8 8 9 6 5 11
23 23 22 21 20 21 20 18 17 15 16 16 18 20 17 15 15 16 16 16 15 17 15 16 15 14 13 13 13 14 13 11 11 11 11 11 11 11 10 8 8 12 14 12 12 8 7 5 3 6 6 7
24 23 22 20 19 19 20 19 18 18 18 18 17 15 15 15 15 15 15 15 15 15 17 15 15 15 14 14 14 15 13 12 11 11 10 10 10 9 10 9 8 8 14 13 14 13 9 6 6 5 8 6
26 23 22 21 20 20 19 19 19 18 17 17 16 17 15 15 14 14 13 13 14 15 15 16 15 15 14 14 13 15 13 11 11 10 11 12 10 9 13 11 9 9 9 10 11 13 12 12 12 10 8 7

ECMWFFLT2_sfc_dewp_069.txt.gz
Dewpoint
40 38 37 35 35 35 34 34 36 36 37 37 37 38 37 36 36 35 36 38 39 39 40 41 41 40 40 42 44 43 42 42 41 41 41 42 43 42 42 41 41 41 41 39 38 38 37 38 38 34 34 25
39 39 39 37 36 36 35 33 34 35 35 37 37 36 36 35 33 33 34 35 37 37 37 39 38 38 41 43 44 44 44 42 42 41 41 41 42 41 42 41 41 41 39 38 37 36 36 36 36 31 32 24
40 40 40 39 38 37 36 35 35 34 35 35 36 36 34 34 32 31 31 31 35 33 36 36 35 37 41 42 42 43 44 43 43 43 42 42 42 42 41 41 40 37 37 37 35 35 34 34 34 29 30 24
35 43 40 41 40 39 38 37 36 36 36 35 35 35 33 32 34 32 29 29 29 30 33 32 33 36 40 40 41 42 42 42 41 41 41 41 40 41 40 39 36 33 34 33 33 32 33 32 31 19 23 22
33 35 42 43 41 41 39 38 38 37 37 37 36 36 40 33 28 25 27 26 23 30 33 31 33 36 37 38 40 40 40 40 41 40 40 39 39 39 38 37 31 29 30 31 31 31 30 31 18 20 21 22
33 34 40 38 36 39 40 42 41 38 36 41 34 38 35 31 31 28 26 25 32 30 28 29 35 33 33 36 37 37 36 37 38 38 38 38 39 37 36 33 20 25 31 30 29 29 29 21 20 20 21 21
32 32 32 34 36 36 42 39 38 36 37 34 32 32 29 33 28 28 28 27 30 32 34 33 30 29 31 33 34 33 33 33 34 35 37 36 34 34 32 23 20 21 21 20 31 31 22 20 20 20 20 20
29 30 30 31 34 35 33 33 36 34 34 33 31 30 28 27 27 28 27 32 30 31 31 23 30 29 29 29 30 29 32 32 32 33 33 32 31 33 27 22 20 22 19 22 22 21 20 19 19 19 20 21
26 27 29 30 32 33 31 29 30 32 32 32 30 29 28 27 26 27 26 24 22 21 22 22 20 21 20 23 21 30 25 23 22 24 21 21 26 19 21 21 20 20 21 23 21 19 19 18 19 18 20 19
26 30 26 27 29 30 29 28 26 27 29 29 28 27 27 28 26 24 25 23 22 22 22 21 20 19 20 21 23 28 22 21 21 20 20 20 19 19 19 19 20 20 25 19 18 18 18 19 19 19 18 18
26 27 25 25 26 28 27 26 25 24 24 25 26 26 28 27 24 22 21 21 21 21 21 19 18 18 20 20 19 24 23 20 20 20 20 19 19 19 19 19 18 19 18 18 17 17 18 18 19 19 19 19
21 24 25 24 31 31 30 28 24 23 23 24 24 26 24 30 23 21 20 20 20 19 20 19 18 20 20 20 19 21 23 20 19 19 19 19 19 18 18 17 17 17 17 18 18 17 18 18 18 19 19 19
20 22 25 27 27 26 33 29 24 22 23 22 23 24 27 28 25 22 20 19 18 18 18 18 18 18 17 18 18 20 19 20 19 18 19 19 18 17 17 16 16 18 19 19 17 17 17 18 18 19 19 19
22 22 24 25 25 25 32 29 27 24 22 21 21 20 24 25 25 22 19 18 18 18 17 18 18 20 18 18 18 19 18 19 20 19 18 18 17 16 16 16 16 22 18 16 16 16 18 18 18 18 18 19
23 25 24 27 25 25 25 27 30 29 24 22 21 20 23 24 25 25 21 18 18 18 18 17 17 17 17 17 16 18 18 19 20 19 19 18 17 16 16 16 16 18 16 16 16 19 17 17 17 17 17 18
27 28 25 29 26 25 24 27 25 25 25 28 23 22 22 22 22 29 24 20 19 18 17 17 16 16 16 16 16 18 18 18 18 19 19 19 19 19 18 17 17 17 17 16 16 16 16 16 16 17 17 17
25 26 27 27 26 26 30 27 26 24 23 23 23 24 23 22 21 25 24 23 21 30 20 17 16 16 19 17 16 17 20 20 20 19 18 17 19 18 18 17 16 19 18 17 16 16 15 15 15 15 16 16
24 24 25 29 27 28 28 26 24 26 24 24 26 24 23 22 22 25 22 22 21 20 19 19 18 17 16 16 17 18 20 19 18 17 17 16 18 21 22 19 18 16 14 14 14 14 15 16 15 15 15 15
23 23 23 23 24 24 25 25 24 23 23 23 22 22 21 22 23 24 23 22 21 19 18 17 17 17 17 17 18 17 18 18 17 17 16 17 15 15 16 15 17 17 16 15 14 14 16 14 14 15 14 14
21 21 21 22 28 23 24 24 24 23 23 22 22 23 22 22 22 24 22 22 21 20 18 17 16 16 16 17 18 17 17 19 17 16 17 17 17 15 14 19 15 15 14 14 14 14 14 14 16 14 14 14
22 22 21 21 21 24 24 21 22 22 22 22 21 20 20 20 22 23 22 22 22 20 18 17 16 16 16 18 17 16 16 16 18 16 17 16 20 17 15 14 14 13 14 13 14 13 12 12 14 13 13 13
22 22 21 20 21 27 19 20 21 21 21 20 21 20 20 20 21 24 21 21 21 20 19 18 17 16 16 16 16 16 16 15 15 15 15 14 15 16 15 13 12 11 12 14 14 13 12 12 12 12 12 12
23 23 23 19 19 19 21 21 20 20 19 20 20 20 20 20 22 23 21 20 21 19 18 18 18 18 17 17 16 15 15 14 15 17 15 14 13 16 16 14 13 12 13 14 15 14 13 12 12 12 12 16
22 22 23 19 19 20 20 18 22 22 20 20 19 21 21 21 20 19 21 19 19 19 19 18 17 16 17 16 16 15 14 14 13 13 13 13 13 13 15 18 16 15 14 13 12 14 13 12 12 11 13 12
22 19 20 21 19 19 18 19 22 23 20 19 19 20 20 20 20 19 19 21 19 18 20 20 18 16 16 16 17 16 15 14 13 13 14 15 15 16 13 12 13 14 14 13 11 10 10 10 10 15 15 12
22 21 20 19 19 19 19 18 18 18 18 18 20 21 21 20 19 19 18 20 19 20 17 16 16 16 16 15 15 16 16 15 22 17 16 15 14 14 14 12 13 14 14 10 9 7 6 8 9 12 12 11
24 22 22 20 20 19 19 19 19 18 19 19 19 19 18 19 18 18 18 18 20 18 18 17 16 15 15 15 17 17 15 15 15 15 15 14 13 12 14 15 15 13 12 9 9 10 10 6 7 11 13 15
25 25 26 24 23 23 21 20 23 22 20 19 18 17 17 17 17 18 17 17 17 18 18 17 16 15 15 14 16 15 14 13 13 13 13 13 15 13 10 10 12 16 13 11 10 7 7 6 6 4 4 9
25 25 22 22 22 22 21 20 20 19 19 19 21 22 20 20 19 18 18 17 17 18 17 17 16 16 15 14 14 15 14 13 12 12 12 12 13 13 11 9 9 14 14 12 12 8 6 5 3 4 4 4
25 22 21 20 19 18 18 18 18 18 18 19 19 19 20 19 19 18 18 18 17 17 19 17 16 16 15 15 15 16 14 13 13 12 12 11 11 10 11 10 9 8 16 14 15 12 8 6 6 5 4 4
24 20 19 19 19 19 18 18 18 19 19 20 20 21 20 19 19 18 17 16 16 16 16 17 17 16 16 15 14 17 15 13 12 12 12 14 12 10 14 12 9 9 9 11 14 14 12 13 12 7 6 6

ECMWFFLT2_sfc_dewp_072.txt.gz
Dewpoint
41 40 38 37 38 36 34 36 36 36 37 38 39 38 39 38 37 36 36 37 39 38 40 39 39 40 43 44 44 44 43 44 43 43 43 42 42 42 43 41 42 43 42 41 40 38 37 37 37 34 33 24
40 40 39 37 36 36 36 34 35 36 36 36 37 38 37 37 36 36 34 33 36 36 37 36 38 40 42 42 42 44 44 44 44 43 43 41 42 42 42 41 42 41 40 39 38 36 36 36 36 31 31 22
38 40 40 40 38 37 37 36 35 36 35 36 36 36 36 35 34 35 33 30 32 32 35 33 36 40 41 40 41 41 41 41 42 43 43 43 42 41 42 42 42 38 37 37 36 35 35 35 33 29 29 24
34 43 41 41 41 40 39 39 38 37 37 36 36 35 35 35 41 37 31 30 27 31 32 30 33 38 39 38 39 39 38 39 39 39 40 40 42 42 41 40 37 34 34 34 33 32 33 32 30 19 21 21
33 35 41 46 48 42 41 40 39 39 38 38 41 39 40 37 28 28 26 24 25 31 32 30 35 36 35 37 37 36 36 37 37 37 38 39 39 38 38 37 32 30 30 31 30 31 30 31 18 20 20 21
33 34 39 37 36 36 40 46 44 40 38 43 35 43 36 31 34 30 27 27 32 31 28 31 36 32 32 35 34 34 34 34 35 36 37 37 36 36 36 33 20 24 29 30 28 28 29 21 20 19 19 19
32 33 32 32 34 36 41 42 40 37 38 35 33 34 30 35 30 28 30 28 30 32 34 34 32 30 32 33 33 32 32 32 33 34 35 34 34 34 31 23 20 20 20 20 30 29 22 19 19 19 19 19
30 31 31 31 31 33 34 35 36 34 33 33 32 31 30 31 29 29 28 34 34 32 31 24 30 30 30 30 31 30 32 31 30 32 32 32 31 31 27 21 19 20 18 21 20 19 18 18 18 18 18 21
28 28 30 30 30 31 32 32 32 31 31 32 31 30 30 29 28 28 27 26 24 22 23 22 21 21 20 23 20 29 24 22 22 23 21 20 25 20 22 21 19 19 20 22 19 18 17 18 18 18 21 18
29 32 28 27 28 29 30 31 30 29 29 29 30 29 29 30 29 26 26 25 23 23 22 22 20 20 20 20 22 25 21 20 21 20 19 19 19 19 19 19 19 19 24 18 18 18 18 17 17 17 18 18
26 28 28 27 27 29 28 29 29 28 27 26 27 28 30 29 27 25 23 22 22 21 21 20 20 19 20 19 18 24 22 20 20 20 19 19 18 19 19 18 18 19 18 18 18 18 18 19 19 19 18 18
22 23 25 26 32 32 35 32 28 27 26 26 25 27 27 31 26 24 22 22 21 20 20 20 20 20 20 20 19 21 22 20 19 18 18 18 19 18 18 18 17 17 17 18 19 18 18 18 18 19 19 18
22 22 24 27 27 27 33 31 28 26 25 24 25 26 28 30 26 24 22 21 20 19 19 19 19 19 18 18 17 20 18 20 18 17 17 18 18 17 17 17 16 18 19 19 18 17 17 17 18 19 19 18
22 23 23 25 26 26 31 30 29 28 25 23 22 21 25 26 27 24 22 21 20 20 19 19 19 21 19 18 18 19 17 18 19 17 17 17 17 17 17 16 16 21 18 17 17 17 18 18 18 18 18 18
25 27 24 29 26 25 25 26 31 29 28 25 23 23 23 25 26 28 24 21 20 19 19 18 18 18 18 18 17 18 17 18 19 19 19 18 17 17 17 17 18 18 17 17 16 19 17 17 17 17 17 18
25 25 27 29 27 26 26 29 27 25 26 30 27 25 23 23 23 28 26 24 22 20 19 18 18 17 17 16 16 18 17 17 18 19 19 20 20 20 19 18 17 17 17 16 17 17 17 17 16 16 17 17
24 25 25 25 26 27 30 27 27 25 25 25 24 25 24 24 23 29 24 23 24 28 23 20 19 18 21 18 17 17 20 20 19 19 19 18 19 18 18 18 17 19 18 17 15 15 15 15 16 15 16 16
22 24 26 28 25 28 27 25 25 28 26 27 28 26 25 24 24 27 24 23 22 22 20 20 19 19 18 17 18 18 19 18 18 17 17 16 17 20 21 16 15 15 15 15 15 15 15 15 15 15 15 15
25 24 23 23 24 23 25 27 24 24 24 23 23 24 23 24 25 27 24 23 22 21 20 19 18 18 18 18 20 18 18 18 17 17 16 17 15 15 15 15 17 17 15 15 14 14 16 14 14 15 14 14
21 21 21 23 30 23 24 24 23 23 23 24 23 24 23 23 24 26 24 23 23 21 20 19 18 18 18 18 19 18 17 19 17 16 17 17 17 14 13 19 15 15 14 14 14 14 14 13 16 13 13 13
22 23 21 23 24 25 24 21 20 22 23 23 22 21 21 21 23 25 24 23 23 21 20 19 18 18 18 19 18 17 17 16 19 17 18 16 20 17 15 14 14 14 14 13 13 13 13 13 15 13 12 12
23 24 23 21 21 28 21 21 21 21 22 21 21 21 21 21 22 26 23 22 22 21 20 20 19 18 18 18 18 17 16 16 16 16 16 15 15 16 16 14 13 12 12 14 14 13 13 13 12 12 12 12
22 22 22 20 20 20 21 20 20 22 21 22 20 20 20 21 23 24 23 22 22 20 20 21 21 20 19 19 18 16 16 15 16 18 15 14 14 17 16 14 13 13 14 14 15 14 13 13 12 12 12 16
21 20 21 20 19 19 19 19 23 22 21 20 20 22 22 21 21 21 23 21 20 20 20 20 18 18 18 18 18 17 16 15 15 14 15 15 14 14 16 20 16 15 15 15 13 15 14 13 13 12 13 11
20 20 20 19 18 18 18 20 23 19 19 19 20 22 21 21 21 20 20 21 21 19 20 22 19 18 17 17 18 17 16 15 15 15 15 16 18 17 15 14 14 14 14 13 11 11 11 11 11 16 15 12
20 21 22 21 19 19 20 19 19 18 19 20 22 21 21 21 20 20 20 21 20 21 20 18 18 17 17 17 17 17 18 16 22 19 18 17 15 16 15 13 14 16 14 10 8 7 7 9 9 13 14 12
21 22 22 21 21 20 20 21 20 20 22 21 21 20 20 21 20 20 20 20 21 20 19 19 18 17 17 16 19 18 16 16 16 16 16 16 14 13 16 16 15 14 12 9 10 11 9 7 6 12 16 15
22 22 22 21 20 20 20 18 23 22 20 20 20 21 22 22 22 22 21 21 20 20 19 18 18 17 17 16 17 16 15 14 13 14 14 14 16 14 11 11 12 18 14 11 10 7 7 6 7 5 4 7
21 18 16 15 14 15 14 14 15 16 16 18 21 22 21 21 22 22 21 21 20 20 20 19 18 18 17 17 16 16 15 13 13 13 13 13 14 14 11 10 10 15 15 13 12 9 7 6 5 4 4 5
18 15 14 12 11 10 11 11 13 15 16 18 18 19 20 21 21 21 21 20 20 19 20 19 19 18 17 17 17 17 15 14 13 13 13 12 12 12 13 11 10 9 19 13 16 12 8 7 8 8 6 5
17 12 12 10 9 9 10 11 13 15 16 17 17 19 18 20 20 20 20 19 19 19 19 19 18 18 17 17 16 18 16 15 14 13 13 15 13 12 15 12 10 10 10 14 15 15 12 13 12 8 6 6

ECMWFFLT2_sfc_dewp_075.txt.gz
Dewpoint
41 40 38 40 39 37 37 36 37 38 39 39 40 40 39 38 37 36 35 37 37 38 38 37 38 41 41 42 42 43 42 42 42 42 44 44 44 43 43 42 44 44 42 41 40 38 37 37 36 33 29 23
42 41 39 37 36 38 36 35 36 37 37 38 38 39 38 37 37 36 34 34 34 36 36 35 37 40 39 41 41 41 40 40 40 40 40 42 43 43 43 43 44 41 40 39 38 36 35 36 34 30 28 22
45 41 40 39 38 37 38 37 36 37 37 37 37 37 36 36 37 36 33 33 32 34 34 32 35 38 38 39 39 38 39 38 39 39 40 41 40 39 41 42 39 37 36 36 35 34 34 33 30 28 24 22
41 47 42 41 41 40 40 39 39 38 37 38 37 36 37 38 44 44 32 31 28 32 30 31 33 36 36 37 37 36 36 36 37 37 38 38 37 37 38 38 33 32 33 34 33 33 32 31 27 21 20 23
38 42 43 45 46 46 44 42 41 40 40 40 41 42 37 42 38 38 33 27 26 31 28 29 34 34 33 35 34 34 34 33 34 36 36 35 35 35 33 32 30 30 31 31 31 31 30 29 20 21 21 22
36 39 39 40 40 40 42 43 45 44 43 43 41 41 40 38 34 32 31 31 32 31 27 30 35 32 32 33 33 33 32 31 32 34 34 33 34 32 31 30 25 25 27 28 28 28 28 21 21 22 22 21
35 36 35 36 36 38 40 40 42 42 41 41 40 40 37 36 34 32 32 31 33 34 34 33 33 31 32 33 33 32 32 31 31 33 32 32 32 31 29 25 25 24 25 24 26 26 22 20 21 22 22 21
31 32 33 33 33 33 34 36 37 37 38 38 37 37 35 34 34 34 31 33 34 33 30 27 30 30 30 30 31 31 29 29 29 31 31 30 30 26 25 23 22 22 22 24 22 22 20 20 21 22 21 21
30 33 31 31 31 32 32 34 34 34 34 35 36 36 34 34 34 33 30 30 29 28 26 26 26 26 25 25 26 29 27 25 26 24 25 23 24 22 23 23 22 22 22 21 21 20 20 20 21 21 21 20
28 32 31 30 28 30 31 33 32 32 32 32 33 33 33 33 33 31 30 29 29 28 26 26 25 25 23 24 25 26 23 23 23 23 23 22 22 21 21 21 21 21 21 19 20 21 23 23 23 23 20 20
27 28 29 29 29 31 31 31 31 31 31 30 31 31 32 31 29 29 28 28 28 27 25 25 24 23 23 24 23 23 22 23 23 22 21 20 21 21 21 21 21 21 20 20 21 21 22 22 23 22 23 22
25 26 27 29 33 33 33 33 32 30 29 30 29 30 28 30 29 28 27 27 26 26 25 24 25 24 23 22 22 22 22 22 21 20 20 21 22 18 20 19 21 19 19 21 21 20 21 21 22 23 21 23
26 26 28 29 28 28 34 33 31 31 31 29 27 28 29 30 28 27 27 27 26 24 25 25 24 23 22 22 22 22 21 22 21 20 20 20 20 20 20 19 20 20 20 20 19 19 20 20 20 21 22 22
26 26 27 29 28 28 33 30 30 33 30 29 27 26 27 27 28 27 25 26 25 24 25 24 25 24 23 22 21 21 21 20 19 19 20 20 21 18 20 18 19 21 20 19 19 19 19 20 18 19 19 21
25 28 28 31 29 29 29 29 32 30 29 29 28 27 28 28 28 28 28 26 26 24 24 24 24 23 22 21 21 21 21 21 21 20 19 20 19 19 20 19 19 19 18 19 19 20 20 19 18 18 18 19
27 26 28 29 27 29 30 33 30 29 29 30 28 30 30 28 26 28 28 28 28 26 25 24 23 23 22 22 21 21 21 20 21 20 21 22 22 23 21 19 18 19 18 18 18 18 19 18 18 17 18 18
25 27 26 27 28 29 32 29 29 28 28 28 28 29 29 29 28 29 27 27 28 30 28 26 26 24 25 23 23 22 24 24 23 21 21 21 21 20 20 20 20 21 18 17 17 17 17 17 18 17 17 17
23 25 28 28 25 28 28 26 26 28 27 28 29 29 29 29 28 30 27 27 27 26 25 25 25 25 23 23 23 23 22 20 20 19 20 20 19 20 20 18 18 16 17 16 16 17 17 17 17 16 17 16
25 23 25 26 27 25 28 27 25 24 25 25 25 26 25 27 28 29 28 28 26 25 24 24 23 23 23 23 23 21 21 20 20 20 19 19 18 18 17 18 18 18 17 17 16 16 16 15 14 16 16 17
22 20 22 24 26 25 27 23 23 23 24 24 24 24 25 26 26 29 27 27 26 25 24 23 23 22 22 24 22 22 21 21 20 19 20 20 20 17 18 18 18 17 16 16 16 17 16 15 16 15 15 16
22 20 18 18 19 21 23 20 21 23 24 24 24 23 23 24 25 26 27 26 26 25 24 23 23 22 23 23 22 21 21 20 21 20 21 19 21 19 17 17 17 16 16 16 14 15 16 16 17 16 15 14
19 18 17 18 21 22 18 19 21 23 22 22 22 23 23 25 25 26 26 26 25 24 24 24 24 23 23 22 21 21 20 19 19 19 19 18 19 18 18 16 16 16 15 17 16 15 16 16 15 14 14 15
19 19 18 16 17 16 17 20 22 24 21 22 21 22 25 25 24 24 25 25 25 23 22 22 23 23 23 22 21 21 20 19 20 21 19 19 18 19 18 17 17 16 16 17 18 17 15 15 14 15 15 17
19 19 19 18 16 15 16 17 22 23 21 22 22 24 24 24 24 24 24 25 24 24 23 23 22 22 22 21 21 20 20 19 18 19 20 20 19 19 18 19 18 18 16 16 17 16 16 15 15 14 15 12
18 17 17 16 13 14 14 18 18 16 18 21 23 24 24 25 23 25 25 24 24 23 23 22 22 22 21 21 20 20 19 20 19 19 18 18 18 20 18 17 18 19 18 14 13 14 15 14 14 15 15 14
16 19 18 16 13 14 15 15 13 15 17 22 22 23 24 24 24 24 24 24 23 23 22 21 20 21 20 20 19 20 20 20 22 21 20 19 17 18 17 16 17 17 15 10 8 8 7 10 13 15 16 15
16 14 16 14 12 13 14 17 15 16 19 20 19 20 22 23 23 23 22 22 22 21 21 20 20 19 19 20 20 18 18 17 18 17 18 18 16 14 16 17 18 17 15 10 11 10 9 8 8 12 15 17
16 13 11 11 11 11 9 9 13 13 14 15 15 17 18 20 22 21 20 20 20 19 20 20 19 18 18 18 19 18 17 16 15 16 16 16 17 17 13 12 13 19 17 14 9 9 8 10 8 9 6 6
12 9 8 7 9 10 11 10 11 12 13 14 16 17 17 18 19 18 17 17 17 17 17 17 16 17 16 16 16 16 16 15 15 16 16 16 16 14 13 12 11 15 17 16 14 10 9 12 11 10 8 7
10 7 7 8 9 10 10 11 11 12 13 14 14 15 15 16 14 13 13 13 12 12 14 12 13 13 12 12 12 14 14 15 15 15 16 15 15 14 14 13 12 11 18 16 16 15 11 11 11 12 10 7
10 8 7 8 8 11 11 11 12 12 12 13 12 13 9 9 8 8 7 5 6 8 8 9 9 9 9 9 10 11 12 11 13 15 15 17 16 15 16 16 12 12 12 14 15 15 13 13 14 11 8 8

ECMWFFLT2_sfc_dewp_078.txt.gz
Dewpoint
42 41 41 40 40 38 38 39 40 40 40 40 39 39 37 37 36 35 36 36 37 36 36 37 40 41 42 42 42 42 42 41 42 42 44 44 44 44 43 45 44 41 40 39 38 37 37 37 33 31 28 24
41 39 40 40 38 37 36 38 38 39 39 39 39 38 38 38 35 34 34 34 35 35 34 35 37 39 41 41 40 40 39 40 40 41 42 41 41 42 42 41 36 35 35 36 36 36 36 34 31 29 27 23
42 41 40 38 38 38 38 37 38 38 39 38 38 38 38 38 36 34 33 33 31 34 32 34 34 36 38 39 39 38 38 38 38 40 40 39 39 38 37 34 32 32 34 35 35 34 34 32 28 26 23 23
42 43 42 40 40 39 40 39 39 39 38 39 38 38 39 39 36 32 30 32 28 33 30 32 34 35 36 38 37 36 35 35 36 38 38 37 37 36 34 31 29 29 31 32 33 32 31 29 26 22 19 23
39 41 42 43 43 44 45 46 45 44 41 39 41 39 40 40 35 33 31 28 26 31 28 30 34 34 34 35 35 34 33 32 34 36 35 35 35 33 31 28 27 27 28 28 30 28 28 27 21 22 23 22
40 41 37 38 37 36 37 39 40 40 41 43 39 38 38 36 29 29 30 30 30 28 29 32 34 33 33 33 33 32 31 30 31 33 32 32 32 30 29 28 26 24 26 26 27 26 26 22 20 22 22 22
39 37 36 36 36 36 35 35 37 34 38 38 40 38 36 31 30 31 31 31 34 34 34 33 33 30 31 32 32 31 30 29 29 30 30 29 29 28 27 25 24 22 25 24 24 24 23 20 22 22 23 23
32 32 30 29 30 29 29 32 33 34 35 35 36 37 33 30 33 34 30 34 36 34 31 28 31 30 29 29 29 27 28 27 28 28 27 27 27 23 22 22 20 19 21 21 21 21 19 19 21 23 21 20
26 29 25 26 26 29 28 30 30 30 33 35 35 35 31 33 33 34 30 31 29 29 27 28 27 28 26 25 28 27 27 25 26 25 26 24 24 23 23 23 21 21 20 19 20 19 19 19 22 21 21 19
25 28 25 27 24 25 27 30 28 29 30 31 33 33 32 30 32 31 29 30 30 30 27 27 25 25 24 25 26 26 23 23 24 23 22 23 22 20 21 22 21 21 19 19 19 18 21 25 20 23 20 20
26 26 27 27 28 30 29 30 30 29 29 30 32 33 33 30 28 28 27 28 29 29 27 25 24 23 23 25 23 23 22 25 24 22 20 21 22 22 22 22 22 22 21 21 21 20 21 22 25 24 25 20
24 26 28 29 28 28 30 29 28 27 28 33 29 32 29 29 28 26 25 27 26 27 27 26 27 25 24 23 22 23 22 24 22 20 20 23 22 19 20 21 23 21 19 21 22 22 21 22 21 24 21 24
24 25 27 27 26 26 29 26 26 29 29 26 26 28 31 30 26 24 25 26 25 24 26 26 27 23 22 24 23 23 21 23 22 21 20 21 21 20 21 20 20 21 21 20 19 19 21 21 20 21 25 24
25 24 25 26 26 24 25 26 26 26 23 23 23 23 29 30 26 25 22 23 23 24 25 25 27 25 24 21 21 21 22 21 21 19 19 20 22 19 21 19 20 19 20 20 20 20 20 21 18 19 19 22
21 22 24 26 25 26 27 27 25 25 24 24 23 25 31 30 30 25 25 24 24 23 24 24 24 23 22 20 20 21 21 22 22 20 20 21 19 19 19 18 18 19 18 19 20 21 21 20 18 18 19 19
24 24 25 25 21 22 25 26 25 25 25 25 25 28 29 28 27 27 26 28 27 27 25 23 23 23 23 21 21 22 22 22 23 22 22 24 25 24 22 19 18 19 17 18 17 19 20 20 20 18 18 18
22 22 18 18 18 19 21 18 19 19 20 21 22 26 28 27 28 26 26 25 26 28 25 25 26 24 24 23 23 23 27 29 26 24 23 23 25 23 22 21 21 24 21 18 18 18 18 17 18 19 19 18
15 17 19 19 17 20 19 18 17 18 19 20 19 22 26 27 27 27 26 27 27 26 25 25 25 25 24 23 26 25 24 23 21 21 23 22 21 21 21 20 20 17 18 17 16 17 19 18 18 17 18 17
14 14 19 18 19 20 21 19 19 18 20 19 20 21 22 26 26 26 27 28 26 26 25 25 24 24 23 25 27 23 22 23 21 21 22 20 20 21 20 20 20 20 19 19 18 18 17 16 15 17 18 19
15 13 15 18 21 19 22 19 19 17 19 19 19 21 24 26 26 26 25 25 26 25 25 24 24 24 25 27 25 24 24 24 22 21 23 22 23 20 20 20 21 20 19 19 19 19 18 17 18 17 16 18
20 15 14 14 15 17 19 18 18 17 18 19 20 20 21 24 24 25 25 25 26 24 25 24 25 24 26 26 25 24 24 23 23 22 24 22 21 24 20 20 20 19 18 19 18 18 19 20 19 19 18 16
17 15 13 14 17 17 13 16 18 17 18 19 19 21 20 23 22 23 24 25 26 24 24 24 25 25 24 24 24 23 23 23 23 23 23 22 22 21 21 19 19 18 18 20 22 18 19 19 18 18 17 17
17 15 13 12 11 12 11 16 17 17 17 19 19 19 22 22 22 23 25 25 24 23 22 23 23 23 24 24 22 23 23 22 23 23 23 24 23 23 22 22 21 19 20 22 22 21 18 17 16 18 17 18
15 15 13 13 10 11 10 11 15 15 17 19 17 21 21 22 23 24 23 23 22 22 21 21 21 22 23 22 21 22 22 22 21 22 23 23 23 22 22 22 21 21 20 19 19 19 19 18 18 18 18 15
11 12 12 11 8 7 7 10 11 10 15 17 17 20 21 22 22 22 22 21 21 20 20 19 19 20 20 20 20 20 20 21 22 22 22 22 22 22 21 21 21 21 22 19 17 17 18 18 19 18 17 15
8 10 11 8 9 6 7 9 10 12 14 16 16 19 21 21 20 19 19 18 18 17 18 17 16 16 16 17 17 18 18 19 21 20 20 20 19 20 20 19 21 21 21 16 14 13 13 15 15 17 18 18
9 7 10 8 7 7 8 9 11 13 16 15 16 16 19 17 17 14 13 14 14 12 12 12 12 11 11 13 14 13 13 14 16 16 18 18 17 17 18 19 21 21 21 16 17 16 14 11 9 13 16 17
11 11 10 12 13 13 11 10 14 12 12 14 13 14 14 11 12 12 11 11 11 10 11 12 12 12 11 11 11 11 9 9 10 13 15 15 16 17 14 15 16 19 20 19 16 14 12 13 10 10 10 9
12 12 11 11 12 13 12 11 10 4 3 3 6 5 5 2 5 6 7 8 9 10 11 12 12 13 13 13 13 12 12 10 11 12 13 15 16 14 14 13 15 17 17 19 19 16 15 15 15 14 10 11
12 11 10 8 6 3 4 2 -1 -5 -5 -1 -4 -3 -3 2 1 4 5 7 9 9 11 12 13 13 11 10 9 10 10 10 11 13 14 13 14 14 14 15 14 13 17 17 19 19 19 16 13 12 11 11
12 9 3 -0 -2 -3 -3 -4 -4 -7 -5 -1 -3 2 -1 3 2 5 4 4 7 9 10 11 9 7 5 4 3 3 4 5 8 10 11 14 14 12 14 15 13 13 13 14 16 17 18 19 18 17 14 12

ECMWFFLT2_sfc_dewp_081.txt.gz
Dewpoint
43 43 42 41 41 41 41 41 42 41 40 39 38 37 37 37 36 36 36 37 37 36 37 39 42 43 43 42 41 41 41 42 43 43 43 43 43 44 44 39 37 36 37 38 38 38 37 36 32 31 33 27
42 41 41 39 38 38 39 40 40 40 40 40 38 37 36 35 34 35 34 34 35 34 34 36 37 40 41 41 40 40 39 40 41 42 41 41 40 39 37 35 34 33 35 36 37 36 35 33 30 30 31 25
39 41 40 39 39 38 37 38 39 39 40 39 40 38 38 35 34 31 32 30 32 31 31 32 33 36 39 39 38 37 37 37 39 40 39 39 38 37 35 32 31 30 32 33 34 33 32 29 30 31 26 24
38 40 39 39 38 40 40 39 38 39 37 39 38 39 37 37 36 33 32 31 31 30 30 30 32 33 36 37 37 36 34 34 36 38 37 37 36 34 31 29 28 28 29 30 31 29 29 29 32 26 21 24
41 42 44 44 47 47 47 46 45 45 41 39 41 40 40 40 35 34 32 32 27 34 29 33 32 33 32 35 34 33 32 30 32 35 34 33 34 31 29 28 29 29 29 29 28 28 28 31 28 23 23 24
39 40 36 39 40 39 41 43 41 42 40 45 38 41 38 38 33 29 30 30 34 29 32 36 33 32 30 32 32 30 30 28 29 31 31 31 31 29 28 30 29 28 31 31 27 27 29 29 22 23 23 23
36 34 34 35 33 34 32 34 33 30 33 33 37 38 35 31 29 31 29 30 32 29 33 32 35 31 31 30 29 28 28 28 27 28 28 28 28 28 29 29 27 24 27 28 32 32 29 22 23 23 24 24
31 31 29 28 29 28 27 30 33 33 33 33 35 37 34 30 32 33 29 39 40 37 33 36 36 34 32 32 30 30 29 32 31 28 31 30 28 29 25 25 23 22 22 24 23 23 21 22 23 24 22 22
25 29 24 25 25 28 26 30 31 30 34 35 35 36 32 33 32 34 30 30 30 30 28 28 29 32 31 29 31 31 28 27 28 28 28 27 29 25 25 24 24 23 22 21 21 20 21 21 22 22 22 22
25 22 23 27 24 25 27 31 28 29 31 33 34 33 32 30 33 32 29 31 31 30 28 27 26 26 25 26 27 27 26 25 26 26 24 25 24 22 22 23 23 24 21 21 20 20 22 22 22 21 20 22
23 27 27 28 29 31 30 30 30 29 29 30 32 33 32 29 28 28 27 28 29 29 27 26 25 23 24 26 25 24 23 25 25 23 22 23 23 22 23 24 24 24 23 23 23 23 23 23 22 23 22 22
26 28 29 29 29 29 28 28 28 28 29 31 28 30 27 27 27 25 25 27 26 25 25 26 26 25 24 23 23 23 22 24 22 21 21 23 23 20 21 21 23 23 21 23 24 24 23 23 22 21 21 20
26 27 28 28 26 25 29 27 26 26 27 26 25 27 29 28 25 24 25 25 25 24 26 26 27 24 23 24 22 23 21 22 23 21 20 21 21 21 21 21 21 21 21 21 21 20 22 22 22 21 22 22
26 26 27 28 27 26 27 26 26 27 24 24 25 26 29 28 27 25 25 25 25 25 26 26 27 25 24 22 22 22 23 21 21 21 20 21 22 19 21 19 20 19 21 19 20 21 22 22 20 20 20 20
23 24 23 25 25 26 26 26 25 25 25 26 26 27 29 28 28 26 26 26 26 25 25 25 25 25 24 23 23 23 23 23 23 22 22 22 22 22 21 20 20 19 19 20 20 20 22 22 21 19 19 19
22 19 19 21 19 19 20 21 19 18 19 21 21 25 27 25 25 25 26 28 27 27 26 25 24 25 25 24 23 24 24 25 25 24 24 25 25 25 24 22 21 21 19 20 19 19 20 20 21 20 19 19
17 19 17 20 21 20 22 20 21 20 21 21 21 25 27 25 26 24 25 25 27 27 25 25 26 25 25 25 24 26 27 27 26 24 23 23 24 24 24 23 23 25 22 21 20 20 19 19 19 19 19 20
16 19 21 21 21 22 21 20 20 21 22 21 21 23 27 26 26 25 24 26 26 25 23 25 25 25 25 25 27 27 26 24 23 22 22 21 21 23 21 22 22 21 21 20 20 20 20 19 20 20 19 19
15 16 20 20 21 21 23 21 20 20 21 21 21 22 22 25 25 25 26 26 25 25 23 24 23 24 24 26 28 25 25 25 25 24 23 22 21 22 21 21 21 21 21 21 21 21 21 19 18 19 19 20
15 14 15 19 24 19 23 21 21 20 21 20 21 20 22 24 23 24 25 26 26 24 24 23 23 23 25 27 25 25 25 25 24 23 25 24 24 22 22 22 22 21 20 20 20 20 20 20 21 20 19 20
19 15 14 13 15 16 19 19 19 19 20 21 20 19 20 24 23 25 26 26 25 23 23 23 23 23 25 25 24 24 24 23 24 23 25 23 24 24 22 22 22 22 21 21 19 20 21 21 21 20 20 19
16 15 14 15 16 17 14 16 18 18 19 19 18 19 21 24 24 25 24 25 24 23 23 22 22 23 23 24 22 22 23 22 23 23 23 23 24 24 24 22 22 22 21 23 23 21 21 21 21 20 19 19
15 15 14 13 12 12 12 16 16 16 17 17 17 19 22 23 23 23 22 23 22 21 21 21 20 21 22 22 21 21 21 22 23 23 23 23 23 24 23 23 23 22 23 24 24 23 21 21 20 21 20 20
14 14 15 13 12 11 11 11 15 14 15 17 16 20 21 21 22 19 17 18 18 17 17 17 17 17 18 18 18 19 20 20 20 21 22 22 22 23 23 23 22 22 22 21 22 22 21 20 20 20 21 19
12 13 14 13 11 10 9 10 11 10 13 16 15 17 21 19 16 17 15 14 14 13 12 11 12 13 14 13 14 14 15 17 17 18 19 19 20 21 20 20 21 22 22 20 20 19 20 19 19 19 18 18
11 12 13 12 13 10 11 9 10 11 13 14 13 13 17 15 12 12 12 12 13 12 12 12 11 12 12 13 12 13 12 12 15 13 14 17 16 17 17 17 19 21 20 17 17 16 15 16 16 17 17 16
11 10 12 9 9 8 10 10 10 9 9 5 4 4 8 7 7 7 8 10 11 11 12 12 12 13 13 14 14 13 13 12 12 11 13 13 13 14 15 15 18 18 20 18 18 19 17 12 10 15 15 16
12 12 10 7 8 4 2 3 6 0 -4 -2 -1 1 0 1 4 6 7 8 10 10 11 12 13 12 10 8 9 9 8 8 8 10 12 13 14 15 13 13 13 16 18 17 16 15 12 12 11 9 7 10
11 10 7 2 3 1 0 -0 -1 -5 -4 -4 1 1 1 0 4 5 6 7 8 9 11 12 11 9 5 4 4 4 2 1 4 7 9 11 12 11 11 10 11 13 15 16 18 16 16 15 13 13 11 14
8 5 4 1 1 -2 -2 -1 -3 -5 -3 -1 -2 -2 -0 2 2 4 5 5 7 9 11 9 7 5 1 0 1 1 -0 -2 0 4 7 7 7 7 10 11 10 8 11 13 15 17 17 17 15 13 13 13
6 2 -0 -1 -3 -2 -3 -2 -1 -4 -2 -1 -3 1 -1 1 1 3 3 2 3 8 10 7 4 1 -0 -1 -2 -1 -2 -2 0 1 2 3 3 3 8 8 6 7 7 10 12 15 16 17 18 18 16 15

ECMWFFLT2_sfc_dewp_084.txt.gz
Dewpoint
46 46 46 45 45 44 44 43 43 42 41 40 40 39 38 38 37 37 38 39 38 38 38 40 42 44 44 43 43 42 42 43 44 43 43 43 43 42 41 38 37 36 37 37 38 36 35 32 33 35 34 33
44 43 43 42 42 43 42 42 42 42 41 39 38 37 35 34 34 35 34 35 35 35 35 36 38 41 42 42 41 41 40 40 42 42 41 42 41 40 39 37 35 34 34 35 36 34 32 30 32 35 36 28
42 42 41 41 41 40 41 41 41 42 42 40 38 37 36 35 33 32 31 32 32 31 32 33 36 36 39 40 40 39 38 37 38 40 40 40 40 39 37 35 33 32 33 34 34 32 31 30 32 36 38 28
40 42 41 42 41 41 41 41 39 38 38 40 39 40 37 37 36 33 33 34 32 31 30 30 31 33 36 38 38 38 37 35 35 37 38 38 37 37 36 34 32 32 33 33 32 32 31 31 34 34 26 26
39 42 44 42 41 42 43 42 42 43 41 38 40 41 40 41 39 38 37 34 36 33 36 34 31 29 33 35 36 36 35 35 33 34 36 36 35 35 34 33 32 33 33 33 32 31 32 33 34 27 25 27
42 43 43 42 43 42 43 42 39 42 39 44 42 44 42 41 39 38 34 35 38 34 38 37 33 31 31 32 34 34 34 33 32 33 34 34 34 33 32 32 32 36 38 34 33 32 31 33 29 26 26 25
41 36 35 38 37 41 35 42 40 35 34 35 37 42 40 35 32 35 34 35 35 33 34 37 38 34 33 34 33 32 31 31 33 33 33 33 33 32 31 33 33 30 33 35 36 34 35 30 27 27 27 27
34 34 33 33 35 33 34 34 38 37 36 37 38 38 36 34 37 35 33 44 45 40 36 34 39 36 34 33 32 33 35 34 34 35 34 33 33 37 36 30 28 26 27 26 28 28 25 24 25 26 26 26
29 28 29 32 31 32 32 34 34 34 36 36 35 37 34 35 34 35 32 34 35 34 34 32 35 35 34 33 32 34 33 31 34 36 33 35 37 33 31 30 26 26 25 27 26 23 23 24 24 24 27 26
27 27 29 31 28 29 31 36 31 33 34 34 34 36 33 34 34 34 34 32 32 32 31 31 30 30 30 29 30 36 31 30 28 28 28 29 29 27 26 26 26 26 28 25 24 24 25 23 24 24 24 24
30 32 29 29 31 32 32 33 32 32 32 32 33 32 32 31 30 31 30 30 31 31 30 29 29 27 27 27 28 29 27 27 28 28 27 26 26 26 25 26 26 27 27 26 25 25 26 25 24 25 23 24
29 30 31 33 33 30 35 32 31 31 32 34 29 32 31 32 28 27 27 28 28 28 29 28 29 29 28 28 27 28 25 26 27 26 26 26 26 25 25 24 26 27 26 26 26 27 26 26 25 24 24 23
29 29 29 29 29 29 35 28 28 29 28 27 30 30 32 32 28 27 26 28 27 27 28 29 29 29 28 28 27 27 26 26 26 26 25 25 25 24 24 24 24 25 24 24 23 24 25 25 24 25 24 24
28 28 28 28 28 29 32 28 28 28 27 27 27 27 30 30 29 28 27 27 28 27 27 27 26 28 27 26 26 27 26 26 25 25 26 26 26 25 25 23 23 25 23 24 24 23 24 25 24 24 23 24
19 20 20 23 22 22 22 24 23 23 23 26 26 27 29 28 29 27 28 27 28 28 28 27 27 27 26 26 27 26 27 28 28 27 25 25 25 24 25 25 24 24 22 23 23 25 25 25 24 24 22 22
21 21 23 24 22 23 24 25 24 24 24 29 28 29 29 28 28 30 27 28 28 28 27 26 27 28 27 27 27 27 29 29 28 27 26 26 26 26 26 26 25 24 23 23 23 24 24 24 24 23 22 21
21 23 24 23 23 24 28 24 24 24 24 24 26 29 29 28 28 29 28 27 27 30 26 25 27 27 28 27 28 28 28 28 28 27 26 26 26 25 25 26 25 28 26 24 24 24 23 22 22 22 23 22
18 21 22 24 23 25 24 23 23 25 23 25 24 24 27 26 26 28 27 27 27 27 25 25 25 26 26 28 27 27 27 26 26 26 25 25 25 27 27 23 24 24 23 24 23 23 24 23 23 22 22 22
16 16 20 20 21 22 25 23 22 22 23 23 22 21 23 27 26 28 27 28 27 26 25 25 25 25 25 27 27 25 26 26 25 25 25 25 25 25 25 24 24 24 23 23 23 23 24 23 22 23 23 23
16 15 15 17 24 19 23 22 21 20 22 20 21 22 22 26 26 28 26 27 26 24 24 23 23 23 26 26 25 25 25 26 25 24 26 26 25 24 24 26 24 24 23 23 23 22 22 22 25 22 22 22
16 15 14 14 15 16 18 18 19 19 21 19 20 21 22 25 27 24 23 23 24 22 22 23 22 22 24 24 23 23 23 23 25 24 26 25 27 25 24 24 24 24 23 24 24 23 23 23 24 23 22 22
14 15 14 14 15 18 13 15 18 18 20 18 19 20 22 24 24 22 19 18 20 19 19 20 20 20 21 21 21 22 21 21 22 23 23 23 23 24 23 23 23 23 24 25 26 24 23 23 23 22 22 22
14 14 14 13 13 13 13 13 16 17 17 19 17 18 23 22 21 19 17 17 17 15 15 14 14 15 16 17 17 17 18 19 20 20 19 20 21 23 23 23 23 23 24 25 25 25 24 24 23 23 22 23
13 13 13 11 11 11 12 12 15 16 16 17 16 18 18 20 16 15 15 15 15 14 14 14 13 14 15 15 15 15 14 14 14 14 16 17 20 20 21 23 22 22 23 23 22 23 23 22 22 22 22 22
11 10 12 8 8 7 4 10 13 10 11 12 10 10 11 14 11 11 12 14 14 12 14 14 14 14 15 15 16 16 15 14 15 16 16 17 17 19 17 17 19 20 20 19 19 20 20 21 21 23 23 22
11 10 12 7 7 5 3 2 3 5 5 3 2 5 7 7 7 9 10 12 12 13 13 13 14 15 13 10 9 13 12 13 18 12 14 15 14 15 16 16 17 18 18 17 17 18 18 19 19 19 19 17
12 10 12 8 5 5 3 1 2 2 4 1 2 2 5 6 6 8 8 10 12 13 13 13 14 12 8 6 8 6 6 6 7 7 8 10 14 14 15 16 18 17 17 16 17 17 16 15 14 18 14 12
12 11 10 8 5 4 2 0 5 0 0 1 1 3 4 5 6 8 8 9 9 10 12 13 10 7 5 2 3 4 3 1 0 2 5 8 12 11 7 9 11 15 15 14 15 15 15 15 14 13 10 15
9 9 6 6 5 4 3 2 3 1 1 1 4 3 2 2 5 7 7 9 8 9 11 13 10 6 2 0 1 2 0 -0 1 1 4 5 5 4 4 4 7 11 12 12 15 16 15 15 12 12 14 16
8 7 4 3 3 1 1 -1 0 0 -0 0 -4 -8 -7 -3 0 5 4 7 8 5 11 10 7 3 0 -0 1 3 1 -0 1 2 1 0 1 1 2 4 4 5 9 13 15 16 16 16 16 16 16 15
6 4 2 -1 0 -0 -1 -3 -0 -0 -2 -3 -8 -6 -13 -10 -3 2 -2 -5 -1 1 4 7 3 1 -1 -1 -2 -1 -0 -1 -1 -0 0 4 0 -0 4 1 1 2 3 4 7 11 11 13 18 18 16 15

ECMWFFLT2_sfc_dewp_087.txt.gz
Dewpoint
46 46 45 45 44 45 44 44 44 43 42 41 40 38 38 37 37 37 37 38 38 38 38 39 40 42 44 44 44 43 42 41 41 43 44 44 44 43 42 40 39 38 37 38 38 37 36 34 34 37 38 30
46 45 45 45 45 44 44 44 44 42 41 39 37 34 33 33 33 33 35 35 36 36 35 36 36 37 40 41 42 42 41 39 39 40 42 42 42 41 41 40 39 37 36 37 37 36 36 34 34 37 37 26
42 44 44 44 44 44 44 44 44 43 41 37 36 35 35 34 33 32 32 33 34 34 34 33 32 34 37 37 39 40 40 39 38 38 39 41 40 40 39 39 38 36 36 37 36 35 34 34 35 36 41 28
42 44 43 43 43 42 42 41 40 39 41 40 40 40 39 38 36 34 33 34 33 34 33 32 33 33 35 36 37 38 38 38 38 38 38 38 39 38 37 37 36 35 36 37 36 34 33 34 37 32 26 27
41 43 46 45 41 40 40 40 40 42 41 41 42 44 47 42 42 38 37 35 34 36 37 35 33 32 33 35 36 36 36 36 37 37 38 37 37 37 36 35 34 35 36 35 34 34 33 33 31 29 25 25
43 43 45 43 42 43 44 44 42 39 38 45 40 45 42 41 41 39 38 35 42 39 39 37 35 35 34 35 36 35 34 34 36 37 38 38 37 36 35 34 32 34 38 35 34 33 32 34 30 26 25 25
42 42 41 42 41 42 46 44 43 38 38 36 39 41 37 38 36 36 36 36 37 34 44 39 39 38 37 36 36 34 34 34 34 35 37 36 35 35 34 36 30 30 29 30 37 39 35 30 27 26 25 25
37 35 36 39 38 37 37 41 38 37 35 34 35 35 34 34 35 34 36 48 46 43 34 35 44 40 39 39 37 35 39 41 39 37 36 35 34 43 39 31 30 28 25 27 25 26 24 24 24 24 26 25
28 28 30 31 32 33 34 34 35 34 33 32 32 32 31 30 31 32 33 33 34 33 32 31 34 35 33 33 32 39 34 33 33 36 34 32 36 33 33 32 29 26 25 26 26 24 23 24 24 24 26 23
33 29 29 30 31 30 32 33 32 31 31 30 31 31 32 29 27 27 28 28 28 28 28 28 28 27 27 27 31 36 32 30 30 29 29 28 29 33 31 27 25 25 30 25 24 24 24 23 24 24 23 23
30 30 30 31 33 31 30 30 30 30 29 29 29 30 31 28 27 27 27 28 27 27 27 27 27 27 27 27 27 30 30 28 28 28 27 26 26 26 26 26 27 27 27 27 25 25 25 25 24 24 24 23
27 26 26 29 30 29 33 29 28 28 28 29 27 29 29 30 26 26 27 27 27 27 27 27 27 27 27 28 26 27 27 25 26 27 27 27 25 24 25 25 26 26 26 26 26 25 25 25 25 24 23 24
22 22 22 22 23 25 32 24 26 27 26 25 27 27 28 30 27 26 26 26 26 27 27 27 27 26 27 27 26 27 26 28 26 26 26 26 25 25 25 25 24 26 26 25 25 25 25 26 25 24 24 24
22 23 23 23 23 25 28 24 25 26 26 26 26 26 27 27 29 28 26 26 26 27 27 26 26 26 26 26 26 27 28 29 28 27 26 26 25 25 24 24 24 27 24 24 24 24 23 24 24 24 24 23
22 23 23 24 24 25 24 25 25 25 27 28 27 26 25 24 27 30 27 26 27 28 26 25 25 25 27 27 28 28 27 28 28 27 27 26 26 25 25 25 25 26 24 24 24 25 25 24 24 24 23 23
22 21 23 23 23 24 23 25 23 23 24 29 27 26 24 23 26 31 27 27 27 28 25 24 25 25 26 28 27 27 27 26 26 27 27 27 27 27 27 26 26 26 25 24 24 24 24 24 24 24 23 23
17 19 21 20 22 24 25 21 22 22 23 22 24 26 25 24 28 28 27 26 26 27 24 24 25 25 26 27 26 26 26 25 25 25 25 25 26 25 26 26 25 28 27 26 25 25 24 24 23 23 23 23
16 16 17 20 18 23 22 20 20 24 21 24 22 23 25 25 28 25 24 25 24 23 23 23 23 23 23 25 25 24 24 24 24 24 24 25 25 28 28 25 25 25 25 24 24 24 24 25 24 24 23 22
15 15 15 16 17 16 21 21 20 21 20 21 21 22 23 26 27 22 20 21 21 21 20 21 21 20 21 23 23 22 23 23 23 22 23 26 25 25 24 24 25 25 24 24 24 24 24 23 23 23 23 23
14 13 13 14 21 15 17 16 18 20 19 20 20 22 23 24 25 19 18 18 20 18 17 18 17 17 19 20 20 20 20 22 20 22 24 23 23 22 22 24 22 23 23 24 24 24 24 24 25 24 24 23
14 12 10 10 14 13 14 14 16 19 19 18 17 19 22 21 23 17 16 17 19 16 16 16 15 15 16 18 17 18 18 18 20 20 21 18 20 20 20 21 21 22 23 23 24 23 23 23 24 23 23 23
12 12 9 8 12 13 9 10 14 18 17 15 14 13 19 18 16 17 14 15 18 15 17 17 15 15 15 17 16 16 16 16 16 16 15 15 16 18 19 19 20 21 22 23 23 23 23 24 24 24 23 23
12 12 10 7 7 7 6 6 10 16 12 13 9 9 14 15 13 14 13 15 17 14 15 15 14 15 16 14 13 13 13 12 14 15 15 15 15 17 18 20 21 20 21 22 22 23 22 23 23 23 23 25
11 12 13 9 7 8 7 5 10 8 10 7 7 11 11 11 10 12 13 14 14 14 15 16 14 16 13 10 9 10 8 7 8 11 13 12 14 14 16 17 17 18 17 17 17 19 20 20 20 20 22 22
13 12 14 11 8 8 7 7 6 4 6 7 7 9 10 11 10 11 12 14 14 13 14 15 16 14 8 6 7 7 6 6 8 10 9 10 10 13 14 14 16 16 16 15 15 16 16 17 19 23 23 20
14 12 13 12 10 7 7 5 2 4 5 8 7 8 9 13 10 11 13 15 14 14 12 14 13 10 6 3 2 4 6 5 7 3 4 5 7 11 12 11 13 15 13 13 12 11 10 13 15 19 22 20
11 12 11 10 9 6 6 5 2 4 9 6 7 6 9 10 9 8 12 13 16 15 12 15 10 7 4 1 3 1 2 1 1 2 2 4 3 3 4 5 11 8 10 9 9 10 13 14 12 16 16 16
10 10 10 7 8 5 5 3 5 3 4 5 5 5 3 4 3 3 12 11 12 13 10 13 7 4 2 -1 1 2 0 -0 -0 1 3 0 2 1 -3 -1 0 5 7 7 8 10 12 11 11 11 11 15
11 9 8 8 6 6 8 6 2 3 4 2 3 1 -4 -5 -4 2 10 8 8 8 9 9 6 3 0 -2 -1 -0 -1 -1 0 1 1 -1 1 -1 -2 -2 -0 0 3 5 8 9 9 12 12 12 11 9
12 7 5 4 1 -1 0 1 -1 -4 -0 -0 -4 -5 -8 -8 -8 -3 1 0 2 3 10 6 4 3 -2 -4 -3 -1 -1 -1 -0 -0 -1 -2 -1 -2 -2 -1 -4 -2 1 3 4 6 9 9 11 8 8 9
11 5 3 2 -2 -3 -2 -3 -3 -4 -0 -0 -4 -1 -10 -9 -10 -4 -4 -5 -3 3 6 6 2 1 -2 -6 -7 -5 -3 -3 -2 -3 -2 -0 -2 -5 -1 -3 -3 -2 -2 -0 2 5 4 6 9 10 10 10

ECMWFFLT2_sfc_dewp_090.txt.gz
Dewpoint
46 46 46 45 45 44 44 43 44 43 40 38 37 37 37 37 37 38 39 39 39 38 37 36 36 39 41 42 43 43 43 42 41 41 43 44 44 43 42 42 42 41 40 41 41 39 38 38 38 39 39 27
47 46 45 45 44 44 43 44 43 41 39 36 36 37 35 35 36 36 37 37 37 37 36 36 35 37 38 39 40 41 41 41 41 41 41 41 41 41 40 40 40 40 40 41 41 39 37 38 37 36 36 26
46 47 46 45 45 44 44 44 43 40 38 38 41 41 38 35 35 34 36 35 36 36 35 35 34 36 38 39 40 39 39 39 40 40 40 40 40 40 39 39 37 37 37 39 39 38 37 36 35 33 34 27
42 47 45 44 44 44 43 41 40 41 42 41 42 43 42 43 41 43 36 37 35 36 35 34 35 35 37 39 40 39 37 38 39 39 40 40 40 39 38 38 34 34 35 35 34 35 36 35 37 27 26 25
42 44 47 43 42 42 40 39 41 43 47 45 47 46 46 44 40 39 37 35 33 40 36 39 37 37 37 39 39 38 36 36 38 38 39 39 39 38 37 35 33 34 34 33 32 32 32 37 29 28 25 24
43 43 44 41 41 41 43 45 45 41 40 42 37 39 35 35 36 36 37 36 44 39 39 40 40 41 39 37 37 36 36 35 36 36 37 35 35 35 35 36 30 34 41 35 33 31 33 29 29 27 25 24
42 40 40 40 40 43 45 41 37 34 34 32 31 31 30 32 31 32 35 38 39 38 37 37 39 38 37 38 37 37 36 37 37 36 35 34 33 33 36 33 30 29 27 27 37 39 29 26 26 26 25 25
31 31 31 32 33 34 34 33 33 31 31 30 30 30 29 29 31 30 28 35 35 34 30 30 34 35 35 37 38 39 42 42 41 39 40 39 38 43 38 31 30 29 26 26 25 24 23 23 24 23 24 25
32 30 30 30 31 31 31 30 29 29 29 29 29 30 28 29 30 29 28 28 28 28 28 27 27 27 27 28 27 37 31 31 32 34 31 32 34 29 32 31 30 27 25 27 26 25 25 24 24 24 27 23
28 27 28 29 29 28 28 29 27 27 27 27 28 29 30 28 27 27 27 27 27 27 27 27 27 26 27 27 27 31 28 27 28 28 28 27 27 27 29 28 26 25 31 26 25 25 24 24 24 24 23 23
23 23 25 28 31 29 28 27 26 26 26 26 26 27 30 28 26 26 26 26 26 27 27 26 26 26 26 27 27 29 27 27 27 26 26 26 26 26 26 26 26 26 26 26 26 26 26 25 25 25 24 23
22 23 24 26 30 27 32 28 27 26 26 26 23 27 28 31 27 26 26 26 26 26 26 26 26 26 26 27 27 28 29 28 27 27 26 26 26 26 26 25 25 25 26 26 25 25 25 25 25 24 24 24
21 22 23 23 24 26 31 26 27 27 26 24 24 24 27 31 28 26 26 26 26 26 25 25 25 25 26 27 26 27 26 27 27 26 26 26 26 26 26 25 25 27 26 26 25 24 25 25 25 25 25 24
18 19 20 22 22 24 27 24 26 27 26 25 24 24 27 28 29 26 26 25 25 24 24 24 24 25 25 26 25 26 25 26 26 26 25 26 26 26 26 25 25 27 25 26 25 25 25 25 24 24 24 24
17 18 18 20 21 22 23 24 25 24 24 25 25 25 26 27 27 25 24 23 23 23 22 22 23 23 24 24 23 24 24 25 26 25 25 25 25 25 26 26 26 27 26 26 26 27 25 25 25 24 24 24
17 17 19 20 18 19 21 25 22 22 22 25 25 26 25 25 24 25 21 21 21 22 20 20 21 21 21 21 22 22 23 23 23 24 24 24 26 25 26 25 25 26 26 25 25 26 25 25 25 24 24 24
14 15 17 17 16 18 21 20 21 21 21 22 23 25 25 22 21 20 19 19 19 22 18 18 18 18 19 19 20 20 22 22 21 21 21 22 24 22 23 22 22 26 24 23 24 24 24 25 25 25 25 24
13 12 15 18 15 19 17 18 20 22 20 22 23 23 24 22 20 17 17 18 17 16 16 17 16 16 16 17 19 19 19 19 19 19 19 21 19 21 21 20 21 23 22 22 23 23 24 25 25 24 24 24
13 11 11 13 15 13 17 18 19 18 18 17 20 20 19 21 20 16 16 17 17 14 15 16 15 15 16 17 17 16 17 18 17 17 17 18 16 17 17 18 20 21 20 21 21 22 24 23 23 24 24 24
13 9 9 11 19 12 14 14 18 16 16 15 15 19 16 17 19 14 14 16 17 14 14 16 15 14 16 15 13 14 14 14 13 14 16 16 16 14 15 18 17 18 19 20 20 21 22 22 24 23 23 23
14 12 8 8 11 12 11 9 16 16 14 12 11 14 15 15 18 14 13 16 17 14 14 16 15 15 14 13 10 11 10 8 12 11 14 13 14 14 14 14 15 17 18 19 19 19 20 20 22 21 22 22
12 13 10 9 11 14 9 8 10 15 11 10 11 12 14 15 14 17 13 14 16 14 16 17 16 16 12 10 8 8 6 5 7 8 10 9 8 12 12 13 15 15 16 18 18 17 17 17 18 19 21 22
13 14 14 10 9 9 10 10 11 12 12 12 9 11 14 15 13 13 13 14 16 13 14 15 16 13 10 7 6 5 3 3 7 9 7 5 6 10 11 14 14 15 15 15 15 14 15 17 18 19 19 22
14 14 15 14 10 10 9 9 14 9 11 9 9 14 11 14 11 11 13 14 15 14 15 15 16 11 8 5 5 4 1 3 4 5 4 4 7 7 8 10 10 11 10 10 9 14 14 14 13 13 16 16
14 13 12 14 10 10 7 9 10 4 5 11 10 11 10 12 9 7 7 13 15 14 14 16 12 8 5 3 6 5 3 4 4 5 4 7 5 5 3 2 4 7 7 7 6 6 6 7 9 18 17 17
13 14 13 12 10 9 7 6 6 4 3 11 10 8 9 7 4 2 3 12 14 15 13 10 8 6 4 1 2 4 4 2 6 2 4 4 1 3 3 0 3 7 5 5 3 3 4 5 9 16 20 19
12 11 12 11 9 7 6 6 6 5 7 9 7 4 6 2 1 -1 3 11 11 10 13 7 6 4 3 -0 4 -2 -2 -1 -0 1 3 1 0 1 0 0 5 3 3 -0 3 5 8 11 4 9 12 18
14 13 12 12 10 10 5 4 13 6 4 7 3 3 2 -1 -0 -2 4 6 4 8 12 7 4 4 1 -1 -1 -2 -5 -3 -2 -0 1 -2 -0 0 -5 -4 -2 1 2 2 1 6 8 5 3 4 12 5
15 15 10 9 9 8 6 7 5 -1 -0 3 6 5 -0 -4 -1 -3 3 3 2 6 11 6 6 3 -0 -2 -4 -4 -4 -5 -2 -1 -2 -4 -1 -3 -6 -6 -5 -4 -1 0 4 3 4 6 9 8 6 3
16 10 7 4 3 -3 -4 -3 -4 -7 -4 -1 -1 -3 -4 -4 -4 -5 -1 1 -0 3 13 2 5 3 -1 -4 -5 -3 -3 -4 -3 -6 -6 -6 -4 -7 -5 -5 -8 -7 -4 -1 1 4 6 4 6 4 4 2
13 8 5 4 3 -1 -2 -4 -8 -8 -6 -1 -0 4 -6 -4 -8 -4 -7 -5 -6 3 8 7 3 3 -2 -4 -8 -2 -4 -6 -8 -8 -7 -4 -6 -8 -3 -7 -7 -7 -6 -4 -2 4 3 2 3 3 1 4

ECMWFFLT2_sfc_dewp_096.txt.gz
Dewpoint
52 51 51 51 51 50 49 48 48 48 48 47 46 47 47 47 47 46 46 46 46 46 47 47 47 47 46 45 46 46 45 45 45 45 46 44 44 44 45 44 41 40 40 41 40 40 38 38 36 35 38 24
50 50 50 49 49 48 48 48 47 47 47 47 47 46 46 45 45 45 44 45 45 46 46 46 47 48 47 47 47 47 46 45 45 45 44 44 43 42 42 43 41 38 39 39 39 38 38 36 35 35 36 23
46 47 47 47 47 46 45 45 45 45 45 44 43 42 42 41 41 41 43 42 43 43 45 44 44 46 47 47 47 45 45 44 44 45 45 45 44 43 42 41 39 37 38 38 38 38 37 36 35 34 33 24
37 44 45 45 44 44 44 43 43 43 42 42 41 40 39 38 33 36 35 39 35 41 42 42 42 44 46 47 47 45 45 45 45 44 44 44 44 43 42 42 40 39 38 38 37 37 37 36 35 24 24 23
35 37 38 39 42 42 42 42 41 40 39 36 38 36 36 33 29 29 31 31 31 35 34 39 40 42 43 45 45 44 43 44 46 45 45 44 43 42 41 41 40 40 40 39 38 37 37 37 23 23 23 23
31 32 32 29 31 32 32 35 35 33 31 34 29 34 30 29 29 27 29 30 33 30 31 33 37 38 40 41 42 43 41 41 43 44 44 43 43 42 41 39 27 30 35 37 39 38 38 26 24 23 23 23
30 27 27 27 27 28 32 31 29 28 30 29 29 29 28 29 27 27 27 28 30 30 32 30 35 36 37 38 39 39 38 38 40 40 41 41 40 40 38 28 27 27 26 27 35 35 27 25 24 24 24 24
28 28 27 26 26 25 24 24 27 26 28 29 29 28 27 26 28 25 23 28 28 28 24 24 30 32 32 32 33 35 29 33 35 36 37 37 37 33 31 27 26 27 26 28 27 26 26 25 25 25 25 26
29 28 27 26 26 25 25 24 24 25 26 27 28 28 26 25 25 23 21 21 20 20 21 22 22 22 23 23 22 31 22 23 25 26 25 25 28 25 27 26 26 26 27 27 27 26 26 26 26 25 26 24
28 27 28 27 27 25 25 25 24 24 25 25 26 27 25 22 20 19 18 19 19 19 20 20 20 21 22 21 21 25 21 22 23 23 23 23 24 24 25 25 25 26 30 26 26 26 26 26 26 26 25 25
22 24 26 28 29 26 25 25 24 25 24 25 25 25 26 19 18 17 16 16 17 16 18 18 19 20 21 19 19 22 20 20 21 21 22 22 23 23 23 23 24 25 26 26 26 26 26 26 26 26 25 25
20 21 23 27 28 26 28 25 24 25 25 25 22 24 24 23 17 16 14 15 16 15 16 18 19 19 18 18 18 20 19 19 19 20 20 20 21 21 21 22 22 23 24 24 25 25 25 26 25 25 25 25
18 19 20 22 24 25 27 23 23 24 24 22 22 21 21 24 16 15 14 14 16 15 15 17 17 17 17 16 16 17 15 18 17 17 17 18 18 20 18 20 19 22 22 23 23 23 24 25 24 24 25 25
17 17 18 20 21 24 24 21 23 22 21 21 20 18 19 20 19 15 15 14 16 15 15 16 16 17 16 15 15 15 13 16 15 15 14 15 16 17 16 18 17 20 19 21 21 22 23 23 23 24 24 25
16 17 16 22 19 19 20 20 21 22 20 20 20 20 19 18 18 16 16 15 16 15 15 16 16 16 16 14 13 14 13 13 13 13 12 12 14 14 13 16 16 16 17 18 18 21 21 21 22 23 24 24
17 16 17 18 18 19 19 21 16 16 19 24 18 19 18 18 16 19 15 16 16 16 15 16 16 16 14 13 12 13 11 10 9 11 10 11 14 11 13 13 12 15 16 15 16 18 19 20 21 22 22 23
13 16 16 14 16 19 21 15 15 13 16 18 18 16 17 18 18 17 16 16 18 17 15 16 16 15 15 12 11 11 11 8 6 7 7 8 11 8 11 9 9 14 13 13 13 15 16 18 19 19 20 21
12 14 18 19 14 19 17 17 14 19 13 18 18 15 15 16 18 13 13 16 16 14 15 16 16 15 11 11 11 10 8 5 4 4 5 8 5 10 9 7 8 9 9 9 10 11 12 14 15 16 17 18
16 12 14 16 16 15 16 16 14 14 13 12 14 13 13 15 18 12 12 14 16 14 14 16 15 14 10 12 11 7 6 5 3 3 5 8 4 6 6 5 8 7 5 5 5 7 10 9 10 13 13 14
15 12 12 15 19 15 16 14 13 14 13 13 13 16 13 13 16 10 9 13 16 14 14 16 14 12 10 12 8 7 4 4 2 2 7 6 5 6 4 4 3 4 2 3 3 4 6 7 10 9 10 12
15 15 13 12 15 16 15 11 13 14 14 12 11 12 12 12 13 7 9 13 16 14 17 15 12 9 8 11 7 5 3 -0 7 2 7 4 7 6 2 2 3 0 1 2 3 3 3 3 7 6 9 11
15 15 16 14 14 18 11 8 12 15 11 12 12 12 11 10 9 10 8 12 14 14 18 14 11 6 7 8 6 4 0 -1 2 2 4 3 4 4 1 3 1 -1 0 3 4 2 0 0 3 8 8 7
17 16 17 16 12 11 11 8 12 15 9 13 10 12 10 9 5 9 8 11 13 14 15 8 8 5 5 5 6 2 -2 -2 3 5 3 1 2 2 2 3 -1 -1 1 3 2 -0 -1 1 2 1 1 8
15 15 16 13 11 11 11 7 17 13 11 14 11 16 10 8 4 5 12 10 9 13 12 7 6 5 5 3 5 1 -3 -2 -1 2 1 -1 -1 -2 1 0 -2 -0 -1 -2 -4 -2 -1 -1 -3 -2 2 3
14 13 13 16 10 10 7 11 12 6 10 15 13 13 12 9 7 7 9 10 8 13 10 8 5 4 3 1 5 2 -1 -0 1 3 -1 -1 -4 -1 -2 -6 -4 -1 -3 -3 -7 -4 -2 -1 -1 6 12 15
12 15 13 12 11 10 8 7 6 7 11 14 8 12 11 11 7 7 9 8 9 13 10 5 5 5 3 -0 1 2 1 -0 2 -2 -5 -6 -6 -2 -4 -7 -3 0 -4 -5 -6 -4 -2 2 2 9 17 14
12 13 16 11 12 9 9 10 10 9 18 11 3 6 12 10 7 7 8 7 8 12 11 8 5 4 4 -2 3 -3 -3 -3 -4 -6 -6 -7 -5 -7 -8 -4 -2 -3 -4 -5 -4 -1 1 2 -8 7 6 6
11 12 10 14 13 13 8 4 9 4 4 5 0 4 9 7 4 7 7 7 6 9 12 8 7 4 2 -1 1 -1 -4 -6 -9 -9 -7 -8 -5 -8 -11 -9 -8 -5 -3 -3 -3 -2 -2 -0 3 0 3 -2
17 17 14 12 11 13 10 4 6 -4 -6 -0 -0 6 5 3 6 5 7 7 5 7 10 8 9 3 3 2 -4 0 -5 -9 -10 -8 -7 -7 -6 -10 -10 -8 -9 -9 -3 -2 -1 -3 2 -1 2 -1 -1 -4
17 16 11 7 3 -0 -4 -6 -5 -8 -9 -7 -7 -6 2 5 4 3 5 5 4 6 10 7 8 2 2 1 -5 0 -8 -10 -11 -7 -9 -7 -7 -10 -8 -8 -10 -9 -5 -1 -3 1 1 -2 -1 -1 -3 -6
20 12 12 6 3 1 -2 -4 -5 -7 -8 -7 -7 2 2 0 -0 3 -4 -3 4 4 5 8 6 -1 -3 -2 -2 -2 -10 -11 -11 -11 -11 -6 -7 -9 -4 -9 -9 -8 -7 -6 -4 -4 -4 -3 -2 -2 -4 -3

ECMWFFLT2_sfc_dewp_099.txt.gz
Dewpoint
51 50 50 50 49 49 48 48 47 47 47 47 48 48 48 47 45 45 46 47 48 47 47 48 48 48 47 48 48 48 47 47 47 47 47 47 47 47 46 44 43 42 43 43 42 41 40 39 37 37 35 30
49 49 49 49 48 47 47 47 47 47 46 46 45 45 44 44 43 43 44 44 45 46 46 45 47 48 48 48 48 47 46 47 48 48 48 48 47 46 44 43 43 42 43 43 43 41 40 39 38 37 35 29
46 48 48 47 47 47 46 46 46 45 45 44 43 42 41 41 40 40 40 41 42 44 44 44 43 45 47 47 46 46 46 46 47 47 47 47 46 45 44 42 42 42 42 42 42 41 40 39 38 36 31 29
38 44 46 45 45 45 44 43 43 43 42 41 40 40 38 37 33 34 33 37 34 39 41 40 40 43 45 46 45 44 44 45 45 46 46 46 44 43 42 41 41 41 42 42 42 41 39 39 36 28 27 29
33 33 35 38 40 41 41 40 40 38 37 36 37 34 34 32 28 29 28 27 27 34 32 37 38 39 40 43 43 41 41 42 43 44 44 43 43 41 39 38 36 37 39 40 40 39 39 37 28 29 29 29
28 30 30 28 31 32 33 35 34 32 29 31 28 31 27 25 24 25 26 27 29 27 29 31 35 35 36 39 40 38 38 38 40 40 41 41 40 39 37 35 28 29 33 36 37 36 36 29 28 29 29 29
29 26 26 27 26 28 31 31 30 29 28 27 26 26 25 23 22 21 23 25 27 27 29 28 33 32 34 35 37 35 34 34 36 37 37 37 37 35 34 27 27 27 29 28 33 32 29 27 28 29 29 29
27 26 26 25 26 25 25 26 27 27 28 27 25 25 22 20 22 20 18 23 25 24 21 22 27 29 29 29 32 31 26 30 31 31 32 33 32 29 26 24 24 24 25 26 26 27 26 27 28 28 28 28
28 27 26 26 25 26 25 25 25 24 25 26 25 23 20 20 20 20 17 18 18 19 19 20 20 20 20 20 22 27 21 20 22 22 22 21 23 22 22 22 22 23 24 23 24 24 25 26 27 27 27 27
30 28 27 26 25 24 24 25 23 22 22 22 23 22 20 17 17 17 16 17 18 19 19 19 18 19 18 19 19 20 18 17 19 18 17 18 19 19 18 20 21 21 22 21 22 22 24 24 25 25 26 26
26 27 28 28 27 25 24 23 22 21 20 20 22 22 21 16 14 14 15 16 17 18 18 18 18 17 17 17 17 16 16 17 16 15 14 15 17 17 16 18 19 20 19 20 22 22 22 24 24 23 24 25
22 24 26 27 26 25 26 23 21 20 19 20 18 21 18 16 14 13 14 16 16 17 18 18 18 17 16 15 15 14 14 14 13 12 12 14 15 13 13 15 17 17 15 19 20 21 21 22 22 21 22 23
20 21 22 23 23 23 25 21 20 20 19 17 17 17 20 17 14 13 14 16 15 16 18 18 17 15 14 14 13 13 11 12 11 10 9 11 13 12 12 13 13 16 14 16 16 17 19 20 19 21 21 22
18 18 19 20 21 20 22 20 20 19 17 17 17 15 17 18 16 15 14 15 15 17 17 17 17 15 13 12 11 11 10 8 9 7 8 9 12 8 11 11 10 11 13 13 14 15 17 17 16 18 19 21
15 17 18 19 18 18 17 19 19 17 15 16 17 16 17 16 18 15 16 15 16 15 17 16 15 13 12 11 9 9 8 6 8 6 6 8 9 5 10 10 8 9 11 11 12 13 14 14 14 15 17 17
17 16 19 19 17 17 18 18 16 16 16 16 15 18 18 14 15 16 16 17 17 17 17 15 13 12 11 9 8 8 7 4 7 5 7 9 10 8 11 6 6 9 7 8 8 9 10 10 12 12 13 15
15 16 16 18 18 18 18 16 15 15 15 14 15 17 18 14 14 13 15 16 17 17 16 15 13 10 10 9 7 6 9 7 7 4 5 7 7 8 9 6 6 10 7 6 5 6 6 7 9 10 11 12
15 17 17 16 17 18 17 14 14 14 15 15 12 14 16 14 13 13 14 16 17 16 15 14 11 9 8 7 8 6 6 2 3 2 6 6 4 8 5 3 5 5 5 2 2 3 5 6 6 6 8 9
13 14 17 15 15 16 17 14 13 13 13 13 12 10 11 13 12 12 14 17 16 16 13 10 8 7 6 8 7 3 2 2 2 3 5 2 4 5 1 3 5 5 1 2 2 3 4 2 2 6 7 8
13 11 15 17 16 14 17 14 13 12 12 11 10 9 10 12 11 11 14 16 17 13 11 7 5 4 6 8 4 3 2 3 1 3 6 2 6 2 0 4 4 1 -0 1 2 3 3 3 4 2 3 6
16 12 11 12 12 13 15 13 13 12 12 11 9 7 6 10 9 11 13 15 17 12 8 6 4 3 7 7 4 1 1 0 3 3 4 -1 4 2 -1 3 1 -3 -1 1 -0 1 2 2 3 2 2 3
15 15 13 14 17 15 9 12 14 12 13 10 8 7 5 9 10 10 12 13 14 11 8 7 5 4 4 5 2 -0 -0 -0 1 5 -1 -3 -0 -1 1 1 -3 -2 -2 1 2 -1 0 0 -0 1 2 4
16 15 14 11 9 8 6 13 15 12 11 11 9 7 9 8 8 10 11 12 14 8 3 4 3 2 4 4 -0 -1 -1 -0 1 3 -3 -3 -2 0 2 -2 -2 -1 -0 0 0 -1 -1 -1 -3 1 2 6
14 15 14 9 6 5 7 8 12 12 11 10 8 10 7 7 7 10 7 10 12 9 3 2 2 2 3 2 -0 -2 -1 -1 -2 -1 -4 -4 -1 1 -0 -4 -2 -0 -3 -2 -1 1 -1 -2 0 2 6 3
11 10 13 12 5 4 1 7 6 5 9 7 7 8 6 7 4 10 8 7 10 6 4 2 2 1 -1 0 -0 -1 -2 -1 -1 -2 -5 -5 -3 0 -6 -8 -2 0 -2 -3 -8 -2 1 1 3 8 8 9
9 12 13 10 9 4 4 9 6 5 6 6 5 8 7 5 5 8 6 4 10 7 2 0 -1 -0 -3 -3 -2 -0 -2 -2 -0 -4 -7 -7 -8 -4 -9 -8 -2 -2 -1 -11 -10 -9 -12 -4 2 17 13 10
10 8 13 7 8 4 4 5 4 4 11 8 -1 5 6 5 5 6 3 6 7 6 3 0 -2 -2 -4 -5 -2 -5 -5 -6 -8 -7 -8 -7 -9 -13 -14 -4 -4 -3 -1 -10 -7 -6 -6 -8 -12 -2 1 2
10 10 11 12 12 9 3 1 7 7 8 5 -5 -3 3 5 1 5 2 2 5 6 4 1 -1 -3 -4 -7 -5 -6 -10 -9 -11 -10 -10 -9 -6 -12 -17 -12 -9 -4 -1 -5 -4 -10 -8 -7 -5 -6 -1 -6
14 13 12 13 13 13 8 5 9 2 -5 -6 -5 -1 3 -1 -0 3 2 2 4 5 4 3 -1 -4 -4 -6 -8 -5 -9 -11 -13 -9 -10 -9 -10 -15 -15 -11 -12 -10 -4 -2 -1 -4 -5 -5 2 -0 -4 -8
17 13 9 7 2 -0 -2 -4 -4 -6 -8 -6 -7 -3 -7 -2 2 -1 0 1 2 4 4 -0 -1 -6 -5 -6 -12 -5 -8 -11 -13 -13 -14 -9 -9 -15 -8 -10 -13 -12 -7 -3 -4 -3 -1 -6 -3 -5 -6 -10
20 13 11 7 3 3 -0 -1 -3 -5 -6 -7 -8 -7 -7 -6 -2 -2 -6 -3 -1 -0 4 -1 -3 -9 -10 -8 -13 -5 -7 -10 -13 -13 -14 -8 -13 -13 -7 -12 -12 -13 -11 -9 -8 -5 -5 -3 -5 -6 -7 -9

ECMWFFLT2_sfc_dewp_102.txt.gz
Dewpoint
50 49 50 50 50 50 49 49 49 48 48 48 47 47 46 46 45 45 46 47 47 47 47 48 48 47 47 48 46 47 48 47 47 48 48 48 47 46 45 44 44 44 44 45 43 42 40 39 37 37 34 31
50 50 50 50 49 48 48 47 47 47 46 45 44 44 43 42 42 42 43 44 45 46 45 44 46 47 48 46 46 46 46 47 47 48 47 47 46 45 44 43 43 43 43 44 43 42 40 38 37 36 33 30
47 49 48 48 47 47 47 46 45 44 43 42 42 41 40 38 38 38 39 39 42 43 42 42 42 45 46 45 45 45 45 45 45 46 46 45 44 43 42 40 40 40 41 42 42 40 39 37 35 33 31 31
44 45 46 45 44 43 43 42 42 41 40 39 38 38 37 35 32 32 30 35 33 38 39 39 38 42 44 44 43 42 42 43 43 44 44 43 42 41 39 38 37 37 38 39 39 38 37 35 32 30 28 31
35 36 39 40 41 41 41 39 38 36 35 34 34 32 31 29 27 29 27 25 26 33 32 36 36 37 40 41 40 39 38 39 40 41 41 40 39 37 35 35 33 33 36 36 36 35 35 32 27 28 29 30
31 34 34 33 33 31 32 34 33 31 30 31 30 30 26 24 23 23 24 25 27 26 28 29 33 33 35 37 36 36 35 35 37 37 37 37 36 35 33 31 25 25 30 30 32 31 30 24 24 26 27 27
31 28 29 30 30 32 33 32 32 30 29 28 29 27 24 21 22 22 22 23 28 28 28 27 30 31 32 33 34 33 31 32 33 34 34 34 33 32 29 24 23 21 25 23 26 26 24 22 24 25 24 25
28 27 27 27 28 27 27 29 29 29 28 27 26 26 22 20 24 23 20 23 24 22 23 24 25 26 25 26 28 29 25 25 27 28 28 28 28 23 22 21 19 19 18 19 20 20 18 20 23 24 22 22
28 28 27 27 26 27 25 26 25 25 26 28 26 25 21 24 24 23 20 23 22 22 22 23 22 22 21 22 24 24 23 20 22 20 21 19 20 18 19 20 18 20 19 17 19 17 17 19 20 21 21 20
29 29 26 25 23 23 23 25 21 22 23 23 25 24 23 19 22 21 21 23 23 23 21 21 19 19 18 20 20 18 19 18 19 17 16 17 17 16 15 18 17 19 17 17 17 17 20 20 19 19 17 18
29 28 27 26 26 25 23 22 23 20 20 22 24 24 22 20 19 19 19 20 22 22 20 20 18 17 17 19 17 15 15 18 16 14 14 14 16 15 15 17 17 18 16 17 18 17 19 20 19 18 18 17
27 28 28 27 26 24 24 22 20 19 19 23 20 23 19 18 18 17 18 20 19 20 20 20 20 18 16 16 14 14 14 15 14 11 11 14 15 10 12 12 15 14 12 15 15 16 18 19 16 17 17 17
23 25 25 26 24 22 23 21 20 20 21 19 18 20 22 20 17 16 18 19 18 18 20 20 20 16 15 16 13 14 11 12 12 10 9 11 12 10 11 11 11 11 11 13 13 14 16 16 14 15 15 16
22 22 23 24 23 21 23 20 21 22 18 17 16 15 19 20 17 16 15 17 16 17 19 18 19 16 15 12 11 10 11 8 8 7 7 10 11 6 10 9 8 9 10 9 11 12 13 13 11 12 12 14
17 19 19 22 21 21 21 22 20 19 18 18 16 15 19 19 19 15 16 16 17 16 16 16 16 14 12 10 9 9 9 8 10 6 7 10 9 7 10 8 6 7 8 9 9 9 11 10 9 9 10 10
18 18 19 21 19 20 20 21 19 17 18 17 16 17 18 16 15 16 16 18 19 17 16 14 12 12 11 9 7 7 9 8 9 7 9 11 12 11 11 6 6 8 7 7 6 7 8 8 8 8 7 8
18 20 20 20 20 20 22 18 18 17 16 15 17 17 17 16 16 13 14 15 17 17 14 14 13 10 11 9 8 7 11 11 8 5 6 7 8 7 8 6 7 10 6 4 5 5 5 6 7 7 7 8
16 18 20 20 19 19 18 15 15 16 15 14 13 15 15 16 14 12 11 14 17 13 11 13 11 11 8 7 9 7 6 3 3 3 7 4 3 6 4 4 6 4 5 2 2 4 5 4 4 3 6 6
15 16 19 18 18 17 18 16 14 13 14 12 11 11 12 13 12 11 12 13 11 11 9 8 8 8 6 8 9 3 4 4 3 5 6 1 4 4 1 3 5 5 2 3 3 3 3 1 -1 5 4 6
16 14 15 17 17 16 19 14 15 12 12 10 8 9 12 13 12 11 11 12 12 8 7 3 4 3 7 9 4 4 4 4 3 5 7 4 6 2 2 4 5 1 1 2 2 3 2 2 4 2 1 5
18 13 12 12 12 15 17 14 13 12 11 11 10 8 8 12 10 11 12 11 11 7 8 4 5 4 8 7 4 3 2 1 5 4 7 1 4 5 1 2 2 -2 -1 1 -0 0 2 4 4 3 2 2
14 12 11 12 14 16 12 11 13 12 11 10 8 7 8 12 10 9 11 10 10 8 8 6 6 6 6 6 3 2 3 2 5 6 2 0 3 3 4 -1 -1 -1 -1 4 5 1 2 2 -1 -2 -0 4
14 11 9 10 11 10 8 14 13 12 10 11 8 8 11 12 9 9 11 12 10 6 3 5 5 5 7 5 2 3 2 3 5 5 2 3 2 4 5 2 1 2 3 4 4 3 1 -0 -4 1 3 9
15 13 11 9 7 7 9 11 14 13 11 11 8 11 10 10 8 9 8 9 9 7 4 3 3 4 6 3 3 2 3 1 -1 3 2 1 3 3 3 -0 -1 3 1 -1 1 1 -0 0 1 2 7 6
14 13 13 11 6 7 7 8 9 9 10 9 7 11 8 9 5 10 9 8 8 6 5 2 3 4 4 2 2 1 -0 4 3 3 1 -2 -1 2 -0 -5 -2 4 2 -3 -11 -9 -3 -4 2 8 7 7
13 14 14 12 10 7 5 7 9 6 5 7 6 9 8 8 6 9 8 6 7 5 5 4 1 3 2 -0 0 2 -1 2 3 2 -1 -2 -9 -5 -4 -7 -1 3 -1 -17 -21 -18 -16 -8 -4 11 12 8
13 11 15 11 11 8 7 7 10 6 10 7 5 4 8 6 6 7 7 7 8 6 4 2 2 1 -1 0 1 -4 -2 -2 -2 -4 -2 -3 -8 -15 -14 -7 -0 2 1 -13 -15 -12 -14 -18 -20 -11 -0 5
14 12 11 15 13 10 7 5 7 3 7 6 0 2 2 5 6 7 5 6 8 6 5 5 3 1 -1 -3 -0 -6 -7 -8 -9 -7 -5 -7 -5 -5 -22 -24 -15 -1 2 -5 -12 -12 -17 -17 -17 -14 -18 -9
16 14 14 13 14 12 10 9 6 3 2 2 -0 -1 1 1 4 5 5 4 6 6 6 6 3 1 -1 -2 -3 -8 -10 -11 -11 -5 -5 -6 -4 -13 -20 -19 -19 -12 -4 1 0 -11 -10 -9 -4 -2 -13 -12
16 14 11 10 8 7 5 5 5 4 2 0 -4 -6 -4 -1 0 1 3 3 4 6 6 5 4 3 -0 -1 -5 -10 -11 -10 -11 -9 -6 -10 -8 -13 -10 -10 -17 -18 -9 0 -1 -3 -5 -15 -7 -12 -11 -13
17 14 10 9 9 9 7 5 5 6 5 1 -3 -1 -4 -3 -2 -1 -3 -1 2 5 6 4 4 -6 -6 -5 -5 -9 -8 -10 -14 -16 -13 -10 -10 -18 -9 -14 -18 -17 -18 -14 -11 -4 -3 -2 -3 -8 -13 -11

ECMWFFLT2_sfc_dewp_108.txt.gz
Dewpoint
52 52 52 52 51 51 50 49 49 48 47 46 46 45 45 45 44 44 44 44 44 44 44 45 45 45 45 44 44 45 45 46 46 45 45 44 43 43 43 42 43 43 43 43 42 40 40 40 40 36 38 34
52 51 51 50 50 49 48 48 47 46 45 44 43 42 41 41 41 42 42 42 42 43 43 43 44 45 44 44 43 43 44 44 44 44 43 43 43 42 41 41 40 40 41 40 40 38 38 38 34 35 35 30
49 49 49 49 48 48 47 46 45 44 44 42 41 39 39 38 38 38 39 40 40 41 41 41 41 42 43 43 42 42 42 43 43 43 42 42 42 40 40 39 36 38 38 38 38 36 35 34 33 33 35 30
46 48 48 47 46 45 44 43 42 41 39 38 38 37 36 35 35 34 34 36 36 37 37 37 37 39 42 42 42 41 40 41 41 41 41 41 40 38 37 36 34 35 36 36 36 34 33 32 32 27 28 28
43 44 45 44 43 42 41 39 38 37 36 35 34 35 34 35 31 31 31 31 32 35 35 34 34 36 39 40 39 39 37 37 38 39 39 37 37 35 33 32 30 31 33 33 34 32 31 30 24 26 27 28
40 39 38 36 35 36 37 38 38 36 36 38 34 31 32 30 29 27 28 30 32 33 35 33 32 33 34 36 35 36 34 34 35 36 35 35 35 33 31 30 24 28 34 29 31 29 29 24 24 23 25 27
37 34 34 35 35 37 38 38 37 35 35 33 32 31 30 31 28 28 29 29 31 34 32 34 31 30 31 32 32 31 31 30 32 32 32 32 31 29 28 25 23 23 23 23 29 31 23 23 23 23 23 24
34 34 33 32 33 33 33 34 35 34 34 33 31 31 29 29 31 30 28 34 33 32 36 35 31 28 27 27 27 26 31 27 27 26 27 27 27 31 29 23 22 22 21 21 21 21 20 21 21 21 23 23
32 32 32 32 32 32 31 32 31 31 33 33 32 31 29 30 31 29 29 30 30 29 28 29 27 27 24 26 25 26 24 21 25 24 24 22 27 20 21 23 20 20 19 22 22 20 21 21 20 20 22 20
34 33 32 31 30 30 30 33 30 29 30 31 31 30 29 31 29 28 29 30 29 29 27 26 24 24 23 23 23 26 20 20 22 19 19 18 19 18 16 21 21 20 24 19 21 19 22 21 20 19 21 20
33 33 32 31 30 30 29 30 28 29 28 29 31 31 29 29 27 27 28 27 28 26 25 25 24 23 23 21 20 22 18 20 19 16 17 16 16 16 17 19 20 18 19 20 20 20 21 20 18 18 19 19
32 32 31 32 34 31 34 31 28 28 28 31 29 31 27 28 27 26 26 25 24 24 25 25 23 23 21 20 19 20 19 17 17 15 16 16 16 13 15 18 19 16 17 18 19 20 20 19 17 16 16 16
32 31 31 31 30 29 34 28 27 27 28 27 28 29 29 30 26 24 24 23 22 23 25 24 23 21 20 19 16 18 15 16 15 14 15 16 16 15 15 15 16 17 16 16 16 16 18 18 17 16 15 15
31 31 30 29 29 28 33 28 27 28 26 25 26 27 28 27 24 22 21 22 21 23 23 22 21 21 18 16 16 16 14 17 15 14 15 16 16 15 15 14 13 14 14 15 16 16 16 17 14 14 14 15
29 30 29 31 29 27 28 28 29 27 26 25 24 25 27 26 24 23 22 21 21 20 21 20 19 18 17 16 14 14 15 16 18 14 14 15 14 14 14 13 13 15 12 13 13 16 15 14 13 12 13 14
28 28 29 29 27 27 27 28 26 26 25 29 24 26 26 24 23 26 23 22 22 20 19 18 17 17 16 15 14 16 15 15 16 14 15 16 16 15 13 12 12 15 11 10 11 12 12 12 11 11 12 12
27 27 29 28 26 27 30 27 25 24 24 23 24 25 26 23 23 25 23 22 22 27 19 18 18 16 20 14 14 15 18 17 13 13 13 12 15 11 13 13 12 18 11 10 10 10 8 9 9 9 9 9
25 26 26 27 26 29 27 26 25 26 23 24 23 23 25 24 22 20 19 21 20 21 18 18 17 16 15 13 15 14 15 12 11 11 12 13 8 15 11 9 11 11 11 9 9 9 10 8 8 8 8 9
22 24 26 26 25 26 27 25 24 23 21 21 20 21 22 23 23 21 20 21 20 18 16 16 15 15 14 14 16 11 14 10 10 12 11 14 9 11 10 10 14 12 8 8 8 7 9 6 6 9 8 9
22 22 24 25 28 25 27 25 23 22 20 19 18 20 20 22 22 20 19 19 20 16 14 14 13 13 14 16 13 13 11 13 10 12 14 13 10 9 11 12 9 9 7 9 9 8 7 8 13 9 8 9
22 21 21 22 23 25 27 23 22 20 19 18 17 17 18 20 21 19 20 20 20 16 13 11 11 12 14 16 11 13 11 9 16 10 13 10 13 10 8 10 9 8 9 10 10 6 7 8 11 9 8 7
20 20 20 22 23 26 24 21 21 19 18 17 16 16 18 19 20 20 18 18 18 15 14 13 12 12 12 13 12 11 10 9 10 10 9 8 11 10 9 7 8 7 7 14 13 8 7 7 7 7 7 8
20 20 18 18 20 20 21 21 20 19 17 18 15 15 18 19 18 20 18 18 18 14 14 11 12 11 12 13 11 10 11 10 13 13 9 9 8 12 9 8 9 7 11 13 10 9 6 5 5 5 6 14
22 21 21 18 17 18 21 19 20 19 17 16 15 17 19 18 16 18 17 17 16 14 13 11 11 12 13 11 10 10 8 8 9 9 9 9 9 8 10 13 8 9 8 7 4 7 10 4 -2 -2 5 5
21 20 20 19 16 16 16 16 15 17 16 16 15 17 18 18 16 16 17 17 15 13 17 11 11 11 11 10 11 10 10 9 9 8 8 7 11 8 7 6 5 9 8 4 1 -0 -3 -3 -2 7 8 4
21 21 20 18 17 14 15 16 17 15 14 15 16 17 18 18 16 16 16 17 14 13 11 9 10 10 11 9 9 10 12 9 17 10 8 8 4 7 4 2 5 9 6 -8 -7 -9 -10 -2 -1 8 6 9
21 20 21 18 17 15 15 14 14 14 17 16 15 15 17 17 16 16 16 16 16 13 11 9 9 9 10 8 11 10 6 7 8 7 7 6 -1 -9 1 3 9 5 5 -9 -3 -4 0 -10 -15 -4 4 8
20 20 20 19 18 16 14 12 14 14 16 16 15 15 16 17 15 16 15 15 15 14 11 8 8 9 8 7 10 7 4 5 4 5 5 3 8 1 -13 -13 -12 7 6 1 -6 -4 -5 -9 -14 -12 -12 -11
21 21 21 21 21 20 17 15 14 11 13 14 15 14 15 15 14 16 15 14 14 14 11 10 9 8 7 6 7 7 5 3 3 2 2 2 1 -2 -16 -20 -20 -2 4 4 6 -3 -4 -3 -3 -2 -12 -12
21 21 20 19 20 18 17 14 13 10 11 12 12 13 13 14 13 15 14 13 14 13 13 10 10 9 7 6 7 8 2 -1 0 0 -0 -0 -3 -5 -7 -17 -16 -15 6 3 11 4 -0 -4 -2 -4 -5 -13
22 20 19 18 18 18 17 15 14 11 10 12 11 13 11 12 12 13 13 13 13 13 13 11 10 9 7 5 4 9 1 -4 -3 -2 -0 3 -2 -9 4 -7 -11 -11 -15 2 5 6 2 4 7 -1 -8 -8

ECMWFFLT2_sfc_dewp_111.txt.gz
Dewpoint
53 52 52 52 52 51 50 50 49 48 47 47 47 46 46 45 44 44 43 44 44 45 46 45 45 44 44 44 44 45 45 45 45 44 44 43 43 43 42 42 43 42 42 41 40 39 38 38 38 38 39 32
52 52 51 51 50 49 49 48 47 46 45 45 44 44 43 43 42 42 42 42 42 42 43 44 44 44 44 43 43 43 44 44 44 43 43 42 42 41 40 40 41 41 41 41 39 38 36 36 36 37 37 29
50 51 50 50 49 49 48 47 46 45 44 43 42 42 41 41 41 40 41 40 40 40 40 41 42 43 43 43 42 42 42 43 43 42 42 41 40 40 38 38 39 39 40 39 37 37 35 34 34 36 33 28
48 49 49 49 48 47 47 46 44 43 42 41 40 39 38 37 39 40 38 38 37 37 37 37 39 41 41 42 41 40 39 41 41 40 41 40 39 38 36 36 36 36 37 37 36 35 33 32 33 24 25 26
46 47 48 47 46 45 44 43 41 40 40 40 39 41 38 38 31 31 31 34 35 36 36 35 37 38 38 39 39 38 37 38 39 39 39 37 37 35 33 31 32 32 35 35 33 32 30 31 21 22 24 24
44 43 43 41 40 40 41 41 41 37 35 40 36 41 34 31 31 28 29 34 37 36 36 34 34 34 35 35 37 35 35 35 36 37 37 35 35 33 30 29 23 26 33 32 30 29 28 21 20 21 23 22
40 37 36 36 37 39 41 40 39 37 37 33 33 31 32 32 29 27 30 30 32 37 37 35 31 31 31 32 33 31 31 32 32 33 34 32 30 30 28 23 23 22 22 22 31 31 22 19 20 21 22 21
35 34 34 34 35 34 35 34 35 33 33 31 30 30 29 29 31 31 29 37 34 36 36 35 35 29 29 28 29 27 29 32 30 27 28 28 26 32 31 22 20 21 21 22 22 21 20 18 20 20 22 20
34 34 33 33 33 33 33 33 32 32 32 32 30 30 29 30 32 31 32 32 30 30 30 26 25 23 24 23 26 30 20 20 24 24 21 19 25 19 22 22 18 19 19 23 22 21 20 17 20 19 22 20
35 33 32 32 32 31 31 32 31 31 31 30 29 29 30 32 30 29 28 28 28 26 25 24 24 22 21 20 22 28 18 18 21 18 17 16 18 16 17 20 16 18 24 19 20 20 20 17 18 18 18 18
35 32 32 32 32 30 30 31 30 30 30 29 29 29 33 30 27 28 28 27 26 24 24 23 24 21 20 19 17 24 16 18 18 17 16 16 17 16 18 20 18 18 19 20 20 21 20 19 18 18 17 16
33 32 31 31 35 31 33 31 29 29 29 30 29 30 31 32 26 26 25 25 24 25 24 23 24 21 19 17 18 20 19 16 16 16 16 17 17 15 17 19 19 16 17 18 19 19 19 19 17 16 16 16
32 31 31 33 31 29 37 28 28 28 29 28 30 29 31 33 25 25 22 21 23 23 22 22 21 19 18 16 17 17 16 18 16 15 16 17 15 16 16 15 15 18 14 17 18 17 16 17 17 16 15 16
32 31 30 30 29 29 35 27 27 28 27 27 27 27 27 31 24 23 21 22 23 21 22 21 21 19 16 15 17 15 14 20 16 14 16 17 16 17 16 14 14 14 13 14 17 18 13 14 14 14 14 15
31 31 28 30 29 30 28 27 28 27 26 26 26 26 26 26 28 22 22 21 21 22 20 19 16 16 16 14 16 15 15 18 21 15 15 13 13 14 14 14 15 18 11 13 13 17 12 12 11 10 11 14
30 29 29 30 28 28 28 28 26 26 25 28 25 26 25 22 25 27 22 21 21 20 18 16 16 15 13 14 16 17 14 15 19 17 16 19 17 14 15 15 14 18 12 11 11 13 11 12 9 9 11 11
30 30 30 29 27 27 30 27 25 25 24 24 25 25 24 23 24 26 21 21 23 27 17 17 16 16 17 13 14 17 19 19 14 13 14 15 16 16 12 14 12 20 14 11 11 11 10 10 9 9 10 10
29 29 29 28 26 30 28 26 25 26 24 24 24 24 24 22 23 23 21 20 21 19 16 16 15 15 13 12 15 17 17 11 13 13 14 17 11 20 14 12 13 14 11 11 11 10 13 10 9 10 10 10
28 28 29 27 26 28 27 25 24 25 23 23 23 22 23 22 23 21 21 20 19 19 16 15 14 13 11 12 17 13 16 9 13 11 10 19 10 13 12 14 17 16 9 11 10 10 13 7 8 13 11 11
26 27 27 26 29 27 27 26 24 24 22 22 22 22 21 21 22 20 21 20 19 18 15 14 13 13 13 14 16 12 14 14 11 12 11 17 13 9 10 15 10 14 10 13 12 11 9 8 14 11 11 10
24 24 25 25 27 26 26 25 24 23 21 21 21 21 20 21 22 19 20 20 19 16 15 14 13 12 11 16 11 10 11 13 15 11 15 11 19 11 7 11 10 12 13 12 12 9 9 8 13 9 9 9
23 24 24 24 26 28 25 24 23 22 20 19 20 20 20 20 21 20 18 19 19 15 14 13 12 11 11 14 10 10 10 10 12 10 10 5 14 12 9 7 9 9 11 16 14 9 7 7 7 7 7 8
22 23 23 23 24 26 24 24 22 21 19 19 18 19 20 20 20 21 18 18 19 14 16 12 11 11 12 11 10 8 9 9 10 10 9 8 8 15 10 9 11 9 11 13 13 10 8 7 6 7 7 13
22 22 23 22 22 24 25 23 22 20 18 17 16 19 20 20 18 19 18 17 17 13 15 10 11 10 12 11 10 8 8 7 10 9 7 7 7 7 12 18 11 11 12 11 9 9 12 8 5 1 6 6
21 20 21 21 21 21 23 22 20 19 18 17 15 18 19 19 17 18 18 18 16 13 17 10 11 10 10 10 10 8 7 7 10 8 7 9 15 7 6 5 11 10 8 5 -1 5 4 -1 1 15 15 8
21 20 20 20 20 20 20 22 21 18 16 16 16 18 19 19 17 17 17 19 15 14 13 10 10 10 9 9 9 9 10 9 19 13 9 7 4 13 6 2 6 6 3 -9 -9 -9 -10 2 1 8 7 10
21 20 21 19 19 19 19 20 21 19 18 17 16 16 18 18 17 17 16 18 16 14 12 9 9 10 9 8 11 10 10 10 10 8 5 5 -1 0 7 3 11 1 -1 -12 -1 -1 2 -5 -13 -2 0 3
21 21 20 20 19 18 17 17 20 18 18 17 16 15 17 18 16 16 16 17 16 15 12 9 9 9 9 7 11 8 7 7 6 7 4 4 5 -4 -4 -2 -3 5 6 -3 -2 -7 -2 -1 -13 -13 -7 -10
22 22 22 22 20 19 17 18 17 16 16 16 16 15 15 16 17 16 15 16 15 16 12 11 10 9 9 7 8 9 6 5 4 6 5 3 4 -4 -10 -7 -11 9 6 -1 -1 -2 -3 -6 -6 -2 -9 -14
23 23 21 21 20 17 16 15 15 14 15 15 15 15 14 16 16 16 15 15 15 15 14 11 10 10 9 7 8 10 5 4 4 4 5 3 1 -2 -9 -12 -11 -0 11 1 10 -2 -5 3 3 0 -6 -9
24 21 21 20 20 19 17 16 15 14 14 15 15 16 14 15 16 16 14 15 15 15 15 11 10 9 9 8 5 10 4 3 2 2 4 6 1 -3 2 -14 -14 -3 3 1 3 4 -0 8 8 -2 -7 -11

ECMWFFLT2_sfc_dewp_114.txt.gz
Dewpoint
53 52 52 52 52 52 51 51 50 50 49 48 47 47 46 46 45 45 45 45 44 45 45 44 45 45 45 45 46 46 45 45 45 44 44 44 44 45 45 45 45 43 43 42 41 40 40 40 39 39 36 30
53 52 52 52 52 51 51 51 50 50 49 48 48 47 46 44 44 44 44 45 46 44 45 44 45 44 44 44 45 45 44 44 45 44 44 43 43 43 43 44 44 42 42 41 40 39 38 38 38 37 35 26
52 53 52 51 51 50 50 49 49 48 47 47 46 45 44 44 43 42 42 41 41 43 44 44 43 44 44 43 44 45 44 43 44 44 43 42 41 41 42 42 43 41 40 39 39 38 37 35 36 34 29 24
50 51 51 50 49 49 48 47 47 46 45 45 44 44 43 43 43 42 39 40 38 40 42 41 40 42 43 43 42 43 43 43 43 43 42 41 39 38 38 39 40 38 38 38 36 35 34 34 33 21 21 21
48 49 50 49 49 48 47 46 46 45 44 44 43 44 41 40 34 35 35 36 36 38 38 38 38 39 41 41 40 40 40 41 42 41 41 39 37 35 32 32 34 36 35 35 34 33 32 32 19 20 20 20
48 48 48 46 45 44 45 46 46 43 40 43 38 41 35 31 33 31 33 36 38 35 37 35 36 36 37 38 39 39 38 39 40 39 38 37 35 33 31 30 20 25 34 31 30 29 30 19 19 20 19 19
45 43 42 42 41 42 45 43 40 37 38 36 35 30 29 32 30 29 33 34 34 36 39 32 33 33 35 34 34 36 35 34 37 37 35 35 32 30 30 21 21 21 22 23 30 28 19 17 18 20 20 20
41 40 39 39 39 38 36 34 34 34 33 32 30 30 29 27 29 30 29 38 36 40 32 35 33 32 33 31 29 29 30 34 30 31 33 31 31 33 30 17 19 21 22 21 19 17 16 17 18 18 19 19
37 37 37 36 36 34 33 32 31 31 30 30 29 29 29 29 31 30 33 33 33 31 27 23 21 21 22 24 27 29 19 20 22 21 19 18 23 19 22 17 17 21 18 23 20 16 16 16 17 16 18 17
37 35 34 34 33 32 32 32 30 29 29 29 29 29 29 32 29 30 28 28 28 26 24 22 21 19 19 21 23 26 17 18 18 17 16 17 18 17 20 18 17 22 25 19 19 17 17 16 16 16 16 16
36 33 33 33 33 31 31 31 29 29 28 28 28 29 31 29 28 27 26 25 24 23 22 21 20 19 18 18 19 22 16 17 18 16 16 16 17 17 19 19 18 19 19 20 20 19 19 18 16 16 16 15
34 32 32 32 36 33 33 31 29 29 28 29 28 29 31 30 27 26 25 24 23 23 22 21 20 19 17 17 19 22 17 16 16 16 17 17 17 16 18 18 19 16 17 18 20 17 18 18 16 16 15 16
33 32 32 33 33 31 36 30 29 29 29 28 28 29 32 30 27 26 24 23 22 23 21 21 18 16 16 16 16 17 19 16 15 16 16 17 16 17 17 15 19 17 16 17 18 15 15 16 15 15 14 16
32 31 31 32 32 30 36 29 29 29 28 27 27 27 29 29 26 24 22 23 23 20 20 19 19 17 15 15 16 14 14 21 15 14 16 16 16 17 16 14 16 14 14 15 17 17 13 14 13 13 14 15
32 31 31 32 31 30 32 29 30 29 27 27 26 25 27 28 27 22 22 22 22 20 19 18 16 15 15 15 16 15 13 21 18 16 14 13 14 13 14 14 16 15 12 14 13 17 13 13 11 11 12 14
32 31 30 32 30 30 30 29 28 28 27 29 26 27 25 25 25 26 21 22 22 20 18 15 14 14 13 13 15 15 14 18 20 16 18 19 17 17 15 15 16 19 11 11 12 14 13 13 11 11 12 13
31 31 30 31 29 30 30 28 27 26 26 26 26 26 23 23 24 26 21 21 22 27 16 15 14 13 16 13 14 15 18 21 17 14 13 15 19 19 13 14 16 20 14 12 13 12 12 10 10 11 12 12
31 30 30 30 28 31 28 27 26 27 25 27 26 26 23 22 24 23 21 20 22 19 16 15 13 13 13 13 14 16 18 12 12 11 12 14 15 23 15 12 15 14 10 13 13 12 15 12 12 12 13 13
30 30 30 29 28 29 28 26 25 26 25 25 25 24 23 22 25 22 21 21 20 16 15 15 14 13 11 12 14 13 14 10 11 9 11 18 8 14 15 14 21 12 10 13 11 12 17 10 11 15 13 13
30 30 29 29 29 28 28 27 25 25 24 24 24 24 22 21 24 21 21 20 19 16 15 14 13 12 12 14 14 11 13 12 9 9 14 19 10 7 10 13 9 16 10 13 13 15 14 12 15 14 13 12
30 29 29 28 28 27 27 26 25 25 23 23 23 23 22 21 23 21 21 20 19 16 15 14 13 12 12 15 11 11 12 12 13 10 12 13 16 7 8 13 8 16 16 13 14 13 12 11 15 11 9 10
29 29 29 28 27 29 27 25 25 24 23 22 22 22 21 21 23 22 20 20 19 16 16 14 13 12 12 13 10 10 11 10 13 10 9 9 16 10 9 7 7 7 13 17 15 12 11 10 9 9 9 9
28 28 28 27 26 27 26 25 25 24 23 22 22 21 21 21 21 22 20 20 20 16 18 14 13 11 11 13 10 9 9 10 12 11 8 6 8 17 9 7 10 9 13 15 14 12 9 10 9 9 9 16
26 26 27 26 25 26 27 25 25 24 22 22 21 22 22 21 20 21 20 20 18 16 17 14 13 11 11 11 9 8 8 7 9 8 7 4 6 11 13 17 12 13 15 12 9 10 12 10 7 3 10 10
25 25 25 25 25 25 25 25 24 23 22 21 21 22 21 21 20 20 19 20 18 15 19 14 12 11 11 10 9 8 7 7 8 7 7 7 15 8 6 8 13 13 9 3 -5 8 4 2 6 18 18 15
25 25 25 25 25 25 25 25 25 23 21 20 20 21 21 21 20 19 18 19 18 16 15 13 12 11 10 9 8 8 9 8 18 14 9 8 9 12 5 1 9 10 1 -2 -14 -15 -12 6 4 14 9 13
25 24 25 24 24 24 23 24 24 23 22 21 19 19 21 21 20 19 18 18 18 16 14 12 11 10 10 9 10 9 8 9 10 11 8 7 1 6 8 7 11 6 -1 -10 -1 -3 1 -7 -10 3 3 9
25 24 23 24 23 23 22 22 24 23 21 20 19 18 19 20 20 19 17 17 17 17 14 11 10 10 9 8 10 8 6 7 7 9 7 6 6 3 1 3 1 8 5 -5 -3 -1 1 2 -9 -8 -8 -7
25 24 22 22 20 22 21 19 22 21 20 19 19 18 17 18 19 19 18 17 17 17 14 13 10 10 9 8 8 8 5 4 6 8 7 6 3 2 -2 -1 -8 5 5 -0 2 2 1 -4 -4 2 -6 -9
25 25 22 21 20 18 19 19 19 20 20 19 17 18 17 17 19 18 17 17 17 16 16 13 11 10 9 8 8 9 4 3 5 6 6 5 2 0 -1 -3 -12 -5 10 3 3 4 2 7 12 2 -7 -3
25 23 22 21 20 20 19 19 19 19 20 21 19 18 16 16 17 18 17 16 16 16 16 13 11 10 9 8 6 11 5 3 3 4 6 6 2 -1 3 -6 -9 -4 1 5 2 3 3 3 9 1 -6 -3

ECMWFFLT2_sfc_dewp_117.txt.gz
Dewpoint
54 53 52 52 52 51 51 51 51 50 50 49 48 47 46 46 45 45 44 45 45 45 44 44 43 43 43 44 45 45 45 45 46 46 47 47 48 47 47 46 46 45 45 43 42 41 40 39 38 37 34 26
54 54 53 52 52 51 51 51 50 50 49 48 48 48 47 46 46 46 45 45 44 45 43 43 43 43 43 44 45 46 46 46 46 46 46 47 47 47 46 45 45 44 44 42 41 39 38 38 36 36 33 22
52 54 53 53 52 52 51 51 51 50 49 49 48 48 47 47 46 46 46 45 45 45 44 43 43 44 45 45 46 45 46 46 45 44 44 44 45 46 45 43 42 42 42 41 39 38 36 35 34 33 27 21
51 53 53 53 53 52 52 51 51 50 50 49 48 47 46 46 45 45 44 46 44 45 43 43 43 43 44 46 46 45 46 45 44 43 42 42 42 43 43 42 41 40 40 39 37 36 34 33 31 18 18 19
51 51 53 53 53 52 51 51 50 49 48 47 47 47 46 44 38 37 36 37 40 43 39 42 43 42 43 44 44 45 44 44 43 42 41 40 39 37 36 36 37 38 38 36 35 33 32 30 17 18 18 18
49 50 50 48 49 48 49 50 49 47 44 46 43 45 39 35 35 33 35 37 41 37 38 37 40 40 42 43 42 43 43 42 42 41 40 38 37 35 33 32 18 21 34 33 32 31 30 17 17 18 18 16
48 48 46 46 45 46 48 46 44 42 42 39 38 34 33 34 32 32 34 34 35 37 40 37 38 38 40 42 41 40 41 40 40 40 39 37 35 33 32 21 20 20 16 20 29 28 18 16 17 17 16 17
46 45 44 44 44 43 43 41 40 39 37 34 30 30 31 30 32 33 31 38 39 39 34 38 38 37 36 35 35 33 32 37 37 38 35 32 32 32 27 18 20 21 19 16 15 15 16 16 16 17 16 17
44 43 42 41 41 40 39 37 37 36 34 29 27 28 28 29 32 30 33 34 31 26 24 21 20 21 22 24 26 28 18 18 23 20 17 18 24 19 20 19 21 19 16 20 16 15 16 16 16 15 17 15
43 41 40 39 37 36 35 35 34 33 31 28 27 27 28 31 29 31 33 31 27 23 22 20 20 20 20 21 23 27 16 17 16 16 17 17 19 18 18 17 19 23 24 16 16 16 17 16 15 15 15 15
41 39 39 38 36 34 32 32 31 31 29 28 28 28 31 28 28 30 30 28 24 22 21 19 19 18 19 17 18 21 16 16 17 16 16 16 17 18 17 17 18 19 19 20 16 16 16 16 14 15 15 15
39 37 36 35 37 33 33 31 30 29 28 29 28 29 30 30 28 27 27 25 22 22 21 19 18 18 17 17 19 21 16 15 15 16 17 16 16 16 18 17 17 16 17 18 16 15 15 15 13 13 13 15
37 35 35 35 34 31 36 29 29 28 28 28 28 29 31 30 27 25 25 23 21 22 20 20 18 16 16 16 18 18 16 15 14 14 15 16 16 16 16 18 16 15 16 17 16 13 14 14 13 13 13 14
35 34 33 33 33 30 36 29 28 29 28 27 28 29 30 29 27 25 23 22 22 20 20 18 17 17 15 14 16 16 14 18 14 14 15 16 16 14 15 17 23 13 13 15 18 15 13 13 13 14 14 14
33 33 32 33 32 31 33 30 30 29 27 27 27 28 30 29 29 25 23 22 22 20 19 17 16 15 15 14 16 14 14 21 15 15 13 13 12 12 13 15 18 13 12 14 14 18 13 13 13 12 13 14
32 31 31 33 32 30 33 31 29 29 27 29 26 28 29 28 27 28 23 23 21 19 18 16 15 15 14 13 15 15 15 21 18 16 18 18 17 17 15 17 18 17 11 12 14 14 14 13 13 12 14 14
32 31 31 32 32 31 33 30 29 28 27 26 26 27 28 27 27 27 23 23 22 27 17 16 15 14 16 13 13 15 16 20 18 18 18 19 20 16 15 14 17 19 13 12 13 14 15 13 13 13 15 15
32 31 30 31 31 32 32 29 29 29 27 27 26 26 26 26 26 26 23 22 22 21 17 15 14 13 14 13 14 16 18 14 13 11 11 16 17 22 14 12 16 10 7 13 15 15 16 14 14 14 15 14
32 31 31 31 31 30 31 29 28 28 27 26 26 26 24 25 26 25 23 23 22 20 16 15 14 13 13 13 14 15 15 12 11 10 10 17 14 15 13 14 22 11 10 12 8 12 18 12 14 18 14 16
32 31 30 30 33 30 31 29 28 27 26 26 26 26 24 23 25 24 22 22 22 19 16 14 13 13 13 14 14 13 13 13 10 10 13 18 10 8 11 15 10 16 8 14 13 17 16 14 18 15 14 14
32 31 30 30 30 29 30 28 27 27 26 26 25 25 24 23 24 24 22 22 21 18 16 15 13 13 13 15 11 11 12 12 13 11 13 16 17 7 8 13 7 13 13 13 18 15 15 14 16 13 13 13
31 31 30 30 30 31 29 28 27 26 26 25 25 25 24 23 24 24 21 21 21 18 17 15 14 13 12 14 11 10 11 10 13 11 11 9 16 9 10 11 6 8 12 15 14 14 13 12 11 10 11 12
31 31 30 29 28 28 28 28 27 26 25 25 24 24 24 23 22 25 21 21 21 17 18 15 14 13 12 13 10 9 10 10 13 11 10 8 10 16 9 8 6 7 12 13 14 13 12 12 12 11 11 18
31 30 30 28 28 27 28 27 27 26 25 24 24 24 24 23 21 24 21 20 20 17 18 15 14 13 13 12 9 9 8 8 10 9 8 7 7 11 14 17 12 13 16 12 8 12 14 11 9 7 11 14
30 29 29 29 28 27 27 27 26 25 25 24 23 24 24 23 21 23 22 21 20 17 20 16 14 12 12 12 10 8 7 7 8 9 7 8 15 9 7 10 13 13 11 1 -4 6 7 9 10 22 20 17
30 29 29 29 28 27 27 27 27 25 24 24 24 24 23 23 22 22 21 22 19 18 17 16 14 12 12 11 10 9 9 8 18 14 9 6 7 14 5 -0 10 10 1 -6 -11 -14 -11 4 9 17 12 13
30 29 30 29 29 28 28 27 27 26 26 25 23 23 23 23 22 21 21 21 21 18 17 16 14 12 12 11 12 10 8 9 9 10 8 6 0 6 9 4 11 9 1 -7 -1 -4 -0 -7 -9 0 -0 8
31 30 29 29 29 28 28 26 27 26 25 24 23 22 22 22 22 21 20 20 20 19 17 16 14 13 11 10 11 9 6 6 6 9 7 6 4 1 2 3 4 10 7 -4 -2 0 2 7 -4 -1 1 -8
30 29 28 27 24 25 24 23 25 24 24 23 23 22 21 21 22 22 21 20 19 20 17 16 15 13 11 10 9 9 5 4 4 7 7 5 3 0 -5 -3 -2 8 8 2 2 8 3 -3 -3 6 3 -2
29 29 27 25 25 23 23 23 22 23 24 23 22 22 21 21 22 22 21 20 19 19 19 16 15 13 12 11 10 10 5 3 4 5 6 5 2 -1 -2 -4 -3 -4 10 7 5 5 5 11 14 8 -4 -1
28 27 26 25 25 25 24 24 24 24 24 25 23 23 21 20 20 21 20 19 19 18 19 17 15 13 12 11 9 12 7 3 2 3 6 7 4 -2 3 -2 -2 -3 -2 6 5 4 3 6 4 3 -1 2

ECMWFFLT2_sfc_dewp_120.txt.gz
Dewpoint
56 56 55 53 54 53 53 53 53 52 51 52 50 49 48 48 47 47 46 46 46 45 45 46 45 44 44 45 45 46 47 47 47 48 49 49 48 48 49 48 47 46 46 44 43 41 41 42 41 40 35 29
56 55 55 54 55 54 53 52 52 51 51 50 49 49 48 47 48 46 46 46 46 46 45 44 44 44 45 44 45 46 47 48 49 49 49 48 47 47 47 47 46 45 44 43 41 40 40 40 39 38 35 25
53 55 55 55 54 54 53 52 52 51 50 50 49 49 48 48 50 49 46 46 46 46 45 44 44 44 44 44 44 45 47 47 47 48 48 48 47 46 46 46 45 44 43 41 40 38 37 37 37 35 29 24
52 54 54 54 54 54 53 53 52 51 50 51 50 49 49 50 48 49 47 47 45 45 44 44 43 43 43 43 43 45 45 45 46 46 46 47 46 46 45 44 43 42 41 40 38 37 36 34 32 17 19 22
51 52 53 53 53 53 53 53 52 52 51 50 50 50 49 46 40 40 41 42 44 45 42 47 44 43 43 43 44 44 45 44 44 44 43 43 42 41 41 41 41 39 39 37 36 35 33 30 15 17 17 19
51 52 52 51 51 50 51 52 52 49 47 47 46 47 41 38 39 38 39 40 43 40 40 42 44 44 43 43 44 45 45 43 43 43 42 40 38 37 36 34 16 22 37 35 34 32 30 16 15 16 16 16
50 50 49 49 49 50 51 49 47 45 45 43 41 38 37 37 36 37 37 37 37 39 44 41 43 43 44 44 45 44 43 43 42 42 41 39 36 34 32 19 16 15 14 20 30 28 17 15 16 15 15 17
49 48 48 48 47 47 46 44 43 42 41 39 37 36 34 33 35 35 35 42 42 42 37 40 42 42 41 40 40 39 35 41 41 41 38 34 33 31 27 18 18 17 15 14 14 15 15 14 15 16 15 16
48 47 46 46 45 45 43 42 41 39 38 36 34 33 31 32 33 33 36 33 31 29 27 23 21 22 23 24 27 30 18 18 23 19 17 17 23 18 21 20 18 14 13 17 15 14 14 15 14 14 16 14
46 45 45 44 43 42 41 40 38 36 34 32 31 30 30 32 30 33 33 29 26 24 22 19 20 20 20 21 22 26 15 16 15 15 16 17 18 16 17 18 20 23 21 13 14 13 14 13 13 13 14 14
45 44 43 43 41 40 39 38 36 33 30 29 29 29 31 29 29 33 32 27 24 21 19 18 18 18 18 17 18 22 14 16 17 15 15 15 16 17 16 17 18 19 18 16 14 14 14 13 13 13 14 14
44 43 42 41 42 40 39 37 35 32 28 28 27 29 30 30 30 32 31 26 22 21 19 18 17 18 17 17 18 20 15 14 15 16 16 15 15 16 16 16 16 16 16 16 14 13 14 14 12 13 13 14
43 42 41 40 39 37 40 35 34 31 28 26 27 29 30 30 29 31 30 25 21 21 19 19 17 16 16 17 18 17 15 14 13 14 15 15 14 15 15 14 14 15 16 15 14 12 13 14 13 14 13 14
42 40 40 39 38 36 39 33 32 31 27 26 27 28 29 30 29 29 28 24 21 19 19 17 17 17 16 15 17 15 14 16 13 13 14 14 14 15 16 16 21 13 14 16 17 14 13 13 13 15 15 15
41 40 39 38 37 34 36 31 31 30 28 27 27 28 29 29 29 28 26 22 21 19 18 17 15 14 15 14 16 14 14 19 14 14 12 12 12 13 15 18 19 13 12 13 14 18 13 13 14 14 16 16
40 38 38 37 35 33 34 31 30 29 28 29 27 29 29 28 28 29 24 22 21 19 18 16 15 15 14 13 15 15 15 18 16 14 16 17 16 16 15 16 16 15 11 12 14 15 13 15 14 14 16 15
39 37 36 35 34 32 33 30 29 28 28 27 27 29 29 28 28 28 24 22 21 26 17 16 15 14 16 13 14 15 17 19 17 17 17 18 18 16 15 14 15 18 11 11 13 15 15 14 13 16 17 16
37 36 35 34 34 33 33 30 29 29 27 28 27 28 29 28 28 27 24 23 22 21 17 16 15 14 15 13 15 16 18 15 14 13 13 17 12 21 14 11 17 10 9 14 14 16 17 15 16 17 16 16
36 35 34 33 33 32 32 30 29 28 27 27 26 27 28 28 28 27 24 23 22 20 17 16 15 14 14 13 15 15 16 12 12 10 11 18 11 18 12 13 19 9 9 12 8 13 19 13 18 19 16 18
35 34 33 33 34 32 32 31 29 28 27 26 26 27 27 28 27 27 24 23 23 20 17 16 14 14 14 15 15 14 15 13 10 10 13 18 12 10 9 15 14 15 9 12 12 19 17 15 21 17 15 15
35 33 32 31 31 31 31 31 30 28 28 27 26 26 25 27 27 27 24 24 23 20 17 16 15 14 14 15 12 13 13 12 13 10 12 16 16 8 7 13 8 14 13 14 18 17 16 15 19 13 14 15
35 33 32 31 31 32 31 30 30 29 28 27 26 26 25 25 27 28 24 24 23 21 18 17 15 14 14 14 12 12 12 11 12 11 10 11 16 9 10 11 6 7 12 13 13 14 15 13 12 12 12 14
36 34 32 31 30 30 30 30 30 29 28 27 26 25 25 25 25 28 24 23 23 20 20 17 16 14 14 14 11 10 11 10 13 12 11 9 12 15 10 10 8 8 12 10 12 11 12 14 13 13 13 20
36 34 33 31 30 29 30 29 29 28 27 27 26 26 26 25 24 26 24 23 22 21 20 17 15 14 14 13 10 9 9 9 11 10 9 8 8 12 13 17 12 12 16 12 7 13 14 11 11 8 14 13
36 34 32 31 30 29 29 29 28 28 27 27 26 26 26 25 23 25 24 23 22 20 22 18 16 14 13 13 11 9 8 8 9 9 8 10 15 10 7 11 13 13 9 -1 -4 3 4 4 12 20 21 15
36 35 34 32 31 30 29 29 29 28 27 26 26 26 26 25 24 24 24 24 21 21 20 18 16 14 13 13 11 10 11 8 18 15 10 8 9 13 4 0 10 9 0 -4 -12 -12 -14 -5 6 13 17 12
35 35 35 34 33 31 30 29 29 29 28 27 26 25 26 25 24 23 23 23 22 21 19 18 16 14 13 12 13 11 9 10 10 11 8 6 3 8 8 4 11 7 -2 -9 -2 -2 -0 -8 -9 -2 15 9
34 34 33 33 32 31 30 29 29 28 27 26 25 24 25 25 24 23 23 23 22 21 19 18 16 15 13 12 13 10 7 7 6 9 7 5 6 4 3 4 4 9 7 -3 -3 -5 2 10 -4 -0 3 -3
33 32 31 31 28 29 28 26 27 27 26 25 25 25 23 24 24 24 23 22 22 22 19 18 17 15 13 12 12 11 8 6 5 7 7 6 4 1 -4 -1 -2 10 8 2 1 8 2 -2 -3 6 7 -7
33 32 31 29 29 27 27 27 26 26 26 25 24 24 24 24 24 24 23 22 22 21 21 18 17 16 14 12 12 12 8 6 5 6 6 6 3 1 -3 -6 -2 -1 12 7 6 6 7 13 14 9 4 -2
32 32 31 29 29 29 28 28 27 27 27 27 25 25 24 24 23 23 23 22 21 21 21 19 18 16 14 13 11 14 9 5 4 4 6 7 4 0 3 -5 -3 -3 -0 9 7 5 4 7 2 8 2 3

ECMWFFLT2_sfc_dewp_123.txt.gz
Dewpoint
58 58 58 58 56 55 55 54 53 53 53 53 52 51 50 50 49 48 48 48 48 47 47 47 47 47 46 46 46 46 46 46 47 47 47 48 50 50 50 48 48 47 46 46 46 46 46 46 45 43 40 39
57 57 58 57 57 57 56 55 54 53 53 52 51 51 50 50 51 48 48 47 47 46 46 46 45 45 46 46 46 46 45 46 46 47 48 49 50 49 49 48 47 45 45 45 45 44 44 44 43 42 40 37
55 55 56 56 56 56 56 56 54 54 53 52 52 52 52 52 51 51 50 48 47 47 46 45 45 45 44 45 45 46 46 46 46 47 48 49 48 48 48 47 46 45 43 43 43 43 42 41 40 40 36 36
53 54 55 56 55 56 56 55 55 54 53 53 53 53 52 51 50 51 48 49 46 47 46 46 45 44 44 44 45 45 45 45 47 47 49 49 48 47 46 45 44 43 42 41 41 40 39 38 35 29 30 35
52 53 55 55 55 55 54 54 54 55 54 52 52 51 51 48 45 46 46 46 48 48 46 47 47 44 44 44 45 45 44 45 46 47 46 46 46 45 45 44 42 40 40 39 38 37 36 33 25 27 29 32
52 53 53 52 53 52 53 53 53 52 50 49 49 49 46 44 43 43 44 44 46 46 47 46 46 47 43 43 44 44 44 45 45 44 43 43 43 42 39 36 27 31 38 36 35 34 32 23 23 26 28 30
52 52 51 52 51 52 52 50 49 49 48 47 45 43 43 42 41 41 41 41 44 46 47 45 46 47 44 44 44 44 43 44 44 43 41 40 39 37 33 23 24 21 23 26 30 28 23 21 23 25 27 29
51 50 50 50 51 50 49 48 47 46 45 43 42 42 40 40 41 40 41 45 45 45 44 46 46 45 45 45 45 43 41 44 43 42 38 35 33 29 25 21 20 19 20 19 19 20 18 20 23 24 24 27
50 50 50 49 49 48 47 46 45 44 42 41 40 40 39 40 40 41 41 40 38 37 36 35 34 33 33 33 35 33 29 27 28 24 23 23 24 23 23 21 19 19 19 19 19 18 18 19 21 22 23 24
49 49 49 48 47 46 45 45 43 41 40 38 38 37 38 38 38 38 36 36 35 34 32 32 30 28 28 30 29 28 23 21 23 22 21 22 21 20 21 22 22 23 19 18 17 16 20 19 19 21 22 23
49 49 48 48 47 46 44 43 42 40 38 37 36 37 38 37 37 36 33 33 33 31 29 27 25 24 24 26 24 23 21 22 21 20 19 20 21 20 20 21 21 20 19 19 19 19 20 19 19 20 21 22
48 47 47 46 46 45 44 42 41 38 36 36 34 35 34 35 36 34 32 32 30 28 26 24 23 22 21 21 22 21 21 21 19 19 19 21 20 16 18 18 20 18 16 18 19 20 20 20 19 19 19 21
47 46 46 45 45 43 43 41 40 37 35 33 32 33 34 34 34 33 32 30 28 24 25 23 22 20 20 21 21 20 18 20 19 18 18 19 19 19 18 17 17 18 16 16 17 17 19 19 19 20 19 21
46 45 45 44 44 42 43 40 38 35 32 32 31 32 32 34 34 33 30 29 26 25 24 22 22 21 21 19 19 18 19 18 17 17 17 19 19 16 17 16 19 15 17 16 18 17 17 17 15 19 19 21
45 45 44 44 43 41 41 39 36 33 31 30 30 31 32 33 34 32 30 28 26 24 23 21 21 19 19 19 19 17 18 18 18 17 17 19 17 17 17 18 18 14 13 15 15 18 17 16 16 17 18 19
45 44 44 43 41 40 40 37 35 32 29 30 29 31 32 31 32 32 30 28 26 25 22 20 19 19 19 18 18 18 19 19 18 17 19 20 20 20 20 16 15 16 11 11 12 14 16 17 16 15 18 18
45 44 43 42 40 39 39 36 34 31 29 28 28 31 32 31 32 32 29 27 26 27 22 21 20 19 19 18 18 18 22 22 20 19 19 20 20 18 18 16 16 19 13 11 12 12 13 13 15 16 17 17
45 43 43 41 40 38 37 34 33 32 29 28 27 30 31 31 31 31 27 26 26 25 21 21 20 19 18 17 20 20 21 18 17 16 17 18 16 18 14 13 15 10 11 11 11 12 15 12 15 15 15 16
44 42 42 40 39 37 36 34 33 32 30 28 27 28 30 30 30 30 28 27 25 23 21 20 19 19 18 18 19 18 18 16 15 16 16 16 14 17 12 14 15 11 11 10 7 9 11 6 13 14 13 16
43 42 40 40 39 37 36 34 32 31 30 28 27 28 30 30 30 29 28 26 25 23 21 19 19 18 18 20 18 18 17 16 15 14 17 18 17 13 13 13 14 11 9 9 8 13 9 10 16 9 11 12
43 41 40 38 37 37 36 34 32 31 30 29 28 27 28 30 29 30 28 26 26 23 22 20 19 18 20 19 17 18 17 15 15 15 17 16 17 15 12 13 12 8 8 10 9 10 9 12 12 9 10 9
42 41 40 38 37 37 34 33 32 31 30 29 28 28 28 30 29 30 27 27 26 24 22 21 20 19 19 18 17 17 16 15 14 14 15 15 17 13 13 11 10 9 8 7 6 8 9 9 7 7 8 10
42 40 39 37 35 34 33 33 32 31 29 29 28 27 28 30 29 30 28 27 26 24 22 21 20 19 19 17 16 16 15 15 15 15 14 16 15 16 14 13 12 11 12 2 4 4 5 7 4 11 11 16
42 39 37 35 33 32 33 32 32 31 29 28 28 28 28 29 29 30 27 27 26 25 23 21 19 19 19 17 15 15 14 14 13 15 15 14 16 14 14 15 12 13 12 9 8 10 9 8 8 6 11 7
42 40 38 36 33 33 33 31 30 30 29 29 28 28 29 29 28 30 29 27 26 24 24 21 20 19 18 17 15 15 14 15 15 14 13 13 16 14 10 10 12 14 12 0 -2 4 7 3 9 9 10 -0
42 41 39 37 35 34 33 31 31 30 29 29 28 28 28 28 27 29 29 27 26 25 25 22 19 19 18 16 14 15 14 13 17 16 12 10 7 13 9 2 12 8 4 -9 -15 -17 -16 -11 4 10 12 12
43 42 40 40 39 36 36 34 33 32 31 31 30 28 29 28 27 27 28 27 26 25 24 23 20 18 17 16 16 14 12 13 13 13 12 10 4 6 4 1 10 11 5 -13 -9 -7 -9 -10 -11 -3 9 11
43 43 42 39 39 37 36 34 33 33 33 31 30 29 28 28 27 27 27 27 26 25 24 24 21 19 17 16 16 14 11 10 9 11 10 9 8 5 1 -0 2 10 9 -6 -10 -7 -9 2 -8 -2 0 1
42 41 40 38 34 34 33 31 31 31 30 28 29 28 27 27 27 26 26 27 26 25 25 24 22 20 17 16 15 14 12 9 9 11 10 9 6 3 -1 -0 -3 8 9 6 6 -1 1 6 10 9 3 1
41 40 40 37 35 33 33 33 31 31 32 28 27 27 26 26 27 26 26 26 26 26 25 24 23 21 19 17 16 15 12 10 9 10 10 7 5 3 2 -2 -3 3 9 8 8 10 8 9 12 5 5 -1
39 39 39 38 37 37 36 36 35 34 33 32 29 30 26 26 26 27 25 25 25 25 25 24 23 22 20 17 15 16 12 8 7 6 8 8 4 1 4 -4 -2 0 3 7 6 4 7 7 1 5 -0 2

ECMWFFLT2_sfc_dewp_126.txt.gz
Dewpoint
61 61 60 60 59 59 58 57 56 55 54 54 53 53 52 52 52 51 50 50 50 50 49 48 48 48 49 49 48 48 48 48 47 48 48 48 48 49 49 49 49 49 49 49 49 49 49 48 48 48 49 48
59 59 60 60 59 59 59 58 56 55 54 54 53 53 53 53 53 51 49 49 49 50 49 48 47 47 47 48 47 47 48 47 47 46 47 47 49 48 48 48 48 47 48 48 48 47 47 47 46 46 48 47
59 58 58 58 59 58 58 58 57 56 55 54 54 54 54 53 52 52 52 51 48 47 48 47 47 47 47 47 47 47 46 47 46 46 47 47 48 49 48 47 47 46 46 46 46 45 45 44 44 45 47 47
60 57 57 57 57 57 57 56 56 56 55 54 54 54 52 52 51 52 50 52 48 48 47 49 46 45 47 47 47 46 46 46 46 46 46 47 48 48 47 46 45 45 44 45 44 44 42 41 41 42 43 47
56 57 56 56 56 56 55 55 55 54 54 54 53 51 51 51 48 48 47 46 46 48 46 49 50 46 45 47 46 45 44 44 45 45 46 47 49 47 45 43 43 42 42 42 42 41 39 38 38 41 43 45
55 56 56 56 55 54 54 54 54 53 53 51 51 51 49 49 48 48 48 46 48 45 45 47 49 50 45 46 46 45 44 44 45 44 46 46 45 44 43 40 37 36 38 39 39 37 36 34 36 40 42 44
54 54 54 55 54 54 54 53 53 52 51 50 49 49 47 45 46 46 46 46 46 46 48 47 49 50 45 45 45 44 44 43 43 45 44 43 42 39 35 30 29 29 29 30 32 32 33 32 35 39 41 43
53 53 53 53 53 53 52 52 52 51 50 49 48 48 45 44 46 45 45 47 47 47 46 48 49 49 49 49 47 45 44 44 43 42 41 39 34 28 24 23 19 20 21 21 24 26 27 30 35 36 38 40
52 52 52 52 52 52 51 50 50 49 48 48 47 46 44 45 45 45 44 45 44 44 44 45 45 45 45 45 45 45 44 41 37 32 29 25 23 22 24 23 21 21 19 19 21 23 25 29 33 35 36 39
51 53 52 51 50 49 49 49 47 46 45 45 46 45 44 44 44 44 44 44 44 44 44 43 43 43 42 43 42 41 38 34 30 23 21 22 20 18 21 22 22 21 17 18 15 18 26 26 29 32 34 37
51 51 51 50 49 49 47 47 45 44 43 43 44 45 45 43 43 42 42 42 43 42 42 41 41 40 41 41 40 37 34 32 27 19 17 18 20 18 20 21 21 21 21 21 21 22 25 27 28 31 33 36
50 51 50 50 49 48 47 46 45 44 43 44 43 44 43 42 42 41 40 41 41 41 40 40 40 39 39 38 36 34 32 29 23 18 17 20 19 14 17 18 19 16 16 19 22 22 23 26 26 29 32 36
50 50 50 49 48 48 48 47 46 44 43 42 42 43 43 42 41 40 40 40 39 38 39 37 37 36 36 35 33 31 27 26 22 18 17 17 16 16 16 15 18 16 15 15 17 18 21 22 25 29 32 35
50 49 49 49 48 48 47 47 46 45 42 40 40 41 43 43 41 40 39 39 36 36 36 35 35 34 33 31 29 28 26 21 18 16 17 18 18 13 15 12 14 13 16 13 16 16 19 18 18 26 30 34
49 48 48 48 48 47 47 46 44 43 41 40 40 40 42 43 41 40 39 38 36 35 34 33 32 30 29 26 25 23 22 20 19 17 16 18 14 14 13 15 13 11 13 15 16 17 19 17 16 19 27 30
48 48 48 48 47 46 46 45 43 40 39 39 39 40 41 41 40 38 37 37 35 34 33 30 29 26 24 21 20 20 21 20 19 17 21 23 21 20 17 13 12 12 9 11 11 15 17 17 15 15 21 28
48 48 47 47 47 46 45 43 41 39 38 38 37 38 40 39 39 36 36 35 34 33 31 29 28 25 23 20 20 19 24 24 22 20 19 21 21 18 16 15 15 18 10 11 11 10 13 12 15 15 16 23
48 47 47 47 46 45 44 42 41 39 38 36 36 37 38 37 37 35 33 34 34 32 29 29 28 25 22 20 22 22 23 19 16 14 17 17 15 16 13 15 14 9 11 8 8 10 13 12 14 12 15 16
48 47 47 45 44 44 43 41 40 38 35 34 33 34 35 35 35 34 32 33 32 30 28 27 25 24 21 22 22 19 18 16 16 16 17 15 13 14 11 14 14 14 13 11 8 9 8 8 9 14 15 16
47 46 46 45 44 43 43 41 40 38 36 34 32 33 33 34 34 34 32 32 32 29 28 25 24 23 22 25 20 19 19 19 16 16 18 16 16 14 14 14 14 12 12 11 9 11 8 9 12 9 11 15
47 46 44 43 43 42 42 41 40 38 35 33 31 31 32 33 33 33 32 31 31 28 28 25 25 23 26 23 20 20 19 16 17 17 20 16 17 16 12 14 13 10 10 11 7 11 11 12 12 11 11 10
47 46 44 43 43 41 42 40 39 38 36 33 31 31 31 33 32 33 32 31 30 28 28 27 26 25 25 22 20 20 18 15 16 17 18 15 17 16 14 11 13 10 8 13 12 8 10 9 7 8 10 10
47 46 44 43 42 41 40 40 39 38 37 33 30 31 34 33 31 32 32 31 30 28 27 26 26 25 25 21 19 20 18 17 17 17 16 17 16 17 15 11 14 11 13 16 14 11 8 5 -2 7 8 11
47 45 45 45 44 43 42 38 38 38 37 33 31 30 31 31 31 32 31 31 30 28 27 26 25 25 25 22 20 19 18 17 15 17 18 18 19 18 16 18 15 16 12 9 11 10 6 4 3 5 9 6
46 45 46 45 43 43 41 39 39 38 35 34 34 35 37 33 30 32 31 30 30 28 27 25 25 25 24 22 20 19 18 19 17 17 17 17 18 17 14 12 14 16 13 8 5 8 12 9 8 7 4 2
47 47 46 44 44 42 40 38 39 37 35 35 33 35 36 39 37 33 31 29 29 28 27 25 24 24 23 21 20 20 19 20 21 20 17 17 12 17 12 8 13 14 11 -3 -10 -6 -4 5 6 8 7 5
47 46 45 43 42 41 41 38 38 37 37 36 34 34 37 33 34 36 36 33 31 27 27 26 24 23 23 22 21 20 19 20 20 19 17 15 8 8 11 8 15 14 9 -11 -11 -13 -14 -13 -6 6 6 6
47 46 45 44 43 41 41 39 37 36 36 35 33 33 36 37 34 31 31 31 33 32 31 27 24 23 23 22 21 20 18 17 16 16 16 14 11 10 3 3 7 12 13 2 -12 3 -9 -5 -9 -8 2 -3
47 47 46 45 43 41 41 38 38 36 37 38 36 32 33 35 35 35 36 32 31 31 31 29 27 26 23 22 21 20 18 15 15 17 16 14 11 7 3 1 -3 10 10 11 5 -5 -2 8 10 8 -2 -1
46 46 46 45 43 40 40 40 38 38 36 33 33 33 31 31 31 32 33 35 35 30 28 28 26 26 24 22 21 20 18 15 15 16 16 14 12 10 9 6 -1 3 11 10 11 10 6 6 12 -0 -2 -1
45 46 46 45 43 42 40 39 39 36 36 34 33 34 32 31 34 32 29 30 32 33 31 31 31 31 27 22 20 20 18 14 15 15 16 16 14 9 12 12 4 3 5 6 5 9 8 12 6 2 0 0

ECMWFFLT2_sfc_dewp_129.txt.gz
Dewpoint
61 61 61 61 60 59 59 59 58 56 56 55 55 54 55 54 54 53 52 52 52 51 50 50 51 51 51 50 51 50 49 49 49 48 48 47 48 49 50 50 51 51 52 51 51 51 51 51 51 53 53 48
60 61 61 61 60 60 59 59 58 58 56 54 54 55 56 55 54 53 51 52 51 51 50 50 50 50 50 50 50 50 49 49 48 48 47 46 48 48 48 49 49 50 50 50 50 49 49 49 50 51 52 47
61 60 60 60 59 59 59 59 57 57 56 56 56 56 55 54 53 53 53 53 50 49 48 49 50 49 49 49 49 49 48 47 47 46 46 46 48 48 48 48 48 48 48 48 48 47 47 47 48 51 50 46
62 59 59 59 58 58 58 57 57 57 56 56 55 54 53 53 53 54 53 54 51 50 49 51 49 47 49 48 47 47 47 46 46 46 46 46 46 47 47 47 47 46 47 46 45 44 44 46 48 44 46 46
61 60 58 58 58 58 57 57 56 56 56 55 54 52 52 51 50 51 50 47 49 51 48 51 51 48 47 47 47 47 46 46 46 46 46 46 47 46 45 44 44 44 44 43 42 42 42 47 41 45 46 46
59 59 59 60 59 58 57 56 55 55 54 52 51 51 50 50 50 48 48 47 48 46 47 48 50 51 49 46 47 46 46 46 45 46 45 45 46 44 41 38 36 35 37 39 39 38 42 35 39 44 45 45
59 58 58 59 58 58 56 54 53 53 52 50 49 48 49 48 48 48 48 48 48 47 49 48 50 49 50 46 46 46 45 45 44 43 44 45 43 40 34 34 34 31 31 30 32 34 32 33 37 41 43 44
59 59 58 57 56 57 55 53 52 52 52 51 49 49 48 47 48 48 47 48 48 48 47 50 51 51 50 49 48 47 44 43 44 45 44 42 37 31 27 26 22 25 24 24 23 25 25 29 35 36 39 42
58 58 59 58 54 54 53 53 53 53 51 51 50 49 47 48 49 48 46 46 45 45 45 47 47 47 45 44 44 46 43 43 42 40 37 31 30 24 26 23 23 24 22 22 23 23 25 29 31 34 38 40
58 58 58 57 57 55 53 53 54 50 50 49 49 48 48 47 47 46 46 46 45 44 45 45 45 45 44 44 43 44 43 41 39 31 26 24 22 19 22 22 22 19 16 18 17 20 26 25 28 30 33 39
57 57 57 56 56 55 54 51 50 51 49 48 48 48 48 46 46 45 45 45 45 44 44 44 44 43 43 44 43 42 39 37 32 24 20 20 22 20 22 23 23 24 22 22 22 25 27 27 27 30 33 37
56 56 56 55 55 54 53 53 49 48 47 48 47 47 45 45 45 44 44 45 45 45 44 43 43 43 43 43 42 40 35 33 27 19 19 22 20 16 19 18 19 17 18 22 23 25 26 27 27 29 32 37
56 56 56 55 55 54 51 49 48 48 48 46 46 45 46 45 44 43 44 44 43 43 42 41 41 41 41 41 40 38 33 31 26 20 19 19 17 17 18 18 18 17 16 17 18 20 25 25 27 30 32 37
55 56 55 54 53 52 50 51 47 46 45 45 45 45 45 45 44 43 43 43 42 41 41 41 41 40 40 39 37 34 30 28 23 19 18 17 17 14 17 14 16 15 17 14 18 18 21 21 21 28 31 35
53 53 53 53 52 50 49 51 48 46 45 45 44 44 45 45 44 43 43 42 41 40 40 40 39 37 37 36 34 32 28 25 22 19 18 20 16 16 14 16 14 14 15 17 18 19 20 19 19 23 29 32
52 51 51 51 50 50 49 49 48 48 45 44 44 45 45 44 43 42 42 41 40 40 39 38 37 36 35 34 32 29 26 22 21 19 20 21 18 18 16 15 14 15 13 15 15 19 20 18 17 19 25 30
51 52 51 50 49 49 49 49 47 46 45 43 44 45 45 44 44 42 41 41 40 39 38 37 37 35 33 32 30 26 26 25 23 20 22 23 22 19 18 15 15 19 13 13 14 14 14 15 17 17 21 26
54 51 50 51 50 49 50 49 49 48 45 43 43 44 45 45 43 41 40 40 39 38 36 36 35 33 31 29 27 24 26 23 20 19 21 22 18 21 15 16 17 12 12 12 12 13 15 14 15 15 17 21
52 51 52 50 50 50 50 49 48 45 44 43 42 42 44 44 42 40 40 39 38 36 35 34 33 31 28 26 25 23 25 21 18 18 19 17 13 16 13 16 15 12 13 13 10 12 13 12 12 15 16 20
50 51 51 52 50 50 51 51 49 50 45 42 42 41 43 42 41 39 38 38 37 35 33 32 31 29 27 28 23 24 22 19 17 17 21 18 16 15 14 15 16 13 14 13 10 12 10 11 13 12 14 17
50 50 50 50 51 52 50 50 49 49 46 45 41 40 40 41 41 39 37 36 36 33 32 30 29 27 27 27 23 22 21 18 19 18 23 17 17 18 14 16 16 11 13 14 10 13 12 15 13 13 13 13
49 48 48 51 51 50 49 48 48 50 47 43 41 42 41 40 39 39 37 35 35 33 31 30 28 27 27 26 23 23 23 19 18 20 21 18 19 18 17 15 15 12 11 17 16 12 13 13 12 10 12 12
49 48 49 51 50 49 49 49 49 49 44 42 41 39 40 40 40 38 38 36 35 33 31 29 28 28 29 25 24 24 22 20 20 22 21 21 19 19 17 15 16 14 15 20 19 15 11 9 5 10 11 13
49 49 49 49 49 49 48 49 47 46 45 42 42 42 42 40 39 38 36 36 37 38 37 30 28 29 28 25 24 23 21 19 18 21 22 20 20 19 19 17 15 16 13 15 16 13 10 8 7 6 11 8
50 49 49 49 48 47 48 47 47 46 46 44 44 41 41 40 39 39 38 37 38 37 35 29 29 29 27 24 23 23 20 20 20 21 20 19 20 20 18 17 18 19 17 12 11 11 14 11 10 9 7 7
49 50 49 48 48 48 48 47 46 45 45 42 41 41 41 40 38 39 37 37 35 34 32 28 28 29 27 24 23 23 21 20 23 22 20 20 19 20 18 15 18 20 15 6 1 2 4 11 10 11 11 9
51 51 49 49 48 46 46 46 45 47 47 44 41 41 41 40 40 40 39 37 35 32 31 28 28 28 26 25 24 23 22 21 21 21 21 20 18 17 17 14 20 18 14 -0 5 5 0 -1 4 10 10 10
52 50 49 49 47 47 46 44 44 46 43 43 41 40 38 38 39 39 39 37 36 36 36 35 32 28 27 25 25 24 22 21 20 21 20 19 19 18 12 13 13 17 17 8 3 5 -5 -7 -4 -3 6 7
51 50 49 49 47 46 45 43 45 43 42 41 40 40 39 37 36 37 38 38 35 34 35 35 35 32 29 27 24 24 23 21 21 22 20 20 18 15 12 12 11 16 16 15 13 1 1 9 7 6 -6 7
49 50 49 48 45 40 39 39 39 40 40 40 39 38 38 38 37 36 36 35 34 33 32 33 34 31 28 28 25 24 22 21 22 22 20 19 17 15 15 13 6 12 16 16 16 18 15 16 3 -1 -3 3
43 45 48 48 47 45 43 42 41 41 41 41 40 39 37 37 38 37 35 37 36 36 33 33 31 30 28 26 25 25 23 21 21 21 21 21 19 14 17 18 8 8 12 13 14 17 16 18 17 15 6 0

ECMWFFLT2_sfc_dewp_132.txt.gz
Dewpoint
62 63 63 63 62 61 60 60 60 60 59 58 58 57 56 55 56 55 54 53 53 52 52 52 52 52 52 52 51 51 51 50 49 48 49 50 49 50 51 51 52 53 53 53 52 52 53 54 55 53 53 49
61 61 62 62 61 61 61 60 59 59 58 57 57 57 56 56 56 55 55 54 52 52 52 52 51 52 52 51 51 50 50 49 49 48 48 47 48 48 49 50 52 52 52 51 51 50 51 52 52 52 52 47
61 60 60 60 60 60 60 60 59 58 58 58 58 57 56 56 55 55 54 53 52 53 53 52 52 51 52 51 50 50 49 49 48 48 48 47 47 49 49 49 50 50 50 50 49 48 49 51 50 53 50 47
60 60 59 59 59 59 59 59 58 58 58 57 56 55 54 54 53 53 52 53 51 52 53 54 52 52 51 51 50 49 49 48 48 48 48 47 48 48 48 48 47 47 47 47 46 45 46 49 50 46 47 47
60 60 59 59 58 58 58 57 57 57 56 55 54 53 53 52 51 51 51 50 50 53 48 51 52 51 49 49 49 48 48 48 47 47 47 48 46 43 42 42 42 43 43 43 42 42 48 48 44 45 46 47
60 60 59 59 59 58 57 56 56 55 54 52 52 52 50 50 49 49 50 49 49 50 48 50 52 52 51 48 48 48 47 47 47 47 46 47 43 41 40 38 38 39 40 37 38 45 45 38 40 43 44 46
60 60 60 59 58 57 56 55 55 55 53 52 51 50 50 50 48 48 48 47 48 48 49 49 52 51 52 48 48 48 47 47 47 46 47 46 40 34 33 37 36 36 36 31 37 43 36 37 37 41 43 45
59 60 59 58 57 57 56 55 54 54 53 51 50 50 50 51 50 49 47 48 48 48 48 49 50 50 51 50 51 50 48 49 48 47 47 44 36 33 40 33 31 34 34 35 31 31 32 34 36 37 40 44
59 59 59 59 58 56 55 55 55 55 53 52 51 50 49 49 48 48 47 47 46 46 47 47 47 47 46 46 45 47 44 44 43 40 38 36 36 34 32 31 29 29 28 28 29 29 30 31 33 36 39 41
57 58 58 57 57 56 56 55 55 54 52 51 51 50 48 48 47 46 45 45 45 46 47 46 45 44 44 44 44 44 42 41 38 36 34 32 33 30 29 29 30 27 27 26 28 29 31 31 32 35 38 40
57 57 57 57 56 56 55 55 54 53 52 51 50 48 48 47 46 45 44 44 44 44 45 45 45 44 43 43 43 43 41 40 37 30 28 27 29 28 27 27 29 29 28 29 29 30 32 32 31 34 37 40
57 57 56 56 55 55 54 54 53 53 53 52 50 48 47 46 46 45 44 44 44 44 44 44 44 44 43 43 43 42 39 36 31 25 25 26 25 23 26 27 26 26 26 26 28 31 31 31 31 33 36 39
56 56 56 55 55 55 53 54 53 53 53 52 51 50 47 46 45 45 44 44 43 43 43 43 43 44 43 43 42 39 35 32 27 23 23 24 22 23 23 24 25 25 24 25 25 28 29 29 31 32 35 38
55 55 55 55 55 55 53 54 53 52 52 52 51 49 47 46 45 45 44 44 44 43 43 43 43 43 43 43 41 37 33 31 26 22 23 22 21 21 21 20 22 23 22 23 25 26 27 26 28 31 34 36
55 55 55 54 55 54 54 54 53 52 52 51 50 48 46 46 45 44 44 44 43 43 42 42 42 41 42 41 40 35 32 29 25 23 22 22 20 20 20 21 21 22 21 23 24 26 25 23 25 28 33 34
55 54 55 54 55 54 53 52 51 51 50 49 49 48 47 45 44 44 44 43 42 42 41 41 40 40 40 38 36 32 29 26 24 22 24 24 22 21 21 19 18 21 20 21 21 25 24 22 23 26 31 33
55 55 54 53 53 53 52 51 50 50 49 48 47 47 46 45 44 44 43 43 42 41 40 40 39 38 38 36 34 31 28 25 24 23 24 24 25 21 22 18 19 26 18 19 20 20 22 22 22 23 28 31
55 54 54 54 53 51 51 50 50 48 48 47 46 45 45 45 44 43 43 42 41 40 39 39 38 37 36 34 32 29 27 24 22 23 24 25 23 25 20 19 20 19 18 19 19 19 21 21 21 21 23 28
53 53 53 53 53 53 52 51 50 48 47 48 46 45 45 45 43 43 42 42 41 39 38 38 37 35 34 32 28 27 25 23 22 24 25 24 20 21 20 20 20 19 18 17 16 19 20 18 19 21 22 27
52 53 53 53 51 52 51 52 51 50 48 48 48 48 47 47 45 43 42 41 40 39 37 37 36 33 32 29 26 27 26 23 21 22 24 22 19 18 18 20 18 17 17 15 17 18 16 19 21 18 21 24
53 53 53 53 53 52 51 50 50 49 49 49 48 48 49 48 47 46 43 41 40 38 37 36 34 32 30 27 25 26 25 21 21 23 25 20 21 17 17 20 17 17 19 17 17 16 16 19 18 17 19 19
54 54 53 52 52 51 51 51 50 49 48 48 48 48 48 48 47 45 43 41 39 37 36 35 33 31 29 25 25 25 23 20 20 23 21 19 21 19 18 19 17 15 18 20 20 17 18 18 16 18 18 18
52 51 51 52 52 51 51 50 49 49 49 48 48 47 47 47 47 44 41 41 39 36 34 33 31 29 28 25 24 24 21 19 20 22 21 19 19 23 19 19 18 15 19 23 22 19 18 17 13 17 18 20
50 50 49 49 49 48 48 49 48 48 48 47 46 44 46 45 45 44 42 41 38 35 33 31 30 28 28 25 24 23 21 19 20 21 21 20 19 20 21 21 20 18 20 19 18 20 16 15 14 15 20 16
50 48 47 48 47 47 48 49 49 48 47 46 46 44 44 44 45 44 43 41 40 37 36 31 29 28 27 25 23 23 21 19 19 21 20 21 21 19 18 19 19 19 17 16 16 16 16 14 14 19 15 12
48 50 50 47 46 46 48 48 47 47 46 46 45 44 44 43 43 43 43 42 42 42 41 32 30 29 27 25 23 23 22 20 23 23 21 21 20 20 17 16 19 20 16 13 10 9 10 14 15 16 15 14
42 46 47 50 49 48 47 47 46 47 46 44 44 44 43 43 42 42 41 41 41 40 40 39 35 29 27 25 24 23 21 21 20 21 20 20 18 19 19 17 22 18 12 8 11 10 9 7 9 14 14 15
35 41 44 45 48 48 49 48 47 46 46 44 43 43 43 43 43 42 42 41 40 40 39 38 38 32 30 27 25 23 21 20 19 20 19 19 19 18 16 16 19 19 16 9 8 10 4 6 6 5 10 10
30 35 40 42 43 44 44 42 44 44 44 44 42 41 40 40 41 40 41 42 41 41 40 40 40 37 31 27 25 24 22 20 19 20 19 19 19 18 15 14 17 19 17 13 8 7 2 5 8 12 5 10
27 30 32 38 40 39 39 39 37 39 41 42 41 41 40 39 39 39 39 40 41 41 40 39 39 37 37 34 29 28 25 21 20 20 19 19 19 18 16 14 14 16 19 14 15 11 9 16 16 5 3 6
25 26 28 31 35 37 38 38 40 43 44 44 43 42 41 39 39 39 39 38 39 39 39 39 39 36 36 36 35 35 34 29 21 21 20 20 19 18 19 16 13 14 15 16 14 16 15 16 17 9 8 5

ECMWFFLT2_sfc_dewp_135.txt.gz
Dewpoint
63 63 63 63 63 63 63 62 61 61 60 59 58 57 57 56 57 56 56 57 56 55 56 56 55 55 55 53 53 52 51 50 53 52 52 54 54 53 53 52 53 53 54 53 53 53 54 56 54 54 50 48
62 62 63 63 63 63 63 62 62 61 60 58 58 58 57 57 57 57 56 56 55 55 55 55 53 54 54 53 53 52 50 49 51 51 50 50 51 52 52 52 52 52 52 52 51 51 53 55 53 53 51 45
62 61 62 61 62 62 62 62 61 60 59 59 58 57 57 56 56 56 56 56 55 54 53 55 54 53 53 52 52 52 52 50 50 49 49 49 50 50 50 50 51 51 50 49 49 50 52 53 51 52 48 45
60 60 61 61 60 60 60 60 60 59 59 58 57 56 55 55 54 55 54 55 53 54 55 54 53 53 53 52 52 51 51 50 49 49 49 49 49 49 48 48 48 48 48 46 47 49 50 50 49 44 46 46
61 61 59 60 59 59 59 59 58 58 58 57 56 55 54 54 53 52 52 52 51 55 52 53 53 52 52 51 52 51 50 50 50 49 49 48 46 42 40 42 43 43 44 43 44 47 50 48 41 42 45 46
60 60 59 60 60 59 58 58 57 57 57 54 54 54 54 53 51 50 50 50 52 50 51 52 53 52 53 51 50 50 50 49 50 49 49 46 43 41 39 40 32 33 43 41 42 47 47 37 37 39 43 46
60 60 60 59 59 59 57 56 55 56 54 53 53 52 51 50 49 49 49 49 50 49 51 51 53 53 53 51 51 50 49 50 49 49 48 41 38 37 37 34 35 33 31 31 41 41 36 34 35 38 41 45
59 59 59 59 59 58 57 55 54 54 53 52 51 50 50 50 49 48 47 49 48 48 49 51 51 52 51 51 51 50 50 50 48 49 45 37 35 46 40 31 31 31 29 27 29 30 31 31 33 36 40 43
59 59 59 58 58 57 56 54 53 53 52 51 50 50 49 49 48 48 47 47 47 46 47 48 48 49 48 48 48 48 46 47 48 44 40 37 35 32 32 28 26 26 25 28 29 29 30 31 32 36 39 41
58 59 58 57 56 56 55 55 54 53 52 51 51 50 49 48 47 47 46 46 46 46 46 46 46 46 46 46 46 45 44 43 41 38 33 31 31 30 30 30 30 31 30 28 29 29 31 31 32 35 38 40
58 59 58 57 56 55 55 54 54 53 53 52 51 50 49 49 48 47 46 45 45 45 46 45 45 45 45 45 44 43 42 41 38 33 29 28 30 28 26 27 29 30 31 31 30 30 31 31 32 35 38 40
56 57 57 56 55 55 54 54 53 53 53 52 52 51 51 50 48 46 45 45 45 45 45 45 44 44 44 43 43 42 40 37 32 26 25 28 27 26 26 25 26 26 26 29 30 31 30 33 33 34 38 39
56 55 56 55 55 55 54 54 53 53 52 52 52 51 50 50 49 46 45 44 44 44 44 44 43 43 43 42 42 41 38 33 26 23 25 25 23 23 23 24 24 26 25 27 28 28 29 31 32 35 37 38
55 56 56 55 55 55 53 54 53 53 52 52 52 51 50 50 50 48 45 44 44 44 44 44 43 43 42 42 41 39 35 29 24 22 23 22 22 21 21 21 24 23 24 26 27 28 27 28 30 34 35 36
55 55 55 54 55 54 54 54 53 52 52 52 52 51 50 50 49 49 47 44 43 43 43 43 43 42 42 41 39 37 33 27 22 22 21 21 21 21 20 21 24 22 23 24 26 29 26 25 29 31 34 36
55 55 55 54 54 54 54 53 53 52 52 51 51 51 50 49 49 48 48 45 44 43 43 43 43 42 42 41 38 35 31 25 22 22 21 21 21 21 20 21 22 22 21 21 23 26 23 26 26 30 33 34
55 55 55 54 54 54 53 52 52 52 52 51 51 51 50 49 49 48 46 45 43 43 42 43 43 42 42 41 36 33 29 25 22 22 22 22 23 21 20 19 21 26 21 20 22 21 21 22 23 29 31 33
55 55 55 54 54 53 52 52 52 51 51 51 50 50 49 48 48 47 46 45 44 43 42 42 42 42 41 40 34 32 27 23 22 21 21 22 19 23 18 17 20 19 19 21 22 20 23 22 21 25 29 31
54 54 54 53 54 54 53 52 52 51 51 51 50 49 49 48 47 46 45 44 43 42 42 41 41 41 40 36 32 29 26 22 21 20 20 21 18 21 17 17 21 18 18 19 19 19 22 18 20 23 26 31
54 54 54 53 52 53 53 52 51 51 51 51 50 49 49 48 47 46 45 44 43 42 41 41 40 40 38 34 30 28 25 22 21 20 22 20 19 18 17 18 18 19 17 17 18 19 19 19 23 19 25 28
51 52 53 52 52 52 52 51 51 49 49 49 48 48 49 48 48 47 45 45 45 45 42 40 39 39 37 33 28 26 24 22 23 22 23 19 19 16 17 16 15 18 17 17 18 17 17 19 21 18 22 26
46 50 52 50 51 49 50 51 51 50 49 48 48 47 48 48 47 47 46 46 46 46 45 44 41 38 35 32 28 26 23 21 22 22 21 19 20 17 17 15 14 16 17 20 20 16 16 19 18 18 20 23
43 45 46 49 51 49 50 49 49 49 49 49 49 48 48 47 47 46 46 46 46 45 45 44 43 37 33 31 28 26 22 21 22 23 21 19 19 19 17 15 14 15 18 21 21 18 16 17 14 18 19 23
36 41 43 44 46 48 48 47 48 48 48 48 48 47 47 47 47 46 45 45 45 45 44 43 43 41 38 29 28 26 22 20 21 22 20 18 18 17 20 18 15 16 18 18 17 19 18 16 14 17 22 19
30 35 40 42 43 43 46 47 46 45 45 47 48 47 47 46 47 46 45 45 45 44 43 43 42 41 39 35 27 26 23 20 20 21 19 19 20 16 18 18 17 18 17 15 16 18 16 16 17 21 21 16
26 29 36 41 42 42 44 45 46 46 46 45 44 44 45 45 45 45 44 44 44 44 43 42 41 40 39 38 31 26 24 20 23 22 20 19 19 18 17 17 17 19 14 12 10 9 11 13 15 20 18 15
24 26 29 34 38 39 41 42 42 45 46 45 44 44 44 45 45 44 44 43 42 42 42 41 41 38 39 38 36 33 26 22 20 21 19 18 17 18 17 18 20 17 12 10 12 12 10 7 6 12 15 15
23 25 26 28 31 34 38 39 39 39 41 42 44 44 44 43 43 43 43 42 42 42 42 41 41 40 39 38 36 35 30 25 20 21 20 18 18 17 14 16 18 17 14 12 9 10 6 10 5 5 7 7
23 24 24 25 26 28 31 32 36 36 36 38 40 41 43 43 43 42 43 43 42 42 42 41 41 40 39 38 37 36 34 34 33 23 21 19 18 16 14 14 16 18 14 13 9 10 6 8 7 10 4 7
21 22 23 23 23 23 26 27 31 32 35 36 37 39 41 43 42 42 42 42 42 41 41 41 41 39 39 37 36 36 35 35 34 31 24 21 18 17 15 14 15 15 17 13 13 11 6 9 12 8 6 5
18 20 22 22 22 22 22 23 25 28 33 36 37 38 39 40 42 42 42 41 41 41 41 41 40 39 38 37 36 36 35 34 33 34 32 28 20 18 19 16 14 15 14 14 14 15 11 21 20 6 8 6

ECMWFFLT2_sfc_dewp_141.txt.gz
Dewpoint
62 63 63 64 65 64 64 63 62 61 61 61 61 61 61 61 62 61 61 62 62 60 60 60 59 58 58 58 58 58 57 57 57 56 55 56 57 57 56 55 54 54 55 56 57 57 56 55 54 54 51 48
61 62 62 63 63 64 62 62 62 62 61 61 61 61 61 60 60 61 61 60 60 61 59 58 58 59 59 58 58 58 58 57 57 56 56 56 56 55 54 54 54 54 55 55 56 55 56 55 54 53 51 47
61 60 61 61 62 61 61 61 61 61 61 62 61 61 59 59 59 60 60 60 60 60 59 59 58 58 59 59 59 59 58 58 57 57 57 56 56 55 54 53 54 54 54 54 55 55 55 53 53 51 49 47
59 60 60 60 61 60 60 60 60 61 60 59 59 58 58 58 58 59 58 58 58 60 59 58 58 58 59 59 59 59 59 58 57 58 57 56 55 54 53 52 53 53 54 55 55 54 54 52 51 46 46 46
59 60 59 60 59 59 59 59 59 59 59 58 58 57 57 57 58 58 57 55 55 59 57 56 56 57 58 58 58 58 58 57 58 57 56 55 55 53 52 50 52 54 54 54 54 53 51 49 45 46 46 47
59 58 58 60 60 60 59 58 58 58 58 56 58 57 57 57 56 56 57 56 55 57 55 55 55 55 56 56 56 56 57 56 56 56 56 55 54 51 48 45 38 48 52 52 52 50 48 44 45 45 46 47
57 59 60 60 60 59 59 58 57 58 57 57 57 57 57 55 54 55 55 55 55 54 54 53 54 54 56 56 56 55 55 56 54 54 55 54 52 50 45 34 36 38 41 44 48 48 43 43 44 44 45 45
56 57 58 59 59 59 59 59 58 58 57 57 57 56 55 53 52 52 52 52 51 51 53 53 54 54 54 54 55 54 54 55 54 53 54 51 50 47 36 30 31 33 35 35 37 39 41 42 44 44 44 44
56 57 57 57 58 59 59 58 57 57 56 55 55 55 54 52 52 51 51 51 51 51 51 51 52 52 53 52 51 52 48 49 50 49 47 45 37 29 31 30 29 32 33 34 36 37 39 41 42 43 43 44
57 56 56 55 57 56 56 58 57 56 55 54 54 53 52 52 52 51 51 50 50 50 50 49 49 49 49 50 50 49 48 47 43 38 34 31 29 29 30 28 29 31 33 32 34 36 38 40 41 43 43 44
57 57 56 55 54 54 55 56 56 55 55 54 53 52 52 52 52 51 51 50 50 50 49 48 47 47 47 48 48 48 47 42 37 31 28 27 28 29 29 31 32 32 32 33 34 36 37 39 41 42 43 43
56 56 55 54 52 52 53 53 54 54 55 53 53 52 52 52 52 52 51 51 51 50 49 48 47 46 46 46 46 46 45 38 31 27 27 27 27 27 28 29 31 32 32 33 34 36 37 39 40 41 42 43
51 54 56 54 53 52 52 52 53 53 52 53 52 52 52 52 52 51 51 50 51 49 49 48 47 47 45 45 45 45 42 36 28 25 26 26 25 26 26 26 29 30 31 32 34 35 37 38 39 40 41 42
48 49 52 55 54 54 52 52 52 52 52 52 52 53 52 52 52 51 51 50 50 50 49 48 47 47 45 44 44 44 40 35 27 24 25 25 24 23 25 24 28 29 29 30 33 34 36 38 39 39 41 42
45 47 49 51 54 54 53 52 51 52 51 51 51 51 51 51 51 52 51 50 50 50 49 48 47 47 46 45 43 43 40 32 25 23 24 24 23 23 22 24 26 28 26 28 29 33 35 36 36 37 39 40
41 45 47 48 51 54 53 52 51 51 51 50 51 50 50 50 51 50 50 50 49 49 49 48 47 47 46 46 45 43 39 30 24 23 23 24 24 24 24 24 23 26 25 27 26 29 32 34 36 37 39 40
36 42 45 46 48 50 52 52 52 51 51 51 50 50 50 49 49 49 50 50 49 48 48 48 47 46 46 46 45 42 39 30 23 24 24 25 25 23 23 23 23 27 24 24 24 25 28 32 35 36 38 39
30 37 42 45 45 46 48 51 52 51 51 51 50 50 49 49 49 49 48 48 48 48 48 47 47 46 46 45 44 42 37 29 22 22 23 23 22 25 22 21 24 23 22 22 22 23 24 28 32 34 36 37
26 31 39 42 43 44 44 46 47 49 51 50 50 49 49 48 48 48 48 47 47 47 47 47 46 46 45 44 43 39 36 29 23 21 21 23 20 23 21 22 25 22 22 22 21 21 23 25 27 32 35 35
25 25 33 39 42 42 42 42 42 44 46 47 48 49 49 48 47 48 47 47 47 47 46 46 46 46 45 43 43 41 34 28 24 22 24 23 21 20 20 22 22 23 21 22 22 23 24 23 28 29 31 33
26 25 27 34 39 39 41 41 41 41 42 42 43 44 46 48 48 47 47 47 47 46 46 45 45 45 44 43 42 41 36 29 29 23 25 22 22 19 18 20 20 21 21 22 21 23 21 22 26 28 30 32
25 28 25 29 35 38 38 39 40 40 40 40 41 41 42 43 45 47 47 46 46 46 46 45 45 44 44 43 42 41 39 35 30 27 25 21 23 20 19 18 18 19 21 25 24 20 20 20 21 23 27 31
21 27 28 26 28 35 35 36 38 38 38 38 39 39 39 40 41 43 45 46 46 46 46 45 45 44 43 43 41 40 38 37 35 33 27 24 22 23 22 19 20 19 22 25 23 21 19 18 19 19 22 29
17 20 24 27 26 29 32 33 36 36 36 37 37 37 38 38 39 40 42 43 45 45 45 44 44 44 43 42 41 40 38 37 36 34 32 32 29 26 22 22 21 20 21 22 19 22 19 19 19 17 24 22
15 16 18 22 21 23 30 30 32 32 34 34 35 35 35 36 37 38 39 40 41 43 45 45 44 43 42 42 41 40 40 38 36 36 35 35 34 32 29 26 22 21 20 18 15 18 17 17 21 28 26 22
14 15 16 18 19 20 25 25 26 27 28 31 32 33 33 35 35 36 37 38 39 40 41 43 43 42 42 41 41 41 39 38 37 36 35 34 32 32 32 30 31 29 19 15 12 9 9 15 15 20 22 18
13 14 15 17 17 17 19 20 20 24 22 24 26 29 31 32 33 34 35 35 35 36 37 39 41 42 41 40 39 39 38 38 36 36 35 34 33 32 30 30 30 30 30 16 18 16 10 4 4 9 15 15
14 15 14 16 18 17 17 16 18 18 17 17 18 19 23 27 30 32 33 34 34 34 34 35 36 38 40 40 39 38 38 37 36 36 35 34 34 33 30 30 30 31 26 20 15 12 7 9 5 1 -1 5
14 14 12 12 14 16 16 16 16 16 16 15 17 17 18 19 23 27 30 31 32 33 33 34 34 35 36 38 38 38 37 37 36 36 35 35 34 33 33 31 31 30 31 22 20 16 12 18 13 12 4 8
14 12 11 11 11 11 11 12 14 15 15 15 14 15 16 17 18 20 22 25 28 29 30 32 33 34 34 35 36 38 37 37 35 35 35 35 35 33 34 33 31 30 31 28 22 20 17 17 17 10 6 3
15 12 11 11 11 12 11 12 13 15 16 16 16 16 15 16 17 17 17 19 20 24 25 28 30 31 33 33 34 35 35 35 35 35 35 36 34 34 34 32 31 30 30 30 26 24 21 22 22 12 7 6

ECMWFFLT2_sfc_dewp_144.txt.gz
Dewpoint
61 62 62 63 63 63 63 64 65 65 64 63 64 63 62 62 62 62 63 62 62 62 62 62 62 62 63 63 62 62 60 59 58 58 58 58 58 57 56 55 56 58 58 58 58 57 57 56 55 54 52 48
60 60 61 62 61 62 63 63 64 64 63 63 63 62 62 61 61 62 62 62 61 62 62 62 62 62 62 62 62 61 61 60 59 58 56 59 58 56 55 55 55 57 57 57 57 57 57 55 55 54 52 48
59 59 60 60 60 61 62 62 61 62 62 62 61 61 60 60 60 60 61 61 61 61 60 61 61 61 61 61 61 60 60 60 60 58 59 59 58 56 55 55 55 56 56 57 57 56 55 55 54 53 50 49
58 59 59 59 59 60 60 60 61 61 61 60 60 59 59 58 58 58 59 61 60 60 60 59 59 60 60 60 60 60 60 60 59 59 59 58 57 56 55 55 54 55 56 56 56 55 54 54 52 48 49 48
55 58 58 59 59 59 59 59 59 60 59 59 58 58 57 56 57 58 58 60 59 60 58 57 58 59 60 60 60 60 59 60 60 60 60 59 57 55 55 55 55 56 56 56 55 54 53 52 48 48 48 49
53 57 58 59 60 59 58 58 58 59 59 57 58 56 56 56 55 58 58 58 56 57 56 56 56 57 59 59 59 59 59 59 58 58 58 58 57 54 53 51 45 49 55 54 53 52 51 48 48 47 48 49
51 55 57 58 58 59 59 57 56 57 56 57 57 56 56 56 56 57 56 55 55 55 55 55 56 56 58 59 58 58 58 58 58 57 57 57 55 52 49 41 41 42 45 48 50 49 46 46 46 47 47 48
49 53 56 58 58 58 58 58 56 56 56 56 56 56 56 56 54 54 55 54 53 53 54 55 55 55 55 55 57 57 57 58 57 58 56 56 52 46 40 35 35 37 40 42 42 44 44 45 46 47 47 48
48 50 54 56 57 57 57 58 58 57 56 55 55 55 55 53 53 54 54 54 54 54 54 53 53 53 53 52 53 53 50 49 49 50 49 43 38 32 34 34 33 37 38 40 41 42 43 44 44 45 45 46
46 48 50 52 55 56 55 56 56 57 56 55 55 55 54 53 53 52 52 52 53 53 53 53 52 51 50 51 51 50 48 44 41 38 36 35 31 29 29 31 33 35 37 39 40 41 42 43 43 44 44 45
44 46 48 49 51 54 55 54 55 55 55 55 55 55 54 53 53 53 52 52 52 52 53 53 52 51 50 51 50 49 46 40 36 34 31 29 28 28 29 31 34 34 35 37 39 40 42 42 43 43 44 44
40 44 45 47 48 51 53 54 54 53 54 54 54 54 53 53 53 52 52 52 52 52 52 52 50 49 49 50 49 47 45 38 33 30 29 27 26 26 29 31 32 34 34 35 37 39 40 41 42 42 42 43
35 40 43 44 46 47 50 52 53 53 53 53 53 52 52 52 53 53 52 52 52 51 51 49 49 49 49 49 48 48 46 42 35 31 28 27 25 26 26 29 30 33 32 32 34 38 39 39 40 41 41 41
30 37 41 42 43 45 46 49 52 52 52 52 52 52 52 52 52 52 52 51 50 50 50 49 48 47 48 48 47 47 45 43 40 35 28 25 24 24 25 27 31 31 31 32 33 36 38 40 40 40 40 41
26 32 38 40 42 42 43 45 46 49 51 51 51 51 51 51 51 51 51 51 50 50 49 48 48 47 46 46 46 46 43 37 36 31 29 26 24 23 23 26 29 30 29 30 31 34 37 37 38 39 40 41
26 27 35 39 39 40 41 42 43 44 44 46 49 50 50 50 50 50 50 50 49 50 49 48 48 47 46 46 46 46 43 36 30 28 25 25 25 24 24 25 25 29 27 27 27 32 34 35 37 38 40 41
26 26 31 36 37 39 39 40 41 41 41 42 43 45 46 48 50 50 49 49 49 48 49 48 47 47 46 46 46 45 41 36 28 25 25 26 26 24 24 23 23 30 25 25 25 26 29 32 35 36 38 40
24 26 26 32 34 35 38 38 39 40 40 40 40 41 42 43 45 49 49 48 48 48 48 47 47 46 45 45 45 44 41 39 38 33 27 24 22 27 22 22 23 22 22 22 23 23 26 29 32 34 36 37
21 26 25 28 29 31 35 36 37 38 38 38 38 39 39 40 42 43 45 47 48 48 47 46 46 46 46 45 44 43 41 40 38 37 28 24 21 24 22 22 25 22 22 22 22 23 26 25 28 32 34 35
16 21 26 26 29 27 30 32 34 36 36 37 37 37 37 37 39 40 41 42 45 47 47 46 46 45 45 44 43 42 40 39 38 37 33 30 22 21 21 23 22 22 20 22 21 22 22 23 30 29 31 33
14 17 21 23 24 25 26 27 30 33 35 35 34 35 35 35 37 37 38 39 41 44 46 46 45 45 44 44 43 41 40 39 38 34 33 35 26 24 21 21 20 21 22 22 21 20 20 21 26 27 29 31
13 14 18 20 21 24 22 23 24 28 32 32 33 34 34 34 34 35 35 36 38 40 42 44 45 44 44 43 43 41 40 39 38 35 34 33 30 26 21 20 20 20 20 24 22 19 19 20 21 23 24 29
12 13 16 18 18 20 19 19 22 22 26 31 31 32 32 32 33 32 33 34 35 36 38 40 42 44 43 43 42 41 39 38 36 35 34 33 30 27 23 21 21 21 24 24 23 22 22 20 20 21 23 27
11 11 14 15 16 17 18 17 19 17 18 25 27 27 29 31 32 33 33 33 33 34 35 37 38 39 42 42 41 40 39 38 37 35 33 33 31 30 30 29 23 22 22 23 22 24 22 20 19 18 27 23
11 11 12 14 14 15 16 16 17 16 16 18 19 21 22 26 27 31 31 32 32 32 33 34 35 36 37 40 41 41 40 39 37 36 35 35 34 32 29 29 27 23 19 16 16 19 18 16 19 28 24 19
12 12 12 14 14 13 15 13 15 15 15 16 18 17 18 19 21 26 28 29 30 31 32 32 33 33 35 37 38 40 40 39 38 36 35 34 33 32 33 30 31 29 25 19 14 10 9 14 14 17 19 17
13 13 12 13 14 13 14 13 14 15 15 15 15 16 16 17 18 20 23 25 27 27 29 30 31 32 33 34 35 36 38 38 37 37 36 35 34 31 30 31 31 31 33 27 24 23 20 15 7 14 16 16
14 16 14 14 15 14 13 12 16 14 15 14 14 15 15 16 17 18 18 19 22 23 26 28 28 30 31 32 33 34 35 36 37 36 35 35 35 33 30 29 30 32 33 32 32 28 26 25 14 17 13 5
15 15 12 12 13 14 12 11 11 11 13 13 14 13 13 15 16 17 17 17 18 18 23 24 26 27 29 30 32 32 33 33 34 36 36 35 34 33 33 32 31 31 33 33 36 33 27 25 24 24 15 8
16 13 11 10 11 10 10 9 10 10 12 13 13 12 12 13 14 15 16 16 17 16 19 20 22 24 27 28 29 30 31 32 32 33 35 36 35 34 34 33 32 29 30 32 33 34 34 32 30 28 21 19
18 12 11 11 11 12 10 10 11 10 12 14 15 13 12 13 13 14 14 14 16 16 16 18 18 20 23 25 27 28 29 29 30 31 33 34 34 34 34 33 32 31 30 30 30 32 31 29 28 25 21 21

ECMWFFLT2_sfc_dewp_150.txt.gz
Dewpoint
51 52 54 55 55 56 57 59 60 61 62 62 64 65 64 64 65 65 64 64 64 64 63 62 62 62 62 62 62 62 63 63 63 63 63 63 63 63 63 63 63 62 62 61 60 59 58 58 58 57 59 61
49 50 52 52 53 54 55 57 58 59 60 61 62 62 62 62 62 63 63 63 63 63 62 61 60 60 60 60 61 62 62 63 62 62 61 63 62 61 63 63 62 62 61 60 59 58 57 57 57 57 58 60
46 49 50 50 51 52 53 54 56 57 59 59 60 60 60 61 61 61 62 62 62 61 61 62 61 60 61 62 62 62 62 61 61 62 62 62 61 61 61 61 61 61 60 59 59 58 57 56 55 56 57 59
44 46 48 49 49 50 51 52 53 55 56 57 58 58 58 59 62 61 63 61 63 62 61 60 61 62 61 61 62 61 62 62 61 61 61 61 60 60 60 60 61 60 60 60 59 58 57 55 55 57 56 57
43 44 46 47 47 48 49 49 51 52 54 55 56 56 57 59 62 61 62 62 62 61 63 58 59 60 60 60 61 61 61 61 62 61 60 60 60 59 59 59 59 60 60 59 58 58 55 55 55 55 55 56
41 43 43 43 43 44 45 47 48 47 49 51 52 54 56 57 59 61 61 61 57 61 60 60 58 58 59 59 61 61 61 61 61 61 60 60 59 58 57 57 59 58 58 58 57 56 55 55 55 55 55 55
39 40 40 41 42 43 44 44 44 44 46 47 48 49 51 54 56 58 60 59 57 57 57 60 57 57 59 60 61 61 61 60 61 60 60 59 57 57 56 57 58 58 58 58 54 54 54 53 54 54 54 55
35 38 38 39 40 40 41 41 42 42 43 44 44 45 46 49 54 57 57 55 55 55 59 60 56 56 57 57 58 58 59 59 59 59 58 57 55 53 54 54 54 55 54 55 56 55 55 54 54 54 54 54
32 36 36 37 38 39 39 40 40 40 41 41 41 42 43 46 49 53 56 57 58 59 60 60 60 60 61 60 60 57 59 58 59 58 56 54 52 53 49 51 52 52 53 52 52 53 54 54 54 53 54 53
30 33 34 35 36 37 38 39 39 39 39 38 39 39 41 42 45 48 51 54 56 57 58 59 60 59 60 60 59 59 57 56 56 55 54 53 53 52 51 46 46 47 49 51 51 51 53 52 52 53 53 54
27 28 30 32 33 35 36 37 37 37 37 37 37 37 38 39 42 44 46 48 51 54 57 57 59 59 58 58 58 59 57 55 55 53 52 51 48 45 44 45 45 44 44 46 48 49 51 53 52 52 53 53
24 26 27 29 30 31 34 34 35 36 37 37 36 36 37 38 39 41 42 43 46 48 54 56 57 58 57 57 57 56 55 52 52 51 49 48 47 44 43 43 44 43 42 44 46 48 49 50 50 51 52 53
21 23 25 26 26 27 32 31 31 34 35 36 36 35 36 36 36 37 39 41 42 45 49 53 55 57 57 57 55 55 54 52 51 50 48 46 46 45 45 44 44 43 42 42 44 46 48 48 48 49 50 51
18 21 23 24 24 24 27 27 30 31 31 33 34 34 36 36 35 36 37 38 40 43 44 49 52 54 56 55 54 54 51 50 48 49 47 45 44 44 45 44 43 42 43 41 42 44 46 47 46 47 48 49
14 18 20 22 22 23 24 25 27 27 28 30 31 31 34 35 35 36 36 37 38 41 43 44 46 51 52 53 53 53 52 48 47 45 45 45 44 43 42 42 41 43 42 42 42 42 44 45 45 46 47 47
13 16 19 21 17 20 24 23 22 23 24 27 27 28 31 33 34 35 37 37 37 39 41 41 42 45 48 50 51 51 50 49 47 45 43 44 44 42 41 39 39 41 41 41 42 42 43 43 44 47 45 47
11 14 15 18 17 17 22 18 19 21 21 22 23 26 28 30 32 33 34 36 37 38 40 41 41 41 41 44 48 49 48 48 47 46 41 41 37 40 37 37 37 39 39 40 40 40 41 42 43 43 44 46
8 10 13 15 15 17 19 15 16 18 18 19 19 21 24 25 28 29 31 33 36 38 38 38 39 38 39 42 45 47 46 46 46 45 44 43 41 37 35 35 34 33 35 34 35 38 40 41 41 42 43 44
8 7 11 11 13 15 20 17 16 15 17 17 18 18 19 22 24 24 27 32 34 36 38 37 38 38 38 40 43 45 45 45 44 44 44 43 43 41 40 35 31 32 32 32 32 34 35 38 37 41 42 42
9 7 8 10 15 14 18 16 15 15 16 15 15 16 19 21 22 22 23 25 31 34 35 37 37 37 38 38 40 43 44 44 43 43 42 43 44 42 38 32 30 29 30 29 29 29 30 32 34 37 39 40
13 10 8 8 11 14 14 14 13 13 16 15 15 16 17 19 20 21 22 22 24 31 33 35 35 37 37 38 39 40 42 43 42 42 41 42 40 40 42 41 34 26 27 28 27 27 28 30 30 33 36 36
12 10 8 11 12 14 10 13 12 13 14 14 15 16 17 19 19 20 20 21 22 23 29 31 34 35 35 37 38 38 39 39 41 41 41 40 40 40 39 39 40 39 28 30 28 25 27 27 26 28 29 31
12 12 10 9 11 12 11 11 12 12 12 15 13 15 17 18 17 18 19 21 21 21 22 26 29 32 33 35 36 37 37 37 37 38 40 39 39 39 39 38 38 39 39 35 32 30 25 23 20 25 26 28
11 11 10 10 9 9 10 10 12 12 11 13 12 16 16 16 17 18 17 19 20 21 20 21 23 27 29 33 34 35 34 34 35 35 36 37 38 38 38 39 38 38 38 37 36 31 26 22 22 22 23 21
11 11 10 10 9 7 7 9 10 8 11 13 13 15 16 16 15 18 17 18 19 20 19 19 20 23 25 28 31 32 32 33 34 35 35 36 38 37 37 37 38 37 38 36 35 36 28 24 22 21 20 18
10 12 11 10 9 8 7 7 8 9 10 12 16 14 14 14 16 17 17 17 18 19 19 19 18 20 21 24 27 29 30 31 32 32 33 34 35 36 35 35 37 36 37 35 34 35 35 27 21 20 19 20
11 10 12 10 8 7 7 5 9 11 14 13 13 13 14 14 15 15 16 16 17 19 19 18 17 18 19 21 25 25 26 27 28 30 31 32 32 33 35 34 35 35 35 33 34 34 35 36 35 30 22 21
15 14 14 15 13 13 9 8 12 10 9 11 11 11 12 13 14 14 14 15 15 17 19 19 19 18 18 20 21 22 23 24 25 26 28 29 31 32 31 33 34 34 34 34 33 31 32 33 36 37 36 28
14 14 13 12 14 15 13 12 10 7 7 9 10 10 10 11 13 14 13 14 14 14 17 18 19 19 19 19 19 20 21 20 23 25 26 28 29 30 30 30 32 34 34 33 34 32 31 31 32 33 37 30
14 13 11 10 12 11 11 8 8 10 7 10 7 7 8 12 10 13 13 13 13 13 15 15 16 18 18 18 19 19 19 20 20 21 25 26 27 28 30 31 31 31 34 33 33 33 33 32 30 30 33 33
16 13 10 11 11 11 11 10 10 6 7 10 10 12 8 10 10 12 12 11 12 13 13 14 14 15 17 17 18 18 18 18 19 20 23 25 26 27 28 28 28 29 30 33 33 33 33 33 32 32 31 30

ECMWFFLT2_sfc_dewp_156.txt.gz
Dewpoint
43 45 46 47 49 49 50 51 51 52 52 52 52 53 54 54 53 55 56 57 58 59 59 59 60 61 61 61 61 61 60 61 63 63 64 63 63 65 65 64 64 64 64 63 63 62 60 60 60 60 60 63
40 41 43 43 46 46 47 48 49 49 50 50 50 50 50 50 50 52 53 54 55 57 57 57 57 59 60 61 61 61 60 60 61 63 63 63 63 63 63 63 63 63 62 62 61 60 60 60 59 59 59 63
33 39 39 40 42 43 43 45 46 46 47 47 47 47 47 47 47 48 50 51 51 53 54 55 56 57 59 60 61 61 60 61 61 63 63 62 62 62 63 63 63 62 62 61 60 60 59 58 57 58 60 62
28 35 36 36 38 39 41 42 42 43 43 44 43 44 45 45 43 44 44 48 46 50 50 52 53 55 58 59 59 60 61 61 62 62 62 62 62 62 62 62 61 61 61 60 60 59 58 57 58 59 58 60
28 31 33 34 35 37 38 39 39 40 40 39 40 41 42 42 39 40 41 41 42 46 45 49 52 53 54 58 59 59 59 61 62 62 62 61 62 61 60 60 60 60 60 60 58 57 56 57 59 59 59 59
30 29 29 25 26 30 32 36 37 34 34 37 32 38 38 38 38 38 39 40 43 42 44 46 49 50 52 55 56 56 57 60 60 61 61 60 60 59 59 59 57 57 58 57 57 56 56 57 57 57 59 59
28 24 23 24 24 27 31 33 33 31 32 32 31 32 34 37 37 37 38 38 41 42 44 44 47 48 50 51 54 54 55 59 59 59 59 59 58 58 57 56 55 56 56 55 57 56 56 56 57 57 58 58
21 23 22 22 22 22 23 25 28 28 29 30 30 31 32 33 35 36 36 39 41 41 40 42 44 46 46 47 50 50 51 54 58 57 57 56 56 56 55 54 54 54 55 55 55 54 54 54 55 56 56 57
19 21 20 21 20 21 23 23 23 23 24 27 28 28 30 33 33 34 34 35 36 37 39 40 40 42 42 43 46 48 49 50 53 55 54 53 53 53 53 53 53 54 54 54 54 54 54 55 54 54 55 56
19 19 18 20 20 20 21 23 21 21 20 22 25 26 27 30 31 30 31 32 34 36 37 38 39 40 41 42 43 45 47 48 49 51 54 54 53 52 52 52 52 51 52 52 53 53 54 54 54 54 54 54
15 16 17 18 19 18 21 19 19 20 19 20 22 23 24 28 28 28 29 31 32 34 36 37 38 38 40 41 42 44 46 46 47 48 51 54 54 52 52 52 51 51 51 51 52 51 52 53 54 54 54 54
13 16 16 17 20 16 25 19 18 18 20 22 19 23 23 26 25 26 27 29 30 33 35 36 37 37 38 39 41 43 45 45 46 47 48 49 52 53 52 51 51 51 51 50 51 51 51 51 52 52 53 53
13 14 15 16 16 15 26 17 16 17 18 17 19 21 23 24 24 23 24 26 28 31 33 34 36 36 37 38 39 41 43 44 44 45 47 47 47 49 51 52 52 51 50 50 49 50 51 50 50 51 52 52
13 14 15 16 16 16 21 18 16 16 15 15 15 16 21 21 24 22 22 23 26 29 31 33 34 35 36 36 38 40 40 42 44 44 45 45 46 46 46 48 52 51 49 49 49 50 50 51 51 51 50 51
10 12 13 18 14 16 16 18 18 17 15 16 14 16 19 19 23 21 20 21 24 27 30 31 32 33 34 35 36 38 40 41 42 43 44 44 45 45 45 44 45 51 49 49 48 49 49 50 50 50 50 51
14 13 16 18 13 15 17 19 14 15 16 20 14 16 19 18 21 21 19 20 22 25 27 29 30 31 32 33 35 36 38 40 40 41 42 43 43 44 45 45 44 43 43 47 47 47 48 49 48 49 50 51
14 15 17 15 14 15 21 14 14 13 12 15 15 16 18 18 21 18 18 19 21 25 23 26 28 29 31 32 32 35 37 38 38 39 41 42 42 42 43 44 44 43 42 41 42 45 46 47 47 47 48 49
16 15 17 21 18 20 17 14 14 17 12 15 15 14 17 18 20 18 18 19 20 21 20 21 24 27 28 29 31 34 36 36 37 38 38 39 40 40 41 41 42 42 41 42 41 40 39 44 46 46 46 48
13 14 13 16 17 18 22 18 14 14 13 13 12 12 15 19 20 18 18 19 19 20 19 19 20 22 25 27 30 33 34 35 35 36 36 38 38 39 40 40 41 41 41 41 40 39 37 35 36 44 46 46
13 12 12 12 21 17 21 17 18 14 14 14 14 14 15 18 20 19 18 18 18 18 17 18 18 19 22 25 28 30 31 32 34 34 34 36 37 37 38 39 39 40 39 39 39 39 37 36 34 33 40 45
15 14 12 11 12 15 18 16 15 15 15 16 15 15 16 18 21 18 19 19 17 17 17 17 17 18 20 22 25 28 29 30 31 32 33 33 35 37 37 37 37 37 38 38 38 39 39 38 35 32 30 34
13 13 11 14 12 18 14 14 15 15 15 15 15 17 18 20 19 21 20 19 18 17 18 17 16 16 18 20 22 25 27 28 29 30 31 31 33 35 36 36 36 36 36 37 37 38 39 40 38 35 30 29
15 14 12 11 12 12 13 13 13 15 14 16 15 17 20 19 19 19 20 21 19 17 17 16 15 15 17 19 19 20 22 24 26 28 29 29 31 33 35 37 36 35 35 35 36 37 38 39 40 39 35 31
15 14 15 13 11 13 13 12 16 13 14 15 16 19 18 18 18 18 21 19 19 18 17 17 15 15 17 17 18 19 20 22 23 25 27 28 30 32 33 35 36 35 34 35 36 36 38 39 39 40 39 34
15 13 13 13 13 13 13 14 17 15 14 16 15 17 18 18 16 19 19 20 19 18 19 18 15 15 16 17 19 19 19 20 22 24 25 27 29 30 30 32 35 33 34 34 33 36 36 37 39 40 40 39
15 15 13 12 12 13 13 11 11 13 13 15 21 18 17 17 15 17 17 19 18 19 18 17 17 15 16 17 18 20 19 19 23 21 22 25 27 28 30 30 34 33 32 31 30 30 31 34 38 40 39 39
16 15 14 12 12 11 12 11 11 11 13 13 16 16 16 16 16 16 16 17 18 17 17 17 17 16 16 17 19 18 16 16 16 19 21 23 25 26 28 29 32 32 32 29 31 31 32 32 32 34 36 38
16 16 15 15 15 14 11 10 16 13 11 10 11 12 14 14 16 17 16 17 17 16 16 16 17 17 16 17 18 17 16 15 14 17 19 21 24 25 24 26 29 32 31 31 29 26 29 30 31 30 32 31
15 16 16 16 15 16 14 13 11 10 11 10 13 14 12 13 14 16 16 17 17 18 16 15 15 15 15 16 16 17 16 14 14 15 17 20 21 21 23 24 27 28 30 31 31 28 26 26 28 29 28 30
15 16 15 12 15 12 13 11 11 12 10 10 9 7 9 12 14 15 15 16 16 17 18 16 15 14 14 14 15 15 13 12 14 14 15 18 19 19 22 23 25 25 27 29 30 29 30 29 25 27 28 28
17 14 10 9 11 12 10 10 12 9 8 9 9 11 10 11 13 15 14 13 15 16 17 16 16 15 14 13 13 17 13 10 11 12 14 19 18 19 22 20 23 24 24 26 28 28 29 29 30 30 28 25

ECMWFFLT2_sfc_dewp_162.txt.gz
Dewpoint
37 38 40 41 41 42 42 43 43 42 42 43 44 45 44 44 43 43 46 48 49 50 50 50 50 53 54 55 55 56 56 57 58 58 59 60 60 60 60 60 60 60 61 61 61 60 59 59 58 58 58 59
36 35 37 38 38 39 39 40 40 40 39 40 41 41 41 40 39 41 43 44 46 48 48 48 49 51 53 54 54 54 55 55 57 57 57 58 59 59 58 58 59 59 59 59 60 59 59 58 57 57 58 58
29 33 33 35 35 36 36 37 38 37 36 37 38 38 38 37 36 36 39 41 42 44 45 46 46 48 50 52 53 52 53 54 55 55 56 57 57 57 57 58 57 56 57 58 58 58 57 57 57 57 57 57
24 32 31 32 33 32 33 33 33 34 33 33 34 34 35 34 30 31 30 38 35 40 40 42 43 45 48 50 52 52 51 52 53 54 54 55 56 55 55 55 55 55 56 56 56 56 56 56 56 56 56 56
25 29 29 28 31 30 30 30 30 30 30 29 29 30 31 29 25 24 25 28 31 35 33 39 41 42 44 47 49 50 49 49 51 53 53 53 53 53 52 52 52 53 54 55 55 55 54 55 55 56 56 56
27 26 27 20 21 29 26 28 28 25 24 26 21 29 25 23 23 22 22 27 33 31 32 32 38 39 41 44 46 48 47 47 49 50 51 51 52 50 50 49 48 49 52 52 53 53 53 53 54 54 55 55
26 19 20 21 19 26 28 26 24 20 22 19 19 21 23 25 21 22 22 26 30 32 33 30 35 36 38 41 42 45 43 44 45 47 48 48 49 48 47 45 47 48 49 50 52 52 52 52 52 53 54 54
21 19 19 21 18 19 22 20 21 18 19 18 18 19 22 21 21 20 19 28 29 31 27 26 31 33 33 35 37 41 38 40 41 43 44 45 46 44 44 43 44 45 46 48 49 50 50 51 51 52 52 53
22 19 17 21 20 18 23 20 18 18 17 17 18 17 21 22 20 19 18 20 22 24 25 24 24 24 25 27 30 36 33 33 35 37 37 37 39 40 41 41 42 43 44 45 47 48 49 50 50 51 51 52
24 19 17 20 23 19 23 22 19 18 17 16 17 17 21 21 16 15 17 18 20 22 24 23 23 23 23 25 29 32 32 32 33 34 35 36 37 38 39 39 40 41 43 43 45 46 47 48 48 49 50 51
19 18 20 21 24 21 23 20 19 19 18 18 18 18 20 20 16 14 15 16 19 20 22 22 23 23 22 23 26 30 30 31 32 32 34 35 35 37 38 38 39 40 41 42 43 44 45 45 46 47 48 49
18 20 21 25 25 20 30 22 20 20 21 20 17 21 19 24 17 14 15 15 17 19 20 21 23 22 21 22 25 28 29 29 30 31 32 33 34 35 36 37 38 39 40 40 40 41 41 42 44 45 46 47
19 21 21 23 20 20 29 20 19 21 21 17 20 19 20 26 18 14 15 15 16 19 18 19 21 21 21 20 23 26 27 28 29 30 31 32 32 33 35 36 37 38 38 39 39 39 39 40 40 41 43 45
19 21 20 23 20 20 25 20 20 21 19 19 19 18 19 22 22 16 16 15 16 18 16 17 18 20 20 20 21 25 26 27 28 28 29 30 31 32 34 34 36 37 37 37 37 38 38 38 39 40 42 42
19 21 20 26 21 21 20 21 24 21 19 20 19 21 20 21 23 19 17 16 16 18 16 15 16 17 19 19 20 23 25 26 27 27 28 29 30 31 32 33 35 36 36 36 35 36 36 37 38 38 39 40
19 18 21 25 21 20 22 27 19 18 20 26 19 21 20 21 23 24 18 18 17 20 16 15 15 15 17 18 20 22 24 24 25 25 26 28 29 31 32 32 33 34 35 35 34 34 34 35 36 38 39 39
19 19 21 20 18 21 27 22 20 18 17 18 18 20 21 20 24 23 21 19 19 22 16 15 14 14 16 17 20 21 23 23 24 22 23 25 27 29 30 31 32 33 34 33 33 33 33 34 35 37 38 39
16 18 20 27 18 21 21 21 18 25 18 22 22 21 20 19 24 21 20 20 18 17 16 15 14 14 13 15 20 20 21 21 22 20 21 22 24 26 27 29 30 32 33 33 32 32 32 33 35 36 37 38
16 22 21 19 19 16 20 22 19 18 18 17 18 19 18 21 26 22 20 21 19 17 17 16 14 13 14 16 19 19 19 21 21 20 20 21 23 25 25 27 29 31 32 31 31 31 32 33 34 35 36 37
15 16 17 19 29 19 19 19 18 18 18 18 18 24 18 21 24 22 20 21 20 16 17 17 16 14 16 17 18 18 19 20 20 20 20 19 23 23 23 25 26 29 30 30 30 30 31 32 34 34 35 36
18 17 16 16 19 19 21 17 16 16 18 18 17 18 17 20 23 22 20 22 21 17 17 18 17 16 16 18 17 17 18 17 20 20 20 18 22 23 23 24 24 26 28 29 29 29 30 31 32 32 33 36
14 16 20 19 18 27 21 16 17 17 17 16 17 17 19 19 22 25 21 21 21 18 19 20 17 17 17 18 17 17 17 17 18 19 19 17 19 22 23 23 23 25 26 28 28 29 29 29 30 31 34 36
18 19 18 19 18 17 18 17 18 18 18 18 17 17 17 20 22 25 20 20 22 18 19 19 18 17 17 18 17 17 16 16 18 19 17 16 18 21 22 23 23 24 26 27 27 28 28 27 28 31 34 36
19 17 17 14 14 14 16 17 20 20 18 18 17 19 20 20 20 20 22 19 20 18 20 19 18 17 18 17 17 17 15 15 16 17 17 16 19 20 21 19 22 23 25 26 26 27 25 26 28 30 35 35
14 12 14 16 15 12 12 15 16 20 20 17 16 19 19 19 19 19 19 22 20 18 20 22 18 17 17 17 18 17 17 17 17 19 17 18 18 20 19 17 21 23 24 24 21 22 21 25 28 31 34 33
16 14 13 13 12 12 13 14 14 14 14 15 20 21 19 18 19 19 19 21 20 20 17 16 17 17 16 17 17 19 20 18 21 16 14 16 15 18 19 19 21 22 22 20 21 21 20 24 26 28 31 30
14 14 16 13 13 13 14 15 15 14 16 18 19 17 16 17 20 19 18 18 20 18 17 16 16 16 16 17 19 18 16 16 15 14 13 13 14 16 16 19 21 21 22 15 21 23 21 19 21 22 28 27
14 15 14 16 14 14 13 12 20 21 20 16 14 13 15 17 18 16 16 17 17 19 18 16 16 16 16 16 19 17 15 15 14 14 14 12 14 15 12 13 17 20 18 17 22 15 18 20 23 19 24 24
18 17 19 18 18 19 18 15 15 13 12 12 15 19 17 14 15 16 16 17 17 19 18 16 16 16 16 15 16 18 16 15 14 14 14 14 15 12 12 13 15 17 18 16 22 22 18 17 19 20 23 23
19 19 15 15 15 13 13 12 12 10 9 10 9 9 11 13 15 15 15 15 16 16 17 16 16 14 15 15 16 17 16 15 15 15 14 13 13 12 16 14 13 12 13 17 19 20 20 20 18 19 21 20
19 15 14 13 12 12 12 11 12 10 11 11 12 13 12 11 13 15 14 13 13 13 15 16 16 16 15 16 16 19 16 15 14 15 13 15 15 13 18 15 9 10 13 15 12 16 15 16 19 19 19 16

ECMWFFLT2_sfc_dewp_168.txt.gz
Dewpoint
41 42 42 42 42 41 41 41 42 43 42 42 42 40 41 41 42 42 43 44 45 46 45 46 48 49 49 47 48 49 50 50 50 50 50 50 51 50 51 50 52 52 52 52 52 52 51 51 51 51 51 50
39 39 39 39 38 38 39 39 39 39 39 39 39 38 37 37 38 40 40 40 41 43 43 42 44 46 48 46 47 48 48 48 48 48 49 48 48 49 50 49 49 50 50 50 51 50 49 48 48 48 49 48
33 37 36 37 36 37 36 35 36 36 37 35 36 35 34 33 34 35 37 36 38 40 41 40 40 43 46 45 44 44 46 47 47 47 47 47 47 47 47 47 47 47 48 49 49 48 47 46 46 46 46 46
26 31 35 34 34 33 34 33 32 33 32 33 31 31 31 31 25 29 29 34 29 36 37 37 36 40 43 44 43 43 42 44 44 45 45 45 45 45 44 45 43 44 46 45 46 45 44 44 43 42 43 43
26 28 29 32 31 31 31 30 30 29 29 27 29 25 26 25 20 20 23 25 24 31 27 35 35 36 39 43 42 40 40 41 42 42 43 43 43 43 42 41 38 39 41 42 43 42 41 40 38 40 40 41
25 27 26 22 25 29 27 27 26 25 22 26 20 25 21 20 20 18 22 25 27 25 26 28 33 33 35 39 39 38 38 38 39 40 40 40 40 39 39 38 30 32 37 38 40 39 38 35 36 37 38 39
26 21 21 22 23 26 28 26 23 19 23 18 20 21 17 21 18 17 21 22 24 25 27 24 30 31 32 34 36 35 34 34 36 36 37 38 37 37 36 29 29 30 31 31 36 35 31 31 33 34 35 37
20 21 22 21 22 21 21 21 23 19 19 19 19 19 17 16 19 16 15 23 23 22 19 19 25 27 27 28 30 31 25 29 31 31 32 33 34 31 29 27 27 29 29 30 29 29 28 28 28 30 33 36
22 22 22 22 23 22 22 20 19 18 19 20 20 20 17 16 18 15 13 14 13 14 14 15 15 16 16 18 18 27 18 18 19 20 19 19 23 22 24 25 26 28 28 29 29 28 27 26 26 27 31 33
27 23 22 24 24 22 21 21 20 19 19 19 21 21 21 17 12 12 12 13 13 13 13 12 13 14 16 16 18 23 18 18 18 17 17 18 19 21 23 24 25 27 29 28 28 27 26 25 25 26 28 29
23 21 21 25 28 22 21 22 19 19 19 21 21 22 24 14 12 12 12 13 13 12 13 12 13 13 15 16 17 20 18 18 17 16 16 16 18 20 22 22 23 26 26 27 27 26 24 24 23 24 26 27
20 20 22 29 28 26 31 24 20 20 21 23 21 25 24 23 14 13 12 14 14 13 13 13 14 14 14 15 17 19 19 18 17 16 15 15 17 18 20 21 21 24 25 27 27 25 23 22 21 23 24 25
20 23 23 25 21 20 32 19 18 19 22 18 24 22 25 23 15 15 14 15 16 13 13 13 13 12 12 14 17 18 16 19 17 15 15 14 15 16 18 18 19 22 23 26 26 25 23 21 21 22 24 25
18 21 18 22 23 20 29 19 20 25 19 18 19 18 22 25 18 16 15 15 16 13 13 13 13 13 12 13 16 17 16 19 18 16 15 14 14 15 17 16 17 20 21 23 23 24 23 21 21 22 23 25
18 26 17 26 26 22 21 21 27 26 21 19 20 21 22 24 24 19 17 16 17 14 14 13 12 12 13 12 15 17 16 17 19 16 16 15 15 14 16 15 16 18 18 19 19 21 20 20 21 21 23 25
22 18 19 28 20 18 21 28 22 19 20 27 20 23 20 21 21 26 19 18 19 16 15 14 13 13 13 13 16 18 18 16 17 17 16 16 16 15 15 13 12 16 16 15 16 17 17 19 20 21 23 24
21 21 22 25 21 22 28 23 24 18 17 19 19 22 21 21 23 28 19 19 20 23 15 15 14 13 16 15 17 17 19 16 16 14 14 14 15 14 12 12 11 15 13 13 14 15 14 17 19 21 23 23
19 19 20 23 20 28 23 21 20 25 22 21 25 24 22 20 22 22 21 19 18 18 16 16 15 15 14 16 19 17 18 15 16 15 14 16 13 17 14 12 12 12 11 13 14 13 14 16 18 21 21 21
18 18 21 24 22 20 21 19 19 19 19 19 17 21 20 22 24 23 21 21 16 17 17 16 15 15 15 18 20 16 17 16 16 16 14 16 13 13 12 13 13 13 12 14 14 13 14 15 18 19 18 20
20 21 19 19 23 17 22 22 18 18 18 19 19 22 20 19 22 26 21 22 19 15 16 15 15 15 19 18 18 17 16 17 16 16 16 14 15 13 12 17 11 12 12 14 15 14 14 15 17 15 16 19
19 17 17 17 19 22 21 18 16 16 18 20 18 17 17 18 21 24 22 21 21 16 17 16 17 17 18 21 18 17 16 14 21 17 17 14 18 16 14 13 11 11 13 15 15 13 14 14 13 11 13 19
17 16 15 16 17 25 19 17 16 16 18 17 17 17 17 18 20 25 22 21 21 19 18 17 17 18 18 20 18 17 16 15 16 17 17 14 14 17 15 13 11 11 14 16 15 13 14 10 8 9 14 21
16 16 15 15 16 16 17 18 17 17 17 17 16 17 17 18 21 23 22 21 21 19 18 20 19 18 18 19 17 16 15 14 17 17 16 15 15 17 16 16 13 14 16 16 13 13 10 8 8 11 17 26
17 17 17 14 14 15 17 17 18 17 15 15 16 18 19 19 19 20 22 21 20 19 20 19 18 17 18 17 17 16 15 15 14 14 16 15 17 15 15 14 13 14 17 13 11 11 9 8 9 14 20 29
14 14 15 15 13 11 11 13 13 16 16 17 16 18 18 19 20 19 20 22 21 19 21 21 18 18 18 18 18 18 17 15 16 17 19 18 17 16 13 12 14 16 17 10 7 8 7 9 15 19 22 27
15 14 13 12 12 12 12 12 15 16 15 15 18 19 19 19 19 19 18 22 21 21 17 17 18 18 17 17 17 17 18 18 22 19 15 15 13 17 15 13 18 18 11 12 10 8 6 10 9 17 24 17
14 14 15 12 11 12 12 13 13 14 16 18 18 18 19 19 18 18 18 18 23 20 19 17 17 16 17 16 18 19 16 16 15 14 13 12 12 12 15 18 21 18 14 8 13 12 14 6 8 16 23 15
14 14 13 14 13 14 12 12 20 16 16 17 18 17 18 19 19 18 17 18 19 20 18 17 17 17 16 16 19 17 15 15 15 14 14 11 14 13 10 10 14 22 17 13 12 5 2 7 10 3 18 8
17 16 17 16 16 18 18 17 15 15 14 16 17 18 15 15 17 17 17 17 17 20 17 17 17 16 16 16 16 18 16 15 15 15 14 14 14 11 9 9 15 16 17 15 15 8 4 3 3 -0 6 8
17 18 15 14 15 13 14 13 13 12 12 12 13 14 15 15 16 16 16 16 16 16 18 16 16 16 16 15 16 18 16 15 15 15 15 14 14 11 12 10 10 8 14 16 17 14 13 10 3 6 9 7
18 16 15 13 13 13 12 12 13 12 13 14 14 15 13 14 15 16 15 15 15 15 17 16 15 15 16 16 16 19 15 15 15 15 15 16 14 14 17 13 8 10 10 11 11 16 17 16 14 9 8 6

ECMWFFLT2_sfc_dewp_174.txt.gz
Dewpoint
45 46 46 47 46 46 46 45 45 46 46 47 47 47 47 47 47 47 48 48 49 49 48 47 48 49 49 49 49 49 49 48 48 48 47 47 46 47 48 48 48 47 45 44 43 41 42 41 41 41 40 36
43 43 44 45 44 44 44 44 44 43 43 44 44 44 43 43 44 45 46 46 46 47 47 46 46 47 47 48 48 48 48 47 47 46 45 45 45 45 45 46 46 44 43 42 42 39 40 39 39 39 39 37
40 41 41 42 42 42 42 42 42 41 40 40 39 39 39 40 41 42 43 42 43 44 45 44 43 44 45 45 46 47 47 47 46 45 45 43 43 42 42 42 42 42 42 41 40 38 38 36 35 36 36 36
36 39 39 39 39 39 40 40 39 38 38 38 36 36 35 33 32 34 35 39 38 41 42 42 40 42 43 44 44 44 45 44 44 44 43 42 42 41 40 39 39 39 40 40 39 37 35 32 32 31 32 35
37 37 37 36 37 36 36 36 36 35 33 33 33 31 30 29 26 27 29 30 31 35 36 40 40 39 41 43 43 42 42 43 44 42 42 42 40 39 37 34 34 35 36 37 36 34 32 30 25 30 33 34
32 32 30 30 28 26 27 28 27 27 27 27 26 27 25 24 22 22 24 29 31 29 31 35 38 37 39 40 41 41 39 39 40 41 40 39 38 37 34 32 27 29 31 32 33 30 29 23 25 29 32 33
27 24 26 28 26 27 27 27 25 24 24 25 26 24 22 20 22 21 23 25 30 32 33 31 35 35 35 36 35 35 36 36 36 37 37 35 34 33 30 25 25 25 26 25 28 26 23 20 25 28 31 32
19 20 20 21 23 22 21 24 25 25 25 25 26 24 19 18 24 23 20 26 26 24 23 26 29 29 29 30 31 28 27 29 30 30 31 32 29 27 26 23 21 22 22 24 22 21 19 21 24 26 27 30
18 20 18 19 19 20 19 22 21 21 24 26 26 24 20 24 24 23 21 23 21 21 22 23 23 24 24 25 27 25 25 23 26 24 25 24 23 21 24 23 23 23 22 21 21 19 19 20 23 24 26 29
20 22 18 19 19 19 20 24 21 21 21 23 25 23 23 22 23 22 22 23 23 23 22 21 20 21 22 23 24 22 22 21 23 21 21 22 21 19 21 23 23 22 21 22 20 20 22 21 21 22 23 27
19 19 18 19 19 20 19 19 22 20 20 22 24 26 25 21 19 19 19 22 24 22 21 20 19 19 20 23 21 20 21 23 21 20 19 19 21 20 22 23 22 22 21 22 22 22 22 22 20 21 23 26
19 19 20 20 21 20 19 19 19 19 19 24 22 24 19 19 19 18 19 22 22 21 21 21 22 21 20 19 19 20 21 22 19 18 19 22 21 16 19 20 22 20 18 20 21 22 23 23 21 22 23 26
18 21 22 22 19 18 21 19 19 19 22 21 18 22 24 21 19 18 20 20 20 20 22 22 22 19 19 20 20 21 18 20 20 19 19 19 18 20 19 18 20 20 19 18 19 19 22 21 19 22 24 28
19 20 23 26 22 20 22 18 19 23 18 17 19 19 23 23 20 19 18 20 19 20 22 21 23 20 19 19 18 19 20 18 17 17 19 19 20 17 18 17 19 17 19 18 19 19 21 20 16 19 22 27
15 18 19 21 22 23 20 19 20 21 18 18 18 19 24 23 22 20 20 19 19 18 20 21 21 19 19 18 18 19 19 19 20 17 18 19 16 17 17 16 17 16 17 18 18 19 20 19 17 17 20 25
14 16 17 21 18 23 20 22 18 17 18 19 18 22 25 22 21 19 20 22 21 20 20 19 19 19 19 18 18 18 19 18 19 19 21 22 23 21 19 17 17 19 15 16 16 16 18 18 18 16 18 24
14 16 16 19 19 18 24 19 19 17 18 18 19 22 24 23 22 19 20 20 22 21 19 20 21 19 19 18 19 20 23 24 22 20 19 21 21 19 20 20 18 22 17 16 17 17 16 16 17 18 17 23
12 15 16 15 14 16 19 17 16 17 17 17 16 20 23 24 23 21 18 20 23 20 18 21 21 21 19 18 21 21 21 17 17 16 19 18 16 16 16 17 18 15 17 14 15 16 18 16 16 15 18 22
10 11 16 14 13 15 19 16 16 15 16 16 17 17 19 22 22 22 20 21 18 19 18 17 18 19 18 19 21 19 18 17 17 18 18 16 16 18 16 17 17 17 16 16 16 16 15 14 12 17 16 24
11 9 13 15 19 15 21 14 15 14 16 15 15 16 19 22 22 22 21 21 21 18 18 16 16 16 17 21 19 19 18 19 17 17 20 18 20 17 18 17 17 16 16 17 15 17 16 15 16 14 14 22
16 11 10 11 15 18 21 16 14 12 14 15 16 14 16 19 20 22 23 21 22 19 19 16 17 16 21 21 19 19 18 17 18 18 22 18 18 20 15 18 18 15 15 17 15 16 16 17 16 16 16 18
16 13 11 14 16 17 16 17 15 14 14 14 13 14 15 20 19 20 22 22 21 19 19 18 17 19 20 20 19 19 18 16 17 18 19 17 19 17 18 14 17 16 15 20 20 15 17 16 12 12 14 19
16 14 11 11 15 17 16 16 15 15 14 15 13 14 17 20 18 18 22 22 22 19 17 17 17 18 21 19 18 18 18 18 18 19 18 19 18 19 18 16 18 16 18 23 22 19 14 13 9 15 14 23
18 16 15 14 14 16 17 15 16 17 15 15 15 16 17 19 18 17 18 20 20 19 16 16 17 18 20 20 18 18 18 16 16 20 21 20 21 21 19 19 17 18 17 16 19 18 15 13 13 14 16 19
18 19 17 16 13 12 13 14 15 16 16 15 16 18 19 19 18 19 19 20 20 19 18 16 16 17 19 19 18 17 17 18 17 18 19 18 19 20 19 18 18 20 20 17 13 14 18 16 15 15 17 18
15 17 16 15 15 12 12 13 14 15 14 16 19 19 20 20 19 20 21 18 20 18 18 17 15 17 17 18 17 17 16 18 19 19 18 19 16 19 17 14 19 20 20 17 10 8 6 16 15 17 20 21
15 14 16 13 13 12 12 13 15 16 17 17 18 19 21 20 20 22 22 21 21 20 19 17 17 16 15 17 16 16 17 18 19 18 21 19 15 16 17 13 21 18 17 15 14 16 18 6 4 17 20 21
16 15 13 16 15 15 11 12 14 16 17 20 19 19 20 21 20 21 21 21 23 22 22 20 18 17 16 16 17 17 15 16 16 17 18 18 19 19 16 18 19 19 20 20 19 10 16 13 16 13 19 19
17 16 17 18 20 22 20 18 18 14 13 14 17 18 20 19 21 22 21 21 22 20 22 23 23 20 18 16 17 15 15 13 15 16 16 17 17 17 15 16 16 22 20 19 18 19 10 12 11 15 15 9
16 17 17 16 18 16 17 14 14 14 14 14 13 15 15 19 20 21 21 22 22 22 21 23 24 25 22 21 19 18 16 13 13 15 15 15 15 14 15 16 18 18 22 19 21 23 14 16 10 10 14 10
19 18 14 14 16 15 15 14 16 12 13 16 16 17 14 17 19 21 20 21 22 22 22 21 23 23 22 20 20 20 18 17 16 16 18 16 15 13 15 16 13 18 19 21 20 22 22 22 21 20 13 11